[[{"header":{"parameterUnit":"m.s-1","parameterCategory":1,"la1":30.6,"la2":28.766,"lo1":-90.7593,"lo2":-88.6598,"dy":0.0162,"dx":0.0183,"nx":116,"ny":114,"refTime":"2024-06-02T00:00:00:Z","depth":0,"parameterNumber":2,"parameterNumberName":"U-component_of_WINDS"},"data":[0.0,0.0,0.0,0.0,0.0,0.0,0.0,0.0,0.0,0.0,0.0,0.0,0.0,0.0,0.0,0.0,0.0,0.0,0.0,0.0,0.0,0.0,0.0,0.0,0.0,0.0,0.0,0.0,0.0,0.0,0.0,0.0,0.0,0.0,0.0,0.0,0.0,0.0,0.0,0.0,0.0,0.0,0.0,0.0,0.0,0.0,0.0,0.0,0.0,0.0,0.0,0.0,0.0,0.0,0.0,0.0,0.0,0.0,0.0,0.0,0.0,0.0,0.0,0.0,0.0,0.0,0.0,0.0,0.0,0.0,0.0,0.0,0.0,0.0,0.0,0.0,0.0,0.0,0.0,0.0,0.0,0.0,0.0,0.0,0.0,0.0,0.0,0.0,0.0,0.0,0.0,0.0,0.0,0.0,0.0,0.0,0.0,0.0,0.0,0.0,0.0,0.0,0.0,0.0,0.0,0.0,0.0,0.0,0.0,0.0,0.0,0.0,0.0,0.0,0.0,0.0,0.0,0.0,0.0,0.0,0.0,0.0,0.0,0.0,0.0,0.0,0.0,0.0,0.0,0.0,0.0,0.0,0.0,0.0,0.0,0.0,0.0,0.0,0.0,0.0,0.0,0.0,0.0,0.0,0.0,0.0,0.0,0.0,0.0,0.0,0.0,0.0,0.0,0.0,0.0,0.0,0.0,0.0,0.0,0.0,0.0,0.0,0.0,0.0,0.0,0.0,0.0,0.0,0.0,0.0,0.0,0.0,0.0,0.0,0.0,0.0,0.0,0.0,0.0,0.0,0.0,0.0,0.0,0.0,0.0,0.0,0.0,0.0,0.0,0.0,0.0,0.0,0.0,0.0,0.0,0.0,0.0,0.0,0.0,0.0,0.0,0.0,0.0,0.0,0.0,0.0,0.0,0.0,0.0,0.0,0.0,0.0,0.0,0.0,0.0,0.0,0.0,0.0,0.0,0.0,0.0,0.0,0.0,0.0,0.0,0.0,0.0,0.0,0.0,0.0,0.0,0.0,0.0,0.0,0.0,0.0,0.0,0.0,0.0,0.0,0.0,0.0,0.0,0.0,0.0,0.0,0.0,0.0,0.0,0.0,0.0,0.0,0.0,0.0,0.0,0.0,0.0,0.0,0.0,0.0,0.0,0.0,0.0,0.0,0.0,0.0,0.0,0.0,0.0,0.0,0.0,0.0,0.0,0.0,0.0,0.0,0.0,0.0,0.0,0.0,0.0,0.0,0.0,0.0,0.0,0.0,0.0,0.0,0.0,0.0,0.0,0.0,0.0,0.0,0.0,0.0,0.0,0.0,0.0,0.0,0.0,0.0,0.0,0.0,0.0,0.0,0.0,0.0,0.0,0.0,0.0,0.0,0.0,0.0,0.0,0.0,0.0,0.0,0.0,0.0,0.0,0.0,0.0,0.0,0.0,0.0,0.0,0.0,0.0,0.0,0.0,0.0,0.0,0.0,0.0,0.0,0.0,0.0,0.0,0.0,0.0,0.0,0.0,0.0,0.0,0.0,0.0,0.0,0.0,0.0,0.0,0.0,0.0,0.0,0.0,0.0,0.0,0.0,0.0,0.0,0.0,0.0,0.0,0.0,0.0,0.0,0.0,0.0,0.0,0.0,0.0,0.0,0.0,0.0,0.0,0.0,0.0,0.0,0.0,0.0,0.0,0.0,0.0,0.0,0.0,0.0,0.0,0.0,0.0,0.0,0.0,0.0,0.0,0.0,0.0,0.0,0.0,0.0,0.0,0.0,0.0,0.0,0.0,0.0,0.0,0.0,0.0,0.0,0.0,0.0,0.0,0.0,0.0,0.0,0.0,0.0,0.0,0.0,0.0,0.0,0.0,0.0,0.0,0.0,0.0,0.0,0.0,0.0,0.0,0.0,0.0,0.0,0.0,0.0,0.0,0.0,0.0,0.0,0.0,0.0,0.0,0.0,0.0,0.0,0.0,0.0,0.0,0.0,0.0,0.0,0.0,0.0,0.0,0.0,0.0,0.0,0.0,0.0,0.0,0.0,0.0,0.0,0.0,0.0,0.0,0.0,0.0,0.0,0.0,0.0,0.0,0.0,0.0,0.0,0.0,0.0,0.0,0.0,0.0,0.0,0.0,0.0,0.0,0.0,0.0,0.0,0.0,0.0,0.0,0.0,0.0,0.0,0.0,0.0,0.0,0.0,0.0,0.0,0.0,0.0,0.0,0.0,0.0,0.0,0.0,0.0,0.0,0.0,0.0,0.0,0.0,0.0,0.0,0.0,0.0,0.0,0.0,0.0,0.0,0.0,0.0,0.0,0.0,0.0,0.0,0.0,0.0,0.0,0.0,0.0,0.0,0.0,0.0,0.0,0.0,0.0,0.0,0.0,0.0,0.0,0.0,0.0,0.0,0.0,0.0,0.0,0.0,0.0,0.0,0.0,0.0,0.0,0.0,0.0,0.0,0.0,0.0,0.0,0.0,0.0,0.0,0.0,0.0,0.0,0.0,0.0,0.0,0.0,0.0,0.0,0.0,0.0,0.0,0.0,0.0,0.0,0.0,0.0,0.0,0.0,0.0,0.0,0.0,0.0,0.0,0.0,0.0,0.0,0.0,0.0,0.0,0.0,0.0,0.0,0.0,0.0,0.0,0.0,0.0,0.0,0.0,0.0,0.0,0.0,0.0,0.0,0.0,0.0,0.0,0.0,0.0,0.0,0.0,0.0,0.0,0.0,0.0,0.0,0.0,0.0,0.0,0.0,0.0,0.0,0.0,0.0,0.0,0.0,0.0,0.0,0.0,0.0,0.0,0.0,0.0,0.0,0.0,0.0,0.0,0.0,0.0,0.0,0.0,0.0,0.0,0.0,0.0,0.0,0.0,0.0,0.0,0.0,0.0,0.0,0.0,0.0,0.0,0.0,0.0,0.0,0.0,0.0,0.0,0.0,0.0,0.0,0.0,0.0,0.0,0.0,0.0,0.0,0.0,0.0,0.0,0.0,0.0,0.0,0.0,0.0,0.0,0.0,0.0,0.0,0.0,0.0,0.0,0.0,0.0,0.0,0.0,0.0,0.0,0.0,0.0,0.0,0.0,0.0,0.0,0.0,0.0,0.0,0.0,0.0,0.0,0.0,0.0,0.0,0.0,0.0,0.0,0.0,0.0,0.0,0.0,0.0,0.0,0.0,0.0,0.0,0.0,0.0,0.0,0.0,0.0,0.0,0.0,0.0,0.0,0.0,0.0,0.0,0.0,0.0,0.0,0.0,0.0,0.0,0.0,0.0,0.0,0.0,0.0,0.0,0.0,0.0,0.0,0.0,0.0,0.0,0.0,0.0,0.0,0.0,0.0,0.0,0.0,0.0,0.0,0.0,0.0,0.0,0.0,0.0,0.0,0.0,0.0,0.0,0.0,0.0,0.0,0.0,0.0,0.0,0.0,0.0,0.0,0.0,0.0,0.0,0.0,0.0,0.0,0.0,0.0,0.0,0.0,0.0,0.0,0.0,0.0,0.0,0.0,0.0,0.0,0.0,0.0,0.0,0.0,0.0,0.0,0.0,0.0,0.0,0.0,0.0,0.0,0.0,0.0,0.0,0.0,0.0,0.0,0.0,0.0,0.0,0.0,0.0,0.0,0.0,0.0,0.0,0.0,0.0,0.0,0.0,0.0,0.0,0.0,0.0,0.0,0.0,0.0,0.0,0.0,0.0,0.0,0.0,0.0,0.0,0.0,0.0,0.0,0.0,0.0,0.0,0.0,0.0,0.0,0.0,0.0,0.0,0.0,0.0,0.0,0.0,0.0,0.0,0.0,0.0,0.0,0.0,0.0,0.0,0.0,0.0,0.0,0.0,0.0,0.0,0.0,0.0,0.0,0.0,0.0,0.0,0.0,0.0,0.0,0.0,0.0,0.0,0.0,0.0,0.0,0.0,0.0,0.0,0.0,0.0,0.0,0.0,0.0,0.0,0.0,0.0,0.0,0.0,0.0,0.0,0.0,0.0,0.0,0.0,0.0,0.0,0.0,0.0,0.0,0.0,0.0,0.0,0.0,0.0,0.0,0.0,0.0,0.0,0.0,0.0,0.0,0.0,0.0,0.0,0.0,0.0,0.0,0.0,0.0,0.0,0.0,0.0,0.0,0.0,0.0,0.0,0.0,0.0,0.0,0.0,0.0,0.0,0.0,0.0,0.0,0.0,0.0,0.0,0.0,0.0,0.0,0.0,0.0,0.0,0.0,0.0,0.0,0.0,0.0,0.0,0.0,0.0,0.0,0.0,0.0,0.0,0.0,0.0,0.0,0.0,0.0,0.0,0.0,0.0,0.0,0.0,0.0,0.0,0.0,0.0,0.0,0.0,0.0,0.0,0.0,0.0,0.0,0.0,0.0,0.0,0.0,0.0,0.0,0.0,0.0,0.0,0.0,0.0,0.0,0.0,0.0,0.0,0.0,0.0,0.0,0.0,0.0,0.0,0.0,0.0,0.0,0.0,0.0,0.0,0.0,0.0,0.0,0.0,0.0,0.0,0.0,0.0,0.0,0.0,0.0,0.0,0.0,0.0,0.0,0.0,0.0,0.0,0.0,0.0,0.0,0.0,0.0,0.0,0.0,0.0,0.0,0.0,0.0,0.0,0.0,0.0,0.0,0.0,0.0,0.0,0.0,0.0,0.0,0.0,0.0,0.0,0.0,0.0,0.0,0.0,0.0,0.0,0.0,0.0,0.0,0.0,0.0,0.0,0.0,0.0,0.0,0.0,0.0,0.0,0.0,0.0,0.0,0.0,0.0,0.0,0.0,0.0,0.0,0.0,0.0,0.0,0.0,0.0,0.0,0.0,0.0,0.0,0.0,0.0,0.0,0.0,0.0,0.0,0.0,0.0,0.0,0.0,0.0,0.0,0.0,0.0,0.0,0.0,0.0,0.0,0.0,0.0,0.0,0.0,0.0,0.0,0.0,0.0,0.0,0.0,0.0,0.0,0.0,0.0,0.0,0.0,0.0,0.0,0.0,0.0,0.0,0.0,0.0,0.0,0.0,0.0,0.0,0.0,0.0,0.0,0.0,0.0,0.0,0.0,0.0,0.0,0.0,0.0,0.0,0.0,0.0,0.0,0.0,0.0,0.0,0.0,0.0,0.0,0.0,0.0,0.0,0.0,0.0,0.0,0.0,0.0,0.0,0.0,0.0,0.0,0.0,0.0,0.0,0.0,0.0,0.0,0.0,0.0,0.0,0.0,0.0,0.0,0.0,0.0,0.0,0.0,0.0,0.0,0.0,0.0,0.0,0.0,0.0,0.0,0.0,0.0,0.0,0.0,0.0,0.0,0.0,0.0,0.0,0.0,0.0,0.0,0.0,0.0,0.0,0.0,0.0,0.0,0.0,0.0,0.0,0.0,0.0,0.0,0.0,0.0,0.0,0.0,0.0,0.0,0.0,0.0,0.0,0.0,0.0,0.0,0.0,0.0,0.0,0.0,0.0,0.0,0.0,0.0,0.0,0.0,0.0,0.0,0.0,0.0,0.0,0.0,0.0,0.0,0.0,0.0,0.0,0.0,0.0,0.0,0.0,0.0,0.0,0.0,0.0,0.0,0.0,0.0,0.0,0.0,0.0,0.0,0.0,0.0,0.0,0.0,0.0,0.0,0.0,0.0,0.0,0.0,0.0,0.0,0.0,0.0,0.0,0.0,0.0,0.0,0.0,0.0,0.0,0.0,0.0,0.0,0.0,0.0,0.0,0.0,0.0,0.0,0.0,0.0,0.0,0.0,0.0,0.0,0.0,0.0,0.0,0.0,0.0,0.0,0.0,0.0,0.0,0.0,0.0,0.0,0.0,0.0,0.0,0.0,0.0,0.0,0.0,0.0,0.0,0.0,0.0,0.0,0.0,0.0,0.0,0.0,0.0,0.0,0.0,0.0,0.0,0.0,0.0,0.0,0.0,0.0,0.0,0.0,0.0,0.0,0.0,0.0,0.0,0.0,0.0,0.0,0.0,0.0,0.0,0.0,0.0,0.0,0.0,0.0,0.0,0.0,0.0,0.0,0.0,0.0,0.0,0.0,0.0,0.0,0.0,0.0,0.0,0.0,0.0,0.0,0.0,0.0,0.0,0.0,0.0,0.0,-3.7796,-3.7293,0.0,0.0,0.0,0.0,0.0,0.0,0.0,0.0,0.0,0.0,0.0,0.0,0.0,0.0,0.0,0.0,0.0,0.0,0.0,0.0,0.0,0.0,0.0,-2.8691,-2.9492,-3.0781,-3.0898,-3.0898,-3.0897,0.0,0.0,0.0,0.0,0.0,-2.8316,-2.7458,-2.6987,-2.6943,-2.6106,-2.5675,-2.5649,-2.5649,-2.5677,-2.5723,0.0,0.0,0.0,0.0,0.0,0.0,0.0,0.0,0.0,0.0,0.0,0.0,0.0,0.0,0.0,0.0,0.0,0.0,0.0,0.0,0.0,0.0,0.0,0.0,0.0,0.0,0.0,0.0,0.0,0.0,0.0,0.0,0.0,0.0,0.0,0.0,0.0,0.0,0.0,0.0,0.0,0.0,0.0,0.0,0.0,0.0,0.0,0.0,0.0,0.0,0.0,0.0,0.0,0.0,0.0,0.0,0.0,0.0,0.0,0.0,0.0,0.0,0.0,0.0,0.0,0.0,0.0,0.0,0.0,0.0,-3.8692,-3.839,0.0,0.0,0.0,0.0,0.0,0.0,0.0,0.0,0.0,0.0,0.0,0.0,0.0,0.0,0.0,0.0,0.0,0.0,0.0,0.0,0.0,-2.6191,-2.8086,-2.8301,-2.9004,-3.0741,-3.0898,-3.0898,-3.0895,-3.0874,0.0,0.0,0.0,-2.9437,-2.8714,-2.7719,-2.7166,-2.711,-2.6158,-2.5642,-2.5601,-2.5601,-2.5633,-2.5721,-2.6581,0.0,0.0,0.0,0.0,0.0,0.0,0.0,0.0,0.0,0.0,0.0,0.0,0.0,0.0,0.0,0.0,0.0,0.0,0.0,0.0,0.0,0.0,0.0,0.0,0.0,0.0,0.0,0.0,0.0,0.0,0.0,0.0,0.0,0.0,0.0,0.0,0.0,0.0,0.0,0.0,0.0,0.0,0.0,0.0,0.0,0.0,0.0,0.0,0.0,0.0,0.0,0.0,0.0,0.0,0.0,0.0,0.0,0.0,0.0,0.0,0.0,0.0,0.0,-3.9694,-3.9664,-3.9645,-3.8995,-3.9053,-3.9664,-3.9664,-3.9673,-3.9611,-3.8884,0.0,0.0,0.0,0.0,0.0,0.0,0.0,0.0,0.0,0.0,0.0,0.0,0.0,0.0,0.0,0.0,0.0,0.0,0.0,-2.5527,-2.8026,-2.83,-2.9002,-3.0758,-3.0895,-3.0895,-3.0894,-3.0795,0.0,0.0,-3.0508,-3.0416,-3.0296,-2.8755,-2.794,-2.7935,-2.6383,-2.5617,-2.5601,-2.5601,-2.5607,-2.5657,-2.6524,-2.646,-2.5762,0.0,0.0,0.0,0.0,0.0,0.0,0.0,0.0,0.0,0.0,0.0,0.0,0.0,0.0,0.0,0.0,0.0,0.0,0.0,0.0,0.0,0.0,0.0,0.0,0.0,0.0,0.0,0.0,0.0,0.0,0.0,0.0,0.0,0.0,0.0,0.0,0.0,0.0,0.0,0.0,0.0,-3.6437,-3.654,0.0,0.0,0.0,0.0,0.0,0.0,0.0,0.0,0.0,0.0,0.0,0.0,0.0,-3.9878,-4.0616,-4.0679,-4.0666,-4.0544,-4.0428,-4.0364,-4.0364,-4.026,-4.026,-4.0364,-4.0364,0.0,-3.9522,-3.9406,0.0,0.0,0.0,0.0,0.0,0.0,0.0,0.0,0.0,0.0,0.0,0.0,0.0,0.0,0.0,0.0,0.0,0.0,0.0,0.0,0.0,-2.7576,-2.8061,-2.9277,-2.9377,-2.9564,-3.002,-2.9998,-3.0175,-3.0611,-3.0617,-3.0593,-3.0593,-2.8968,-2.7618,-2.6637,-2.5867,-2.5495,-2.5483,-2.5483,-2.5505,-2.5579,-2.6454,-2.6665,-2.6403,-2.6788,0.0,0.0,0.0,0.0,0.0,0.0,0.0,0.0,0.0,0.0,0.0,0.0,0.0,0.0,0.0,0.0,0.0,0.0,0.0,0.0,0.0,0.0,0.0,0.0,0.0,0.0,0.0,0.0,0.0,0.0,0.0,0.0,0.0,0.0,0.0,0.0,0.0,0.0,0.0,-3.6,-3.6692,-3.6692,-3.6692,-3.6519,0.0,0.0,0.0,0.0,0.0,0.0,0.0,0.0,0.0,-3.9359,-3.9862,-4.0526,-4.1358,-4.1817,-4.2058,-4.2039,-4.1482,-4.1239,-4.12,-4.0727,-4.0496,-4.0496,-4.0496,-4.034,-4.0031,-3.9613,-3.9044,-3.8393,0.0,0.0,0.0,0.0,-3.5989,-3.5223,0.0,0.0,0.0,0.0,0.0,0.0,0.0,0.0,0.0,0.0,0.0,0.0,-2.6893,-2.7009,-2.7312,-2.8138,-2.82,-2.8455,-2.9036,-2.924,-2.9615,-3.0218,-3.0447,-3.0435,-3.0226,-2.8574,-2.6982,-2.5468,-2.5423,-2.5406,-2.541,-2.541,-2.5425,-2.5506,-2.6148,-2.6595,-2.6898,-2.7131,-2.7217,-2.7156,0.0,0.0,0.0,0.0,0.0,0.0,0.0,0.0,0.0,0.0,0.0,0.0,0.0,0.0,0.0,0.0,0.0,0.0,0.0,0.0,0.0,0.0,0.0,0.0,0.0,0.0,0.0,0.0,0.0,0.0,0.0,0.0,0.0,0.0,0.0,0.0,0.0,-3.675,-3.6942,-3.6731,-3.7077,-3.7046,0.0,0.0,0.0,0.0,0.0,0.0,-3.8728,-3.8933,-3.942,-4.0246,-4.09,-4.154,-4.2143,-4.2777,-4.3104,-4.3085,-4.245,-4.2019,-4.1769,-4.1123,-4.0708,-4.0496,-4.0496,-4.0496,-4.0466,-3.9906,-3.9603,-3.9403,-3.8811,-3.8069,-3.734,-3.734,-3.6899,-3.6318,0.0,0.0,0.0,0.0,0.0,0.0,0.0,0.0,0.0,0.0,0.0,-2.6031,-2.6906,-2.7003,-2.7325,-2.8125,-2.8199,-2.8182,-2.8164,-2.8823,-2.9233,-2.9272,-3.0001,-3.0023,-2.9182,-2.7521,-2.6266,-2.5403,-2.5398,-2.5407,-2.541,-2.541,-2.5391,-2.5415,-2.5458,-2.5963,-2.6865,-2.776,-2.8093,-2.8035,-2.8055,0.0,0.0,0.0,0.0,0.0,0.0,0.0,0.0,0.0,0.0,0.0,0.0,0.0,0.0,0.0,0.0,0.0,0.0,0.0,0.0,0.0,0.0,0.0,0.0,0.0,0.0,0.0,0.0,0.0,0.0,0.0,0.0,0.0,0.0,0.0,0.0,0.0,0.0,-3.6788,-3.8161,0.0,0.0,0.0,0.0,-3.7942,-3.8741,-3.9607,-4.0434,-4.1205,-4.2008,-4.2874,-4.2951,-4.2989,-4.3028,-4.3085,-4.3104,-4.3104,-4.3066,-4.2604,-4.1788,-4.175,-4.1277,-4.0496,-4.0496,-4.0496,-4.0496,-4.0466,-4.0027,-3.9405,-3.9366,-3.8894,-3.8228,-3.8228,-3.8126,-3.7974,0.0,0.0,0.0,0.0,0.0,-2.5626,-2.5683,-2.5703,-2.5702,-2.5702,-2.57,-2.5813,-2.6124,-2.6129,-2.6196,-2.6439,-2.6417,-2.6613,-2.7091,-2.7378,-2.7778,-2.8338,-2.8643,-2.8371,-2.7505,-2.6909,-2.6183,-2.5346,-2.5346,-2.5346,-2.5337,-2.5337,-2.5337,-2.5337,-2.5379,-2.5876,-2.6695,-2.7123,-2.7575,-2.8045,-2.8108,-2.7937,0.0,0.0,0.0,0.0,0.0,0.0,0.0,0.0,0.0,0.0,0.0,0.0,0.0,0.0,0.0,0.0,0.0,0.0,0.0,0.0,0.0,0.0,0.0,0.0,0.0,0.0,0.0,0.0,0.0,0.0,0.0,0.0,0.0,0.0,0.0,0.0,0.0,-3.8334,-3.8911,0.0,-3.8084,-3.8969,-3.9611,-3.9607,-4.0939,-4.1881,-4.2186,-4.2478,-4.2777,-4.3085,-4.3605,-4.3874,-4.3874,-4.4432,-4.471,-4.471,-4.4143,-4.3701,-4.3374,-4.2297,-4.1643,-4.1316,-4.0746,-4.0496,-4.0496,-4.0496,-4.0354,-4.0102,-4.0102,-3.9636,-3.8942,-3.8942,-3.8569,-3.804,0.0,0.0,0.0,0.0,-2.5601,-2.5626,-2.5683,-2.5703,-2.5702,-2.5702,-2.5697,-2.5689,-2.5663,-2.5639,-2.5556,-2.5476,-2.5421,-2.5625,-2.6125,-2.6447,-2.6851,-2.7448,-2.7467,-2.7198,-2.6621,-2.6308,-2.5885,-2.5308,-2.5308,-2.5308,-2.5308,-2.5308,-2.5308,-2.5308,-2.5351,-2.5669,-2.6217,-2.6876,-2.7648,-2.8435,-2.8793,-2.8741,-2.8413,0.0,0.0,0.0,0.0,0.0,0.0,0.0,0.0,0.0,0.0,0.0,0.0,0.0,0.0,0.0,0.0,0.0,0.0,0.0,0.0,0.0,0.0,0.0,0.0,0.0,0.0,0.0,0.0,0.0,0.0,0.0,0.0,0.0,0.0,-3.8065,-3.8546,-3.8834,-3.9623,-3.9796,-3.8931,-4.0373,-4.1381,-4.1381,-4.2701,-4.3508,-4.3508,-4.3778,-4.3932,-4.3932,-4.4451,-4.4739,-4.4739,-4.5306,-4.5594,-4.5594,-4.5017,-4.4586,-4.4259,-4.3143,-4.2508,-4.222,-4.1623,-4.1035,-4.0516,-4.0823,-4.0612,-4.0131,-4.04,-4.0169,-3.9708,-3.9708,-3.9342,-3.8834,0.0,0.0,0.0,-2.5585,-2.5601,-2.5627,-2.5683,-2.5702,-2.57,-2.57,-2.5694,-2.5679,-2.5607,-2.56,-2.5542,-2.541,-2.541,-2.537,-2.5293,-2.6096,-2.6563,-2.6563,-2.6563,-2.6558,-2.6558,-2.5731,-2.5303,-2.5284,-2.5303,-2.5308,-2.5308,-2.5308,-2.5308,-2.5308,-2.5308,-2.5308,-2.5404,-2.7156,-2.8395,-2.9236,-3.0219,-3.0051,-2.9233,0.0,0.0,0.0,0.0,0.0,0.0,0.0,0.0,0.0,0.0,0.0,0.0,0.0,0.0,0.0,0.0,0.0,0.0,0.0,0.0,0.0,0.0,0.0,0.0,0.0,0.0,0.0,0.0,0.0,0.0,0.0,0.0,0.0,-3.674,-3.8238,-3.9015,-3.8219,-4.0296,-4.1489,-4.0669,-4.2124,-4.3143,-4.3143,-4.3874,-4.4335,-4.4335,-4.5152,-4.5594,-4.5594,-4.5594,-4.5594,-4.5594,-4.5594,-4.5594,-4.5594,-4.5594,-4.5171,-4.4335,-4.4316,-4.3874,-4.3124,-4.3085,-4.2085,-4.0573,-4.1412,-4.0796,-3.9381,-4.0189,-4.0496,-4.0496,-4.0496,-4.0496,-4.0496,0.0,0.0,-2.552,-2.5591,-2.5644,-2.5687,-2.5703,-2.5702,-2.57,-2.57,-2.5694,-2.5685,-2.5679,-2.5591,-2.5513,-2.5476,-2.539,-2.5317,-2.5308,-2.5519,-2.5654,-2.5654,-2.5654,-2.5599,-2.5505,-2.5364,-2.5253,-2.5154,-2.5253,-2.5308,-2.5308,-2.5308,-2.5308,-2.5308,-2.5308,-2.5308,-2.5404,-2.715,-2.8046,-2.8384,-2.9902,-3.0335,-3.007,0.0,0.0,0.0,0.0,0.0,0.0,0.0,0.0,0.0,0.0,0.0,0.0,0.0,0.0,0.0,0.0,0.0,0.0,0.0,0.0,0.0,0.0,0.0,0.0,0.0,0.0,0.0,0.0,0.0,0.0,0.0,-3.7043,-3.8071,-3.8272,-3.8873,-3.9662,-4.0642,-4.1365,-4.195,-4.2354,-4.3355,-4.397,-4.397,-4.4759,-4.5248,-4.5248,-4.5479,-4.5594,-4.5594,-4.5594,-4.5594,-4.5594,-4.5594,-4.5594,-4.5594,-4.5594,-4.5479,-4.5229,-4.4586,-4.4182,-4.3893,-4.2701,-4.1527,-4.0516,-4.0766,-4.0246,-3.9381,-4.0189,-4.0496,-4.0496,-4.0496,-4.0496,-4.0496,0.0,-2.5495,-2.5521,-2.5593,-2.5651,-2.5694,-2.5703,-2.5702,-2.57,-2.57,-2.5694,-2.5683,-2.5653,-2.5556,-2.5492,-2.5463,-2.5357,-2.5308,-2.5308,-2.5308,-2.5462,-2.5827,-2.55,-2.5238,-2.5096,-2.5238,-2.5238,-2.509,-2.5238,-2.5308,-2.5308,-2.5308,-2.5308,-2.5308,-2.5308,-2.5308,-2.5385,-2.6774,-2.7563,-2.8011,-2.9377,-3.0109,-3.0394,-3.0394,-3.0402,-3.0321,-2.9735,-2.9468,-2.9267,-2.8339,0.0,0.0,0.0,0.0,0.0,0.0,0.0,0.0,0.0,0.0,0.0,0.0,0.0,0.0,0.0,0.0,0.0,0.0,0.0,0.0,0.0,0.0,0.0,0.0,-3.7818,-3.8639,-3.909,-3.9766,-4.0575,-4.1526,-4.2343,-4.3047,-4.3547,-4.4355,-4.4836,-4.4836,-4.5306,-4.5594,-4.5594,-4.5594,-4.5594,-4.5594,-4.5594,-4.5594,-4.5594,-4.5594,-4.5594,-4.5594,-4.5594,-4.5594,-4.5575,-4.5075,-4.4836,-4.4759,-4.3431,-4.2162,-4.1046,-4.1046,-4.0354,-3.9381,0.0,0.0,0.0,0.0,-4.0496,-4.0496,0.0,-2.5502,-2.5529,-2.5593,-2.5654,-2.5696,-2.5703,-2.5702,-2.57,-2.57,-2.5694,-2.568,-2.5611,-2.5542,-2.548,-2.541,-2.5335,-2.5346,-2.5442,-2.5442,-2.5788,-2.6563,-2.5769,-2.5233,-2.5072,-2.5217,-2.5192,-2.5049,-2.5192,-2.5269,-2.5269,-2.5284,-2.5308,-2.5308,-2.5308,-2.5308,-2.5365,-2.6231,-2.7044,-2.7838,-2.8742,-2.9621,-3.0404,-3.0404,-3.0404,-3.0367,-3.0176,-3.0095,-2.9944,-2.9011,0.0,0.0,0.0,0.0,0.0,0.0,0.0,0.0,0.0,0.0,0.0,0.0,0.0,0.0,0.0,0.0,0.0,0.0,0.0,0.0,0.0,0.0,0.0,0.0,-3.8289,-3.867,-3.9483,-4.0726,-4.1532,-4.1513,-4.3138,-4.4282,-4.4387,-4.5135,-4.5594,-4.5594,-4.5594,-4.5594,-4.5594,-4.5594,0.0,0.0,0.0,-4.5594,-4.5594,-4.5594,-4.5594,-4.5594,-4.5594,-4.5594,-4.5594,-4.5594,-4.5556,-4.5421,-4.4528,-4.3201,-4.1662,-4.1662,-4.0777,-3.9515,-4.0227,-4.0496,-4.0496,-4.0496,-4.0439,-4.0362,0.0,-2.554,-2.5572,-2.56,-2.5668,-2.5703,-2.5703,-2.5702,-2.57,-2.57,-2.5694,-2.5705,-2.5681,-2.5563,-2.5498,-2.5483,-2.537,-2.5596,-2.6288,-2.6351,-2.6428,-2.6601,-2.5769,-2.5195,-2.4929,-2.508,-2.5031,-2.4779,-2.5031,-2.5143,-2.5143,-2.5248,-2.5308,-2.5308,-2.5308,-2.5308,-2.5365,-2.6231,-2.6697,-2.6986,-2.8492,-2.9621,-3.0404,-3.0404,-3.0404,-3.0367,-3.0176,-3.003,-2.988,-2.9536,-2.9391,-2.9326,-2.9063,-2.9055,0.0,0.0,0.0,0.0,0.0,0.0,0.0,0.0,0.0,0.0,0.0,0.0,0.0,0.0,0.0,0.0,0.0,0.0,0.0,-3.7906,-3.8513,-3.9239,-4.0109,-4.1184,-4.1949,-4.2105,-4.3209,-4.4239,-4.4957,-4.5361,-4.5594,-4.5594,-4.5594,-4.5594,-4.5594,-4.5594,-4.5594,-4.5594,-4.5594,-4.5594,-4.5594,-4.5594,-4.5594,-4.5594,-4.5594,0.0,-4.5594,-4.5594,-4.5229,-4.4509,-4.3682,-4.2354,-4.0746,-4.0746,-4.0554,-4.0285,-4.0439,-4.0496,-4.0496,-4.0496,-4.0092,-3.9534,-2.5507,-2.5522,-2.5554,-2.5598,-2.5661,-2.5701,-2.5703,-2.5702,-2.5699,-2.5698,-2.5692,-2.5707,-2.5707,-2.5607,-2.5534,-2.5504,-2.5788,-2.6327,-2.7198,-2.6832,-2.6794,-2.7236,-2.6,-2.5212,-2.4993,-2.5132,-2.5103,-2.4902,-2.5103,-2.5192,-2.5192,-2.5264,-2.5538,-2.5923,-2.55,-2.5538,-2.5981,-2.6428,-2.6851,-2.7351,-2.8607,-2.9621,-3.0404,-3.0404,-3.0343,-3.0235,-3.0052,-2.9891,-2.9725,-2.957,-2.9502,-2.9501,-2.9419,-2.945,-2.9501,0.0,0.0,0.0,0.0,0.0,0.0,0.0,0.0,0.0,0.0,0.0,0.0,0.0,0.0,-3.5266,-3.5931,0.0,-3.815,-3.8459,-3.9194,-3.99,-4.0341,-4.1549,-4.2486,-4.2725,-4.3687,-4.4565,-4.5133,-4.5322,-4.5467,-4.5586,-4.5594,-4.5594,-4.5594,-4.5594,-4.5594,-4.5594,-4.5594,-4.5594,-4.5594,-4.5594,-4.5594,-4.5594,-4.5594,-4.5594,-4.5594,-4.5152,-4.4701,-4.422,-4.2989,-4.197,-4.1123,-4.0689,-4.0496,-4.0496,-4.0496,-4.0496,-4.0458,-4.0054,-3.965,-3.9246,-2.5507,-2.5501,-2.5526,-2.5591,-2.5651,-2.5694,-2.5703,-2.5701,-2.5699,-2.5696,-2.5691,-2.5765,-2.5922,-2.5897,-2.5892,-2.5977,-2.6526,-2.7237,-2.8088,-2.7486,-2.7332,-2.7876,-2.639,-2.5416,-2.5115,-2.5217,-2.5206,-2.5055,-2.5206,-2.5355,-2.5508,-2.5548,-2.6019,-2.6813,-2.6115,-2.6192,-2.6851,-2.6851,-2.7255,-2.7972,-2.878,-2.9525,-3.0173,-3.0346,-3.0286,-3.0087,-2.9958,-2.9777,-2.958,-2.945,-2.9396,-2.9396,-2.9396,-2.9396,-2.9396,-2.9396,-2.9396,0.0,0.0,0.0,0.0,0.0,0.0,0.0,0.0,-3.302,-3.3707,-3.4513,-3.538,-3.6365,-3.7652,-3.8024,-3.8395,-3.9212,-3.9937,-4.0494,-4.081,-4.198,-4.294,-4.3311,-4.4215,-4.4872,-4.5096,-4.5222,-4.5381,-4.5577,-4.5594,-4.5594,-4.5594,-4.5594,-4.5594,-4.5594,-4.5594,-4.5594,-4.5594,-4.5594,-4.5594,-4.5594,-4.5594,-4.5594,-4.5575,-4.4701,-4.4201,-4.397,-4.2277,-4.1546,-4.1489,-4.0785,-4.0496,-4.0496,-4.0496,-4.04,-4.0189,-3.9534,-3.9092,-3.8681,0.0,-2.5496,-2.5511,-2.5587,-2.5651,-2.5694,-2.5703,-2.5702,-2.57,-2.57,-2.5694,-2.598,-2.6762,-2.6798,-2.7011,-2.766,-2.7789,-2.816,-2.892,-2.8876,-2.8549,-2.7934,-2.6967,-2.603,-2.5115,-2.5101,-2.5068,-2.4929,-2.5068,-2.5528,-2.6274,-2.64,-2.6928,-2.7761,-2.764,-2.7659,-2.7755,-2.7755,-2.7818,-2.7972,-2.878,-2.9165,-2.9338,-3.0115,-3.0286,-3.0087,-2.9958,-2.9777,-2.958,-2.945,-2.9396,-2.9396,-2.9396,-2.9396,-2.9396,-2.9396,-2.9396,-2.9564,-3.027,-3.105,-3.1682,-3.1775,-3.2351,-3.3262,0.0,-3.5157,-3.5454,-3.624,-3.7071,-3.7689,-3.7856,-3.8469,-3.925,-4.0104,-4.0341,-4.0903,-4.2333,-4.2686,-4.3073,-4.381,-4.4441,-4.48,-4.4837,-4.5282,-4.5568,-4.5594,-4.5594,-4.5594,-4.5594,-4.5594,-4.5594,-4.5594,-4.5594,-4.5594,-4.5594,-4.5594,-4.5594,-4.5594,-4.5594,-4.5594,-4.5575,-4.4701,-4.3912,-4.3143,-4.1401,-4.065,-4.065,-4.0535,-4.0496,-4.0496,-4.0496,-4.0054,-3.9419,-3.9342,-3.8315,-3.6981,0.0,-2.5507,-2.552,-2.5585,-2.5614,-2.5642,-2.5684,-2.5702,-2.5699,-2.5697,-2.5692,-2.6039,-2.6899,-2.7383,-2.7761,-2.8034,-2.8442,-2.8811,-2.9074,-2.9107,-2.8953,-2.8607,-2.7794,-2.7162,-2.6729,-2.6729,-2.6707,-2.6655,-2.6707,-2.6921,-2.7267,-2.733,-2.7794,-2.8588,-2.8107,-2.8165,-2.8607,-2.8607,-2.8607,-2.8723,-3.0063,-3.0314,-2.9948,-3.0827,-3.0662,-2.9969,-2.9926,-2.9726,0.0,-2.9409,-2.9396,-2.9396,-2.9396,-2.9396,-2.9396,-2.9396,-2.9731,-3.0381,-3.1645,-3.1905,-3.2017,-3.2953,-3.3838,-3.4637,-3.5343,-3.6216,-3.6983,-3.7318,-3.8042,-3.8599,-3.8599,-3.9287,-3.9974,-4.0341,-4.1181,-4.2017,-4.2705,-4.3206,-4.3615,-4.3968,-4.4332,-4.4624,-4.4776,-4.5007,-4.5253,-4.5577,-4.5594,-4.5594,-4.5594,-4.5594,-4.5594,-4.5594,-4.5594,-4.5594,-4.5594,-4.5594,-4.5594,-4.5594,-4.5594,-4.5594,-4.5556,-4.4201,-4.2854,-4.1554,-4.0823,-4.0496,-4.0496,-4.0496,-4.0496,-4.0458,-3.9977,-3.9284,-3.8546,-3.8546,-3.7757,-3.6635,0.0,-2.5507,-2.552,-2.5585,-2.5601,-2.5627,-2.5683,-2.5702,-2.5699,-2.5696,-2.5906,-2.6489,-2.7601,-2.8249,-2.8645,-2.8801,-2.9096,-2.9347,-2.947,-2.9484,-2.9371,-2.9107,-2.8549,-2.8126,-2.7895,-2.7895,-2.7895,-2.7895,-2.7895,-2.8027,-2.827,-2.8506,-2.9066,-2.9863,-2.9501,-2.9699,-3.0235,-3.0235,-3.0215,-3.0318,-3.1584,-3.169,-3.1135,-3.1545,-3.1115,-3.0288,-2.9994,-2.9681,-2.9396,-2.9396,-2.9396,-2.9396,-2.9396,-2.9396,-2.9434,-2.9657,-3.0288,-3.1143,-3.2072,-3.2072,-3.2128,-3.3522,-3.4506,-3.5268,-3.5733,-3.6891,-3.7949,-3.8191,-3.8692,-3.9101,-3.9101,-3.9807,-4.0471,-4.068,-4.1887,-4.2872,-4.3095,-4.3633,-4.4005,-4.4005,-4.4162,-4.4402,-4.4663,-4.4812,-4.5074,-4.5448,-4.5559,-4.5594,-4.5594,-4.5594,-4.5594,-4.5594,-4.5594,-4.5594,-4.5594,-4.5594,-4.5594,-4.5594,-4.5594,-4.5479,-4.519,-4.3508,-4.1912,-4.0496,-4.0496,-4.0496,-4.0496,-4.0496,-4.0362,-4.0112,-3.9534,-3.8623,-3.7642,-3.7642,-3.7103,-3.6288,0.0,0.0,-2.552,-2.5585,-2.5601,-2.5626,-2.5683,-2.5702,-2.57,-2.57,-2.6436,-2.7601,-2.9339,-2.9534,-2.9833,-3.0555,-2.9922,-2.9774,-3.0409,-3.0458,-3.0047,-2.9132,-2.9088,-2.8703,-2.7915,-2.7895,-2.7895,-2.7895,-2.7895,-2.8332,-2.9181,-3.0031,-3.0912,-3.1856,-3.266,-3.3052,-3.3071,-3.3071,-3.304,-3.2982,-3.3035,-3.2965,-3.2737,-3.1987,-3.1558,-3.1221,-3.0242,-2.9681,-2.9396,-2.9396,-2.9396,-2.9396,-2.9396,-2.9396,-2.9545,-3.0326,-3.1125,-3.1608,-3.0864,-3.1218,-3.1998,-3.2834,-3.3652,-3.4661,-3.6278,-3.7299,-3.8116,-3.8897,-3.9082,-3.9101,-3.9101,-3.9807,-4.0661,-4.1441,-4.2259,-4.3076,-4.3856,-4.3986,-4.4005,-4.4005,-4.402,-4.4121,-4.4388,-4.4884,-4.5201,-4.5211,-4.5448,-4.5594,-4.5594,-4.5594,-4.5594,-4.5594,-4.5594,-4.5594,-4.5594,-4.5594,-4.5594,-4.5594,-4.5594,-4.5171,-4.4278,-4.2604,-4.1354,-4.0496,-4.0496,-4.0496,-4.0496,-4.0496,-4.0035,-3.9342,-3.9304,-3.8257,-3.6731,-3.6731,-3.6231,-3.5538,0.0,0.0,0.0,-2.5585,-2.5601,-2.5626,-2.5683,-2.5703,-2.5916,-2.648,-2.7822,0.0,0.0,0.0,0.0,0.0,-3.0455,-3.0364,-3.0541,-3.0518,-3.0379,-3.0105,-3.0042,-3.0163,-3.0491,-3.0524,-3.0819,-3.1351,-3.1389,-3.1576,-3.1853,-3.2148,-3.245,-3.2783,-3.3078,-3.3195,-3.3195,-3.3195,-3.353,-3.4018,-3.3926,-3.3875,-3.3785,-3.3474,-3.2544,-3.1343,0.0,-3.0195,-2.9522,-2.9429,-2.9396,-2.9396,-2.9396,-2.9396,-2.9564,-3.0363,-3.079,-3.118,-3.1979,-3.2388,-3.2797,-3.3603,-3.442,-3.5361,-3.6458,-3.7318,-3.8135,-3.8934,-3.9101,-3.9101,-3.9101,-3.9807,-4.0661,-4.146,-4.2277,-4.3076,-4.3893,-4.4005,-4.4005,-4.4005,-4.4005,-4.4051,-4.4121,-4.4452,-4.4825,-4.5161,-4.5273,-4.541,-4.5586,-4.5594,-4.5594,-4.5594,-4.5594,-4.5594,-4.5594,-4.5594,-4.5594,-4.5594,-4.5017,-4.3989,-4.2624,-4.2058,-4.1316,-4.0496,-4.0496,-4.0496,-4.0496,-4.0496,-4.0035,-3.9246,-3.8661,-3.7738,-3.6635,-3.6096,-3.5731,-3.55,0.0,0.0,0.0,0.0,0.0,0.0,0.0,0.0,0.0,0.0,0.0,0.0,0.0,0.0,0.0,0.0,0.0,-3.0713,-3.0639,-3.0609,-3.0571,-3.0593,-3.0564,-3.0802,-3.1364,-3.1402,-3.1833,-3.2671,-3.2714,-3.2914,-3.3232,-3.3544,-3.3712,-3.3752,-3.4063,-3.42,-3.42,-3.42,-3.4516,-3.4977,-3.4563,-3.4366,-3.4225,-3.3597,-3.2577,0.0,-3.0937,-3.0327,-2.9741,-2.9491,-2.9396,-2.9396,-2.9396,-2.9787,-3.0307,-3.053,-3.1013,-3.1682,-3.2723,-3.2797,-3.2834,-3.3918,-3.4606,-3.5343,-3.6458,-3.7318,-3.8042,-3.8562,-3.8674,-3.8674,-3.8674,-3.9361,-4.029,-4.1423,-4.2277,-4.3076,-4.3893,-4.4005,-4.4005,-4.4005,-4.4005,-4.4005,-4.4005,-4.4166,-4.4425,-4.4884,-4.5096,-4.5282,-4.5438,-4.5559,-4.5594,-4.5594,-4.5594,-4.5594,-4.5594,-4.5594,-4.5441,-4.5133,-4.4278,-4.3143,-4.1788,-4.1489,-4.1027,-4.0496,-4.0496,-4.0496,-4.0477,-4.0189,-3.9592,-3.8738,-3.7873,-3.7026,-3.6212,-3.5692,-3.55,-3.55,0.0,0.0,0.0,0.0,0.0,0.0,0.0,0.0,0.0,0.0,0.0,0.0,0.0,0.0,0.0,0.0,0.0,0.0,-3.0715,-3.0691,-3.0667,-3.061,-3.0603,-3.0639,-3.0678,-3.0681,-3.1093,-3.1964,-3.1987,-3.2454,-3.3388,-3.4167,-3.4599,-3.4744,-3.5563,-3.5934,-3.5934,-3.5934,-3.5916,-3.5816,-3.4892,-3.4462,-3.4186,-3.2551,-3.1899,-3.168,-3.0623,-3.0204,-3.0101,-2.9626,-2.9481,-2.9508,-2.9508,-3.0567,-3.1645,-3.0846,-3.1719,-3.2946,-3.2946,-3.2407,-3.224,-3.3807,-3.4197,-3.4624,-3.6272,-3.7225,-3.7782,-3.7819,-3.7856,-3.7894,-3.7894,-3.8562,-3.9658,-4.133,-4.224,-4.302,-4.3875,-4.4005,-4.4005,-4.4005,-4.4005,-4.4005,-4.4005,-4.4005,-4.4124,-4.436,-4.4861,-4.518,-4.5201,-4.5438,-4.5586,-4.5594,-4.5594,-4.5594,-4.5594,-4.5556,-4.5094,-4.422,-4.3412,-4.2577,-4.1684,-4.0873,-4.0489,-4.0454,-4.0481,-4.0462,-4.0338,-3.9588,-3.8735,-3.7812,-3.6978,-3.6171,-3.5479,-3.5479,-3.5479,-3.5486,0.0,0.0,0.0,0.0,0.0,0.0,0.0,0.0,0.0,0.0,0.0,0.0,0.0,0.0,0.0,0.0,0.0,0.0,-3.0771,-3.0728,-3.072,-3.0757,-3.0709,-3.0978,-3.1632,-3.1696,-3.2127,-3.2942,-3.2985,-3.3475,-3.4324,-3.3913,-3.4054,-3.4705,-3.494,-3.5037,-3.5037,-3.5037,-3.5402,-3.5841,-3.4265,-3.4315,-3.5227,-3.4095,-3.363,-3.3436,-3.241,-3.1625,-3.1001,-3.0584,-3.0769,-3.1199,-3.1199,-3.1478,-3.1645,-3.0846,-3.1329,-3.2109,-3.2109,-3.2388,-3.2946,-3.3956,-3.4197,-3.4476,-3.5566,-3.5956,-3.629,-3.6885,-3.7466,-3.7894,-3.7894,-3.8562,-3.9658,-4.133,-4.1757,-4.2389,-4.3801,-4.4005,-4.4005,-4.4005,-4.4005,-4.4005,-4.4005,-4.4005,-4.4036,-4.4109,-4.4397,-4.4788,-4.518,-4.5253,-4.5381,-4.5586,-4.5594,-4.5594,-4.5594,-4.496,-4.422,-4.3393,-4.2547,-4.1596,-4.0603,-4.0537,-4.0311,-3.9984,-4.0195,-3.9823,-3.9061,-3.8871,-3.7918,-3.6557,-3.6348,-3.5768,-3.5054,-3.5054,-3.5141,-3.525,0.0,0.0,0.0,0.0,0.0,0.0,0.0,0.0,0.0,0.0,0.0,0.0,0.0,0.0,0.0,0.0,0.0,0.0,0.0,-3.0767,-3.0765,-3.08,-3.0767,-3.0968,-3.1451,-3.1885,-3.2316,-3.2762,-3.3193,-3.365,-3.412,-3.363,-3.365,-3.4139,-3.4139,-3.4139,-3.4139,-3.4139,-3.4411,0.0,0.0,-3.3863,-3.46,-3.402,-3.3784,-3.3639,-3.3005,-3.2659,-3.2447,-3.2127,-3.194,-3.1794,-3.1794,-3.2035,-3.224,-3.1794,-3.1979,-3.2407,-3.276,-3.2915,-3.3187,-3.3993,-3.3918,-3.3993,-3.5231,-3.5213,-3.5175,-3.6012,-3.6798,-3.7355,-3.7355,-3.8024,-3.9231,-4.1256,-4.159,-4.2166,-4.3763,-4.4005,-4.4005,-4.4005,-4.4005,-4.4005,-4.4005,-4.4005,-4.4005,-4.4005,-4.425,-4.4533,-4.4837,-4.5074,-4.5263,-4.5419,-4.555,-4.5531,-4.5429,-4.4585,-4.376,-4.2917,-4.1953,-4.1092,-4.033,-4.0356,-4.0232,-3.9954,-3.9767,-3.9271,-3.854,-3.7819,-3.6947,-3.6064,-3.5704,-3.5296,-3.4908,-3.4908,-3.4982,-3.5054,0.0,0.0,0.0,0.0,0.0,0.0,0.0,0.0,0.0,0.0,0.0,0.0,0.0,0.0,0.0,0.0,0.0,0.0,0.0,0.0,-3.08,-3.08,-3.08,-3.08,-3.08,-3.1543,-3.1934,-3.1934,-3.2675,-3.3103,-3.3221,-3.3103,-3.3123,-3.3221,-3.3221,-3.3221,-3.3221,-3.3221,-3.3221,-3.3221,-3.3221,-3.3262,-3.3298,0.0,-3.3395,-3.3392,-3.3152,-3.3432,-3.3867,-3.3691,-3.2983,-3.2173,-3.2139,-3.2611,-3.3138,-3.3039,-3.2927,-3.3008,-3.3807,-3.3436,-3.3057,-3.3956,-3.3677,-3.354,-3.5008,-3.4736,-3.4401,-3.5175,-3.6067,-3.6699,-3.6699,-3.7429,-3.8841,-4.12,-4.159,-4.2166,-4.3763,-4.4005,-4.4005,-4.4005,-4.4005,-4.4005,-4.4005,-4.4005,-4.4005,-4.4005,-4.4221,-4.4374,-4.4402,-4.4849,-4.5061,-4.5029,-4.516,-4.5121,-4.4917,-4.4085,-4.3281,-4.2507,-4.1474,-4.0757,-4.0372,-4.0213,-4.012,-4.0004,-3.9233,-3.8699,-3.8237,-3.6666,-3.5947,-3.5777,-3.5076,-3.4812,-3.4812,-3.4812,-3.4821,-3.4841,0.0,0.0,0.0,0.0,0.0,0.0,0.0,0.0,0.0,0.0,-2.9631,-3.006,0.0,0.0,0.0,0.0,0.0,0.0,0.0,0.0,0.0,-3.08,-3.08,-3.08,-3.08,-3.0956,-3.1036,-3.1036,-3.1171,-3.1621,-3.2304,-3.1582,-3.1641,-3.2324,-3.2324,-3.2324,-3.2324,-3.2324,-3.2324,-3.2324,-3.2324,-3.2714,-3.3368,-3.3957,0.0,0.0,-3.425,-3.3937,-3.3883,-3.3851,-3.398,-3.4083,-3.3841,-3.3881,-3.3863,-3.3194,-3.2537,-3.2184,-3.299,-3.263,-3.237,-3.3826,-3.4104,-3.4067,-3.4364,-3.4309,-3.4234,-3.4383,-3.5627,-3.6699,-3.6699,-3.7894,-3.9491,-4.1293,-4.159,-4.2166,-4.3763,-4.4005,-4.4005,-4.4005,-4.4005,-4.4005,-4.4005,-4.4005,-4.4005,-4.4005,-4.4033,-4.4166,-4.4402,-4.4493,-4.4398,-4.413,-4.3522,-4.3283,-4.3457,-4.2383,-4.1781,-4.1628,-4.0759,-4.0124,-3.9679,-3.9816,-3.9671,-3.9268,-3.8679,-3.7899,-3.6951,-3.6,-3.5179,-3.4526,-3.4377,-3.4309,-3.4309,-3.4309,-3.4465,-3.4615,0.0,0.0,0.0,0.0,0.0,0.0,0.0,-2.7444,-2.8459,-2.8869,-2.9689,-3.0372,-3.0761,-3.08,-3.08,0.0,0.0,0.0,0.0,0.0,0.0,0.0,-3.08,-3.08,-3.08,-3.1231,-3.125,-3.08,0.0,-3.1465,-3.1407,-3.0995,-3.1016,-3.1426,-3.1426,-3.1426,-3.1426,-3.1426,-3.1426,-3.1504,-3.2402,-3.3017,-3.3483,0.0,0.0,0.0,-3.5059,-3.4805,-3.4714,-3.4611,-3.4729,-3.4851,-3.4509,-3.4305,-3.4123,-3.3733,-3.3045,-3.2611,-3.3398,-3.3039,-3.2704,-3.39,-3.3881,-3.3677,-3.4104,-3.3881,-3.3677,-3.4104,-3.5535,-3.6699,-3.6699,-3.8024,-3.951,-4.0773,-4.0992,-4.1534,-4.315,-4.3373,-4.3522,-4.3949,-4.4005,-4.4005,-4.4005,-4.4005,-4.4005,-4.4005,-4.4005,-4.3877,-4.3579,-4.3301,-4.3146,-4.3123,-4.2754,-4.2544,-4.2533,-4.157,-4.1067,-4.1026,-4.0079,-3.9644,-3.9648,-3.9656,-3.93,-3.8633,-3.7926,-3.7037,-3.6012,-3.5175,-3.4569,-3.4197,-3.4161,-3.4148,-3.4148,-3.4111,-3.4173,-3.4257,0.0,0.0,0.0,0.0,0.0,0.0,0.0,-2.7425,-2.844,-2.8791,-2.998,-3.08,-3.08,-3.08,-3.08,0.0,0.0,0.0,0.0,0.0,0.0,0.0,0.0,-3.08,-3.08,0.0,0.0,-3.1075,-3.1582,0.0,0.0,0.0,0.0,0.0,-3.08,-3.08,-3.08,-3.08,-3.0917,0.0,0.0,-3.3513,-3.3841,0.0,0.0,0.0,0.0,-3.55,-3.5479,-3.5324,-3.5234,-3.5141,-3.484,-3.452,-3.4269,-3.4221,-3.3621,-3.3187,-3.3974,-3.3615,-3.315,-3.377,-3.3603,-3.338,-3.3844,-3.3584,-3.3436,-3.4067,-3.5398,-3.6513,-3.6681,-3.7856,-3.9175,-4.0215,-4.0416,-4.0958,-4.2575,-4.2797,-4.3095,-4.3893,-4.4005,-4.4005,-4.4005,-4.4005,-4.4005,-4.4005,-4.367,-4.328,-4.2816,-4.2094,-4.1826,-4.2032,-4.1874,-4.1709,-4.1531,-4.086,-4.0503,-4.0428,-3.9584,-3.9338,-3.9641,-3.9477,-3.8977,-3.8165,-3.7302,-3.6378,-3.5436,-3.455,-3.4185,-3.4173,-3.4124,-3.4086,-3.4074,-3.4023,-3.3998,-3.3998,0.0,0.0,0.0,0.0,0.0,0.0,0.0,-2.8205,-2.885,-3.0371,-3.0703,-3.08,-3.08,-3.08,-3.08,0.0,0.0,0.0,0.0,0.0,0.0,0.0,0.0,0.0,0.0,0.0,0.0,-3.1973,-3.127,0.0,0.0,0.0,0.0,0.0,0.0,-3.08,-3.08,-3.08,0.0,0.0,0.0,0.0,0.0,0.0,0.0,0.0,0.0,-3.55,-3.55,-3.5486,-3.5346,-3.5182,-3.5168,-3.487,-3.4517,-3.4269,-3.3621,-3.3187,-3.3974,-3.3615,-3.3008,-3.3094,-3.3603,-3.3918,-3.325,-3.3621,-3.4104,-3.4179,-3.4952,-3.5826,-3.6569,-3.7411,-3.8525,-4.0141,-4.0416,-4.0958,-4.2575,-4.2797,-4.3095,-4.3893,-4.4005,-4.4005,-4.4005,-4.4005,-4.4005,-4.4005,-4.2649,-4.211,-4.276,-4.1538,-4.0829,-4.0854,-4.0152,-3.9835,-3.9992,-3.9748,-3.9627,-3.9614,-3.9496,-3.9363,-3.9165,-3.9156,-3.8696,-3.7878,-3.7091,-3.626,-3.5436,-3.455,-3.4161,-3.4111,-3.4099,-3.4061,-3.4011,-3.3998,-3.3998,-3.3985,0.0,0.0,0.0,0.0,0.0,0.0,-2.8186,-2.8752,-2.9318,-2.9982,-3.0509,-3.08,-3.08,-3.08,-3.08,-3.08,0.0,0.0,0.0,0.0,0.0,0.0,0.0,0.0,0.0,0.0,-3.1758,-3.2091,-3.2285,0.0,0.0,0.0,0.0,0.0,0.0,-3.08,-3.08,-3.08,0.0,0.0,0.0,0.0,0.0,0.0,0.0,0.0,0.0,0.0,-3.55,-3.55,-3.5439,-3.5258,-3.463,-3.467,-3.4889,-3.4542,-3.4093,-3.3788,-3.4104,-3.3956,-3.3844,-3.4376,-3.4358,-3.4253,-3.4469,-3.4358,-3.4197,-3.4197,-3.4897,-3.5751,-3.6551,-3.7355,-3.8284,-3.9435,-3.9621,-4.0011,-4.1181,-4.1349,-4.1832,-4.3113,-4.328,-4.3466,-4.3949,-4.4005,-4.3801,-4.3318,-4.224,-4.1534,-4.1349,-4.0328,-3.9744,-3.9744,-3.9426,-3.9292,-3.9389,-3.9292,-3.9259,-3.9259,-3.9259,-3.9192,-3.9082,-3.8599,-3.7931,-3.7145,-3.6328,-3.551,-3.4692,-3.4327,-3.4185,-3.4161,-3.4074,-3.4023,-3.3985,-3.3908,-3.3868,-3.3868,0.0,0.0,0.0,0.0,0.0,-2.8381,-2.8654,-2.9202,-2.969,-2.9924,-3.045,-3.08,-3.08,-3.1036,-3.1172,-3.1172,-3.0956,0.0,0.0,0.0,0.0,0.0,0.0,0.0,0.0,0.0,-3.2617,-3.2871,-3.3222,-3.3533,0.0,0.0,-3.248,-3.2441,0.0,0.0,0.0,0.0,0.0,0.0,0.0,0.0,0.0,0.0,0.0,0.0,0.0,0.0,0.0,0.0,0.0,-3.5332,-3.4304,-3.437,-3.4734,-3.4333,-3.4256,-3.4293,-3.4221,-3.4197,-3.429,-3.4674,-3.4488,-3.429,-3.4674,-3.4457,-3.4197,-3.4197,-3.4897,-3.5677,-3.6253,-3.7188,-3.8079,-3.8655,-3.8934,-3.9398,-4.0285,-4.0416,-4.0903,-4.2277,-4.2445,-4.276,-4.3578,-4.3856,-4.3578,-4.2519,-4.1924,-4.1126,-4.0067,-3.9435,-3.9101,-3.9101,-3.9101,-3.9101,-3.9101,-3.9101,-3.9101,-3.9101,-3.9101,-3.9101,-3.9064,-3.8265,-3.7448,-3.6649,-3.5838,-3.4983,-3.4197,-3.4161,-3.4136,-3.4136,-3.4023,-3.3959,-3.3934,-3.3829,-3.3807,-3.3807,0.0,0.0,0.0,0.0,0.0,0.0,-2.9456,-2.9592,-2.9885,-3.0683,-3.0781,-3.08,-3.08,-3.1563,-3.2091,-3.2091,-3.1309,0.0,0.0,0.0,0.0,0.0,0.0,0.0,0.0,0.0,-3.3807,-3.4666,-3.3826,-3.3846,-3.4666,-3.3787,-3.3396,-3.3357,0.0,0.0,0.0,0.0,0.0,0.0,0.0,0.0,0.0,0.0,0.0,0.0,0.0,0.0,0.0,0.0,0.0,0.0,0.0,-3.4064,-3.3838,-3.3427,-3.3923,-3.4528,-3.4269,-3.4197,-3.4011,-3.3224,-3.3621,-3.3993,-3.3224,-3.3621,-3.4197,-3.4197,-3.4897,-3.551,-3.551,-3.6829,-3.7894,-3.7912,-3.8581,-3.9398,-4.0285,-4.0416,-4.0698,-4.1516,-4.1609,-4.1924,-4.2723,-4.3522,-4.3336,-4.172,-4.159,-4.0866,-3.9194,-3.9101,-3.9101,-3.9101,-3.9101,-3.9101,-3.9101,-3.9101,-3.9101,-3.9101,-3.9101,-3.9101,-3.9064,-3.8265,-3.7448,-3.6649,-3.5768,-3.4946,-3.4185,-3.4061,-3.3998,-3.3998,-3.3921,-3.3855,-3.3788,-3.3807,-3.3807,-3.3807,0.0,0.0,0.0,0.0,0.0,0.0,0.0,-3.0411,-3.0509,-3.0761,-3.08,-3.08,-3.08,-3.1582,-3.2091,-3.2091,-3.2383,0.0,0.0,0.0,0.0,0.0,0.0,0.0,0.0,0.0,-3.4413,-3.4705,-3.5016,-3.5329,-3.5563,-3.4705,-3.4295,-3.4256,-3.3378,-3.2988,0.0,0.0,0.0,0.0,0.0,0.0,0.0,0.0,0.0,0.0,0.0,0.0,0.0,0.0,0.0,0.0,0.0,0.0,0.0,-3.3957,-3.3705,-3.3775,-3.4108,-3.4197,-3.4271,-3.4618,-3.4451,-3.429,-3.4637,-3.4439,-3.4364,-3.4971,-3.5306,-3.5844,-3.6941,-3.7559,-3.8079,-3.8618,-3.8934,-3.9194,-3.9472,-4.0011,-4.0698,-4.1497,-4.2575,-4.3336,-4.3596,-4.3856,-4.3336,-4.172,-4.159,-4.0866,-3.9194,-3.9101,-3.9101,-3.9101,-3.9101,-3.9101,-3.9101,-3.9101,-3.9101,-3.9082,-3.8544,-3.8284,-3.8228,-3.6885,-3.6123,-3.5844,-3.4915,-3.4371,-3.4124,-3.4036,-3.3998,-3.3998,-3.3921,-3.3881,-3.3855,-3.382,-3.3807,-3.3807,0.0,0.0,0.0,0.0,0.0,0.0,0.0,-3.08,-3.08,-3.08,-3.08,-3.08,-3.08,-3.1875,-3.2597,-3.2597,-3.3689,0.0,0.0,0.0,0.0,0.0,0.0,0.0,-3.3066,-3.4471,-3.5193,-3.5193,-3.5738,-3.5992,-3.5992,-3.5446,-3.5193,-3.5154,-3.4276,-3.3886,0.0,0.0,0.0,0.0,0.0,0.0,0.0,0.0,0.0,0.0,0.0,0.0,0.0,0.0,0.0,0.0,0.0,0.0,0.0,0.0,-3.3673,-3.3554,-3.4173,-3.4281,-3.4327,-3.4866,-3.4599,-3.4327,-3.4897,-3.4587,-3.4346,-3.4897,-3.551,-3.6179,-3.6872,-3.7745,-3.8414,-3.8618,-3.8897,-3.9101,-3.9101,-3.9844,-4.0698,-4.1497,-4.2742,-4.3429,-4.3113,-4.3373,-4.2872,-4.1256,-4.1144,-4.055,-3.9175,-3.9101,-3.9101,-3.9101,-3.9101,-3.9101,-3.9101,-3.8804,-3.8655,-3.8637,-3.7819,-3.7448,-3.7392,-3.6105,-3.5497,-3.5416,-3.4469,-3.4061,0.0,-3.3959,-3.3934,-3.3959,-3.3881,-3.3855,-3.3873,-3.382,-3.3807,-3.3807,0.0,0.0,0.0,0.0,0.0,0.0,0.0,-3.08,-3.08,-3.08,-3.08,-3.08,-3.08,-3.2362,-3.3396,-3.3396,0.0,0.0,0.0,0.0,0.0,0.0,0.0,0.0,-3.4683,-3.554,-3.5988,-3.5985,-3.5985,-3.5985,-3.5985,-3.5985,-3.5986,-3.597,-3.5152,-3.4782,0.0,0.0,0.0,0.0,0.0,0.0,0.0,0.0,0.0,0.0,0.0,0.0,0.0,0.0,0.0,0.0,0.0,0.0,0.0,0.0,0.0,0.0,0.0,-3.4427,-3.4197,-3.4197,-3.4197,-3.4197,-3.4197,-3.4197,0.0,-3.4271,-3.5529,-3.642,-3.5789,-3.7503,-3.8785,-3.8098,-3.8599,-3.9101,-3.9101,-3.9844,-4.0717,-4.1571,-4.2296,-4.2407,-4.1664,-4.2277,-4.2073,-4.0527,-4.0416,-4.0011,-3.9138,-3.9101,-3.9101,-3.9101,-3.9101,-3.9064,-3.9027,-3.8265,-3.7875,-3.7801,-3.6983,-3.6612,-3.6562,-3.5757,-3.5367,-3.5247,-3.4375,-3.3998,-3.3985,-3.3842,-3.3847,-3.3881,-3.3815,-3.3807,-3.3807,-3.3807,-3.3807,-3.3807,0.0,0.0,0.0,0.0,0.0,0.0,0.0,0.0,0.0,0.0,-3.08,-3.08,-3.08,-3.2362,-3.3396,0.0,0.0,0.0,0.0,0.0,0.0,0.0,0.0,0.0,-3.4618,-3.5478,-3.5867,-3.5774,-3.5774,-3.5774,-3.5774,-3.5774,-3.5824,-3.5907,-3.5714,-3.5654,0.0,0.0,0.0,0.0,0.0,0.0,0.0,0.0,0.0,0.0,-3.4796,-3.4274,0.0,0.0,0.0,0.0,0.0,0.0,0.0,0.0,-3.486,-3.4624,-3.4793,0.0,-3.4197,-3.4197,-3.4197,-3.4197,0.0,-3.4197,-3.4383,-3.5064,-3.551,-3.6105,-3.7132,-3.7801,-3.8321,-3.8748,-3.8971,-3.9101,-3.9101,-3.9844,-4.0921,-4.2352,-4.2129,-4.1813,-4.1609,-4.1757,-4.146,-4.0471,-4.0416,-4.0011,-3.9138,-3.9101,-3.9101,-3.9101,-3.9101,-3.8804,-3.8191,-3.7986,-3.7583,-3.6899,-3.6083,-3.5686,-3.5597,-3.4733,-3.4332,-3.4301,-3.4039,-3.3921,-3.3908,-3.3829,-3.382,-3.3815,-3.382,-3.3807,-3.3807,-3.3807,-3.3807,-3.3807,0.0,0.0,0.0,0.0,0.0,0.0,0.0,0.0,0.0,0.0,0.0,0.0,0.0,0.0,0.0,0.0,0.0,0.0,0.0,0.0,0.0,0.0,0.0,-3.4866,-3.5185,-3.5655,-3.5837,-3.5698,-3.5698,-3.5698,-3.5698,-3.5698,-3.5741,-3.5804,-3.5878,-3.5938,0.0,0.0,0.0,0.0,0.0,0.0,0.0,0.0,0.0,0.0,-3.4936,-3.4171,0.0,-3.3377,-3.3545,-3.366,0.0,0.0,0.0,0.0,-3.5273,-3.5019,-3.4936,-3.4857,-3.4804,-3.4804,-3.4804,-3.4804,-3.4804,-3.4494,-3.4327,-3.481,-3.5231,-3.5882,-3.7113,-3.7652,-3.8154,-3.8971,-3.9101,-3.9231,-3.964,-4.0085,-4.0861,-4.2092,-4.1869,-4.1441,-4.1089,-4.1051,-4.0698,-3.9863,-3.9788,-3.9435,-3.8581,-3.8544,-3.8377,-3.8005,-3.7959,-3.7941,-3.7894,-3.7495,-3.6875,-3.6038,-3.5166,-3.4752,-3.4694,-3.422,-3.3985,-3.3947,-3.3908,-3.3881,-3.3842,-3.3802,-3.3807,-3.3807,-3.3807,-3.3807,-3.3807,-3.3807,-3.3807,-3.3807,0.0,0.0,0.0,0.0,0.0,0.0,0.0,0.0,0.0,0.0,0.0,0.0,0.0,0.0,0.0,0.0,0.0,0.0,0.0,0.0,0.0,0.0,-3.5287,-3.5188,-3.5858,-3.5866,-3.5783,-3.5674,-3.5674,-3.5674,-3.5674,-3.5674,-3.5663,-3.5681,-3.5837,-3.5934,0.0,0.0,0.0,0.0,0.0,0.0,0.0,0.0,0.0,0.0,0.0,0.0,0.0,-3.373,-3.3603,-3.3237,-3.3975,0.0,0.0,0.0,0.0,0.0,-3.4955,-3.5184,-3.5473,-3.5343,-3.5398,-3.5473,-3.5343,-3.4729,-3.4197,-3.4197,-3.4804,-3.5547,-3.6383,-3.7169,-3.7968,-3.8785,-3.9027,-3.9398,-4.0285,-4.0304,-4.0494,-4.1311,-4.1293,-4.094,-4.0285,-4.0197,-3.9914,-3.9157,-3.9101,-3.8804,-3.8116,-3.7968,-3.7564,-3.6877,-3.6695,-3.6885,-3.7495,-3.6774,-3.5993,-3.5147,-3.4362,-3.3985,-3.3972,-3.3972,-3.3934,-3.3881,-3.3881,-3.3842,-3.3807,-3.3807,-3.3807,-3.3807,-3.3807,-3.3807,-3.3807,-3.3807,-3.3807,-3.3807,0.0,0.0,0.0,0.0,0.0,0.0,0.0,0.0,0.0,0.0,0.0,0.0,0.0,0.0,0.0,0.0,0.0,0.0,0.0,0.0,0.0,-3.6031,-3.5825,-3.5719,-3.5737,-3.5684,-3.5602,-3.5528,-3.5528,-3.5528,-3.5528,-3.5528,-3.5571,-3.5625,-3.5813,-3.5914,-3.5924,0.0,0.0,0.0,-3.5992,0.0,0.0,0.0,0.0,0.0,0.0,0.0,0.0,-3.2873,-3.3506,-3.4013,-3.4167,0.0,0.0,0.0,0.0,0.0,-3.4917,-3.5184,-3.5324,-3.4569,-3.4952,-3.5306,-3.4581,-3.429,-3.4197,-3.4197,-3.4309,-3.4674,-3.5529,-3.6346,-3.7151,-3.7949,-3.8655,-3.9398,-4.0285,-3.9751,-3.9621,-4.0476,-3.9918,-3.9435,-3.9305,-3.9305,-3.9231,-3.9101,-3.9101,-3.9045,-3.8915,-3.821,-3.7757,-3.7627,-3.6911,-3.6255,-3.5695,-3.5571,-3.5051,-3.4136,-3.3976,-3.3881,-3.3815,-3.3815,-3.3834,-3.382,-3.382,-3.382,-3.3807,-3.3807,-3.3807,-3.3807,-3.3807,-3.3807,-3.3807,-3.3807,-3.3807,-3.3807,0.0,0.0,0.0,0.0,0.0,0.0,0.0,0.0,0.0,0.0,0.0,0.0,0.0,0.0,0.0,0.0,0.0,0.0,0.0,0.0,-3.7614,-3.6735,-3.6574,-3.625,-3.5717,-3.5626,-3.5564,-3.55,-3.55,-3.55,-3.55,-3.55,-3.5541,-3.5593,-3.5693,-3.5802,-3.5892,-3.5934,-3.6249,0.0,0.0,0.0,0.0,0.0,0.0,0.0,0.0,0.0,0.0,0.0,-3.2872,-3.2852,-3.2852,0.0,0.0,0.0,0.0,0.0,-3.4831,-3.5346,-3.5552,-3.4474,-3.486,-3.5398,-3.499,-3.4544,-3.4197,-3.4197,-3.4197,-3.4457,-3.5343,-3.616,-3.6946,-3.7764,-3.7838,-3.8079,-3.8915,-3.8692,-3.8748,-3.9602,-3.9342,-3.9101,-3.9101,-3.9101,-3.8915,-3.8469,-3.8451,-3.8061,-3.7188,-3.6745,-3.6298,-3.5834,-3.5341,-3.4919,-3.4537,-3.451,-3.4281,-3.3895,-3.3855,-3.3815,-3.3807,-3.3807,-3.3807,-3.3807,-3.3807,-3.3807,-3.3807,-3.3807,-3.3807,-3.3807,-3.3807,-3.3807,-3.3807,-3.3807,-3.3807,-3.3807,0.0,0.0,0.0,0.0,0.0,0.0,0.0,0.0,0.0,0.0,0.0,0.0,0.0,0.0,0.0,0.0,0.0,0.0,0.0,-3.7809,-3.7982,-3.7289,-3.7082,-3.658,-3.5717,-3.562,-3.5553,-3.55,-3.55,-3.55,-3.55,-3.5692,-3.5811,-3.5871,-3.6093,-3.6294,-3.6453,-3.6487,-3.6913,0.0,0.0,0.0,0.0,0.0,0.0,0.0,0.0,0.0,0.0,0.0,0.0,0.0,0.0,0.0,0.0,-3.3763,-3.4006,-3.4211,-3.4507,-3.5163,-3.5447,-3.4242,-3.4729,-3.551,-3.551,-3.499,-3.455,-3.4748,-3.4791,-3.4977,-3.5659,-3.6439,-3.7225,-3.8042,-3.7652,-3.7466,-3.8079,-3.8172,-3.8414,-3.9027,-3.9101,-3.9027,-3.8841,-3.879,-3.8461,-3.7657,-3.7588,-3.7037,-3.5793,-3.5488,-3.5042,-3.4376,-3.4044,-3.3868,-3.3868,-3.3834,-3.3834,-3.3868,-3.3815,-3.3807,-3.3807,-3.3807,-3.3807,-3.3807,-3.3807,-3.3807,-3.3807,-3.3807,-3.3807,-3.3807,-3.3807,-3.3807,-3.3807,-3.3807,-3.3807,-3.3807,0.0,0.0,0.0,0.0,0.0,0.0,0.0,0.0,0.0,0.0,0.0,0.0,0.0,0.0,0.0,0.0,0.0,0.0,0.0,-3.6911,-3.7306,-3.7119,-3.7035,-3.658,-3.5717,-3.557,-3.5494,-3.55,-3.55,-3.55,-3.5519,-3.625,-3.6622,-3.6656,-3.7533,-3.8009,-3.8127,-3.8195,-3.8334,-3.8494,-3.8435,0.0,0.0,0.0,0.0,0.0,0.0,0.0,0.0,0.0,0.0,0.0,0.0,0.0,-3.3955,-3.3218,-3.3432,-3.3887,-3.3731,-3.4185,-3.4438,-3.3357,-3.4302,-3.551,-3.551,-3.5454,-3.5621,-3.6383,-3.6532,-3.6551,-3.6606,-3.7262,-3.8079,-3.8878,-3.8971,-3.8952,-3.9008,-3.9008,-3.9045,-3.9082,-3.9101,-3.8804,-3.8061,-3.7932,-3.7558,-3.6742,-3.6633,-3.655,-3.644,-3.567,-3.5187,-3.5118,-3.4265,-3.382,-3.382,-3.3788,-3.3788,-3.382,-3.3788,-3.3807,-3.3807,-3.3807,-3.3807,-3.3807,-3.3807,-3.3807,-3.3807,-3.3807,-3.3807,-3.3807,-3.3807,-3.3807,-3.3807,-3.3807,-3.3807,-3.3807,0.0,0.0,0.0,0.0,0.0,0.0,0.0,0.0,0.0,0.0,0.0,0.0,0.0,0.0,0.0,0.0,0.0,0.0,0.0,-3.6813,-3.7012,-3.6376,-3.6759,-3.6574,-3.565,-3.554,-3.55,-3.55,-3.55,-3.575,-3.625,-3.6558,-3.6981,-3.7507,-3.7306,-3.7294,-3.7399,-3.6876,-3.7335,-3.8364,-3.7876,0.0,0.0,0.0,0.0,0.0,0.0,0.0,0.0,0.0,-3.3603,-3.3737,-3.291,-3.2987,-3.3237,-3.2391,-3.2699,-3.3331,-3.3549,-3.4169,-3.4615,-3.3913,-3.4216,-3.4692,-3.4692,-3.4692,-3.5083,-3.642,-3.6309,-3.6272,-3.7262,-3.7155,-3.717,-3.7964,-3.754,-3.7331,-3.8024,-3.7669,-3.7614,-3.827,-3.7912,-3.7485,-3.7169,-3.7098,-3.6724,-3.5909,-3.5787,-3.5526,-3.4971,-3.4592,-3.4386,-3.4386,-3.4012,-3.3807,-3.3807,-3.3807,-3.3807,-3.3807,-3.3807,-3.3807,-3.3807,-3.3807,-3.3807,-3.3807,-3.3807,-3.3807,-3.3807,-3.3807,-3.3807,-3.3807,-3.3807,-3.3807,-3.3807,-3.3807,-3.3807,-3.3807,0.0,0.0,0.0,0.0,0.0,0.0,0.0,0.0,0.0,0.0,0.0,0.0,0.0,0.0,0.0,0.0,0.0,0.0,-3.5953,-3.6813,-3.6987,-3.6288,-3.6728,-3.6678,-3.5956,-3.565,-3.55,-3.55,-3.55,-3.5788,-3.6327,-3.6865,-3.7276,-3.7584,-3.7546,-3.7436,-3.7232,-3.6632,-3.7133,-3.824,-3.7692,-3.767,0.0,0.0,0.0,0.0,0.0,0.0,0.0,0.0,-3.2699,-3.2756,-3.1948,-3.2083,-3.2352,-3.1525,-3.2045,-3.2941,-3.3149,-3.3837,-3.4376,-3.3936,-3.4011,-3.4197,-3.4197,-3.4401,-3.507,-3.6742,-3.6835,-3.6952,-3.8025,-3.7391,-3.6863,-3.7323,-3.6574,-3.617,-3.685,-3.6585,-3.6541,-3.7146,-3.6896,-3.6528,-3.6144,-3.6125,-3.5824,-3.4992,-3.4853,-3.4573,-3.397,-3.3895,-3.3868,-3.3868,-3.3815,-3.3807,-3.3807,-3.3807,-3.3807,-3.3807,-3.3807,-3.3807,-3.3807,-3.3807,-3.3807,-3.3807,-3.3807,-3.3807,-3.3807,-3.3807,-3.3807,-3.3807,-3.3807,-3.3807,-3.3807,-3.3807,-3.3807,-3.3807,0.0,0.0,0.0,0.0,0.0,0.0,0.0,0.0,0.0,0.0,0.0,0.0,0.0,0.0,0.0,0.0,0.0,0.0,-3.5992,-3.6792,-3.7186,-3.6979,-3.6984,-3.6895,-3.6699,-3.5923,-3.5519,-3.5519,-3.55,-3.5519,-3.5558,-3.7219,-3.7526,-3.6788,-3.8507,-3.8824,-3.8088,-3.8088,-3.8165,-3.8287,-3.8287,-3.7778,-3.6923,0.0,0.0,0.0,0.0,0.0,0.0,0.0,-3.2237,-3.2756,-3.1948,-3.1718,-3.1545,-3.0654,-3.1596,-3.2807,-3.24,-3.2928,-3.3497,-3.3079,-3.3603,-3.4197,-3.4179,-3.4866,-3.5956,-3.7541,-3.8525,-3.9041,-3.8902,-3.8184,-3.7496,-3.7217,-3.6514,-3.5924,-3.5732,-3.6087,-3.6211,-3.5745,-3.6213,-3.6094,-3.4903,-3.5037,-3.4828,-3.395,-3.3847,-3.3807,-3.3807,-3.3807,-3.3807,-3.3807,-3.3807,-3.3807,-3.3807,-3.3807,-3.3807,-3.3807,-3.3807,-3.3807,-3.3807,-3.3807,-3.3807,-3.3807,-3.3807,-3.3807,-3.3807,-3.3807,-3.3807,-3.3807,-3.3807,-3.3807,-3.3807,-3.3807,-3.3807,-3.3807,0.0,0.0,0.0,0.0,0.0,0.0,0.0,0.0,0.0,0.0,0.0,0.0,0.0,0.0,0.0,0.0,0.0,0.0,-3.4983,-3.5251,-3.5314,-3.5103,-3.5698,-3.6228,-3.6699,-3.7065,-3.6969,-3.6346,-3.5788,-3.6096,-3.7257,-3.7142,-3.7276,-3.7603,-3.7507,-3.7336,-3.7076,-3.6517,-3.662,-3.7172,-3.7271,-3.7166,-3.6909,0.0,0.0,0.0,0.0,0.0,0.0,0.0,0.0,0.0,-3.1948,-3.2506,-3.3064,-3.1,-3.1596,-3.2698,-3.1713,-3.2502,-3.3365,-3.2389,-3.3187,-3.4048,-3.3473,-3.4469,-3.564,-3.6105,-3.6809,-3.7257,-3.6985,-3.6532,-3.6087,-3.5777,-3.5362,-3.5186,-3.5454,-3.5081,-3.4795,-3.4851,-3.4513,-3.4185,-3.3915,-3.3911,-3.3918,-3.39,-3.3847,-3.3807,-3.3807,-3.3807,-3.3807,-3.3807,-3.3807,-3.3807,-3.3807,-3.3807,-3.3807,-3.3807,-3.3807,-3.3807,-3.3807,-3.3807,-3.3807,-3.3807,-3.3807,-3.3807,-3.3807,-3.3807,-3.3807,-3.3807,-3.3807,-3.3807,-3.3807,-3.3807,-3.3807,-3.3807,0.0,0.0,0.0,0.0,0.0,0.0,0.0,0.0,0.0,0.0,-3.5621,-3.5978,0.0,0.0,0.0,0.0,0.0,0.0,0.0,-3.4589,-3.4503,-3.4302,-3.5123,-3.5956,-3.668,-3.7546,-3.7911,-3.7738,-3.6538,-3.6481,-3.7469,-3.6942,-3.6808,-3.7007,-3.6788,-3.6519,-3.6173,-3.5334,-3.5462,-3.6206,-3.5919,-3.6027,-3.6355,0.0,0.0,0.0,0.0,0.0,0.0,0.0,0.0,0.0,-3.2333,-3.2872,-3.3372,-3.1833,-3.2352,-3.3216,-3.2321,-3.2824,-3.3459,-3.2892,-3.3473,-3.416,-3.3987,-3.4717,-3.5459,-3.5421,-3.6025,-3.644,-3.6058,-3.5514,-3.4966,-3.4551,-3.4058,-3.3829,-3.4074,-3.3765,-3.3525,-3.3539,-3.3301,-3.3105,-3.3045,-3.3105,-3.3258,-3.3462,-3.355,-3.3536,-3.3404,-3.3522,-3.3611,-3.3611,-3.3611,-3.3611,-3.3611,-3.3611,-3.3536,-3.3404,-3.3536,-3.3611,-3.3611,-3.3734,-3.3807,-3.3807,-3.3807,-3.3807,-3.3807,-3.3807,-3.3807,-3.3807,-3.3807,-3.3807,-3.3807,-3.3807,-3.3807,-3.3807,0.0,0.0,0.0,0.0,0.0,0.0,0.0,0.0,0.0,0.0,-3.588,-3.5899,0.0,0.0,0.0,0.0,0.0,0.0,0.0,0.0,-3.4492,-3.4306,-3.5262,-3.6169,-3.693,-3.7777,-3.8623,-3.9419,-3.7584,-3.6731,-3.6808,-3.6654,-3.6192,-3.5538,-3.625,-3.6173,-3.5442,-3.4641,-3.4776,-3.5423,-3.4641,-3.4795,-3.5514,-3.5564,0.0,0.0,0.0,0.0,0.0,0.0,0.0,0.0,-3.2929,-3.3006,-3.3103,-3.2949,-3.3526,-3.41,-3.365,-3.3552,-3.3668,-3.3941,-3.4042,-3.4284,-3.5093,-3.5266,-3.5258,-3.518,-3.5752,-3.6104,-3.5639,-3.4842,-3.4042,-3.3442,-3.2739,-3.2232,-3.2108,-3.2403,-3.2521,-3.2144,-3.2536,-3.2699,-3.2318,-3.2569,-3.2763,-3.2795,-3.3078,-3.3124,-3.2811,-3.3093,-3.3243,-3.3243,-3.3243,-3.3243,-3.3243,-3.3243,-3.3108,-3.2795,-3.3108,-3.3243,-3.3276,-3.3638,-3.3807,-3.3807,-3.3807,-3.3807,-3.3807,-3.3807,-3.3807,-3.3807,-3.3807,-3.3807,-3.3807,-3.3807,-3.3807,-3.3807,0.0,0.0,0.0,0.0,0.0,0.0,0.0,0.0,0.0,0.0,0.0,0.0,0.0,0.0,0.0,0.0,0.0,0.0,0.0,0.0,-3.438,-3.4218,-3.6324,-3.7889,-3.8719,-3.9534,-4.0054,-4.0246,-3.7853,-3.7038,-3.77,-3.6365,-3.5673,-3.5519,-3.5673,-3.5654,-3.5481,-3.5308,-3.5327,-3.5481,-3.5288,-3.5327,-3.55,-3.5515,-3.5455,0.0,0.0,0.0,0.0,0.0,0.0,0.0,-3.3122,-3.3833,-3.4673,-3.3295,-3.3526,-3.4012,-3.3135,-3.3251,-3.3431,-3.2734,-3.2862,-3.3389,-3.4129,-3.4262,-3.4236,-3.4262,-3.4384,-3.4257,-3.3638,-3.3326,-3.2915,-3.2281,-3.2015,-3.1947,-3.2073,-3.2179,-3.2214,-3.2108,-3.2197,-3.2283,-3.2301,-3.2369,-3.252,-3.2779,-3.2858,-3.2874,-3.2795,-3.2858,-3.2905,-3.2905,-3.2905,-3.2905,-3.2905,-3.2905,-3.2874,-3.2795,-3.2874,-3.2905,-3.2939,-3.3536,-3.3807,-3.3807,-3.3807,-3.3807,-3.3807,-3.3807,-3.3807,-3.3807,-3.3807,-3.3807,-3.3807,-3.3807,-3.3807,-3.3807,0.0,0.0,0.0,0.0,0.0,0.0,0.0,0.0,0.0,0.0,0.0,0.0,0.0,0.0,0.0,0.0,0.0,0.0,0.0,-3.4342,-3.4654,-3.536,-3.7065,-3.82,-3.8661,-3.9496,-3.9938,-3.9938,-3.7757,-3.7161,-3.7969,-3.6269,-3.55,-3.55,-3.55,-3.55,-3.5462,-3.5045,-3.5122,-3.5462,-3.5045,-3.5141,-3.55,-3.55,-3.5534,-3.5532,-3.5021,0.0,0.0,0.0,0.0,0.0,0.0,0.0,-3.5327,-3.4404,-3.4468,-3.4684,-3.4072,-3.4124,-3.4195,-3.3474,-3.3101,-3.3087,-3.3826,-3.3947,-3.3895,-3.3895,-3.3868,-3.3703,-3.324,-3.2952,-3.2635,-3.2109,-3.1911,-3.1837,-3.1929,-3.1964,-3.1964,-3.1964,-3.1964,-3.1983,-3.2055,-3.2055,-3.2126,-3.2318,-3.2469,-3.2486,-3.2335,-3.2469,-3.2553,-3.2553,-3.2553,-3.2553,-3.2553,-3.2553,-3.2469,-3.2318,-3.2486,-3.2651,-3.2811,-3.3332,-3.3652,-3.3807,-3.3807,-3.3807,-3.3807,-3.3807,-3.3707,-3.3583,-3.3734,-3.3694,-3.3583,-3.3734,-3.3807,-3.3807,0.0,0.0,0.0,0.0,0.0,0.0,0.0,0.0,0.0,0.0,0.0,0.0,0.0,0.0,0.0,0.0,0.0,0.0,0.0,-3.4395,-3.5161,-3.6642,-3.7526,-3.8007,-3.8007,-3.8854,-3.9227,-3.9092,-3.7488,-3.7161,-3.7969,-3.6269,-3.55,-3.55,-3.55,-3.55,-3.5442,-3.4737,-3.4834,-3.5442,-3.4718,-3.4853,-3.55,-3.55,-3.5534,-3.5581,-3.5528,-3.5541,-3.5581,-3.5521,0.0,0.0,0.0,0.0,-3.5462,-3.5327,-3.5385,-3.5434,-3.5117,-3.4996,-3.4907,-3.4662,-3.387,-3.3332,-3.3888,-3.3959,-3.3881,-3.3815,-3.371,-3.3542,-3.3415,-3.2997,-3.2604,-3.2334,-3.2073,-3.1856,-3.1818,-3.18,-3.18,-3.18,-3.18,-3.18,-3.18,-3.18,-3.18,-3.18,-3.2055,-3.2091,-3.1818,-3.2055,-3.2214,-3.2214,-3.2214,-3.2214,-3.2214,-3.2214,-3.2073,-3.18,-3.2073,-3.2386,-3.2715,-3.3001,-3.335,-3.3707,-3.3707,-3.3748,-3.3807,-3.3734,-3.3536,-3.3321,-3.3536,-3.3465,-3.3243,-3.3578,-3.3707,-3.3721,0.0,0.0,0.0,0.0,0.0,0.0,0.0,0.0,0.0,0.0,-3.5508,-3.5194,-3.4334,-3.4243,0.0,0.0,0.0,0.0,-3.4237,0.0,0.0,-3.6654,-3.7526,-3.8007,-3.8007,-3.8854,-3.8931,-3.8161,-3.718,-3.7161,-3.7969,-3.6269,-3.55,-3.55,-3.55,-3.55,-3.5481,-3.5385,-3.5385,-3.5481,-3.5365,-3.5404,-3.55,-3.55,-3.5514,-3.5508,-3.5507,-3.5514,-3.5508,-3.5507,-3.55,0.0,0.0,0.0,-3.5346,-3.4603,-3.4911,-3.5327,-3.4544,-3.4208,-3.4173,-3.4511,-3.4442,-3.4244,-3.413,-3.3985,-3.3895,-3.3881,-3.3296,-3.287,-3.3234,-3.2698,-3.2224,-3.228,-3.2266,-3.2144,-3.1838,-3.18,-3.18,-3.18,-3.18,-3.18,-3.18,-3.18,-3.18,-3.18,-3.1838,-3.1855,-3.18,-3.1838,-3.1856,-3.1856,-3.1856,-3.1856,-3.1856,-3.1856,-3.1838,-3.18,-3.1855,-3.2037,-3.2369,-3.2403,-3.2765,-3.3364,-3.3364,-3.3522,-3.3793,-3.348,-3.335,-3.3291,-3.3032,-3.2905,-3.2905,-3.3243,-3.3364,-3.3408,0.0,0.0,0.0,0.0,0.0,0.0,0.0,0.0,0.0,0.0,0.0,-3.5173,-3.4302,-3.3763,0.0,0.0,0.0,0.0,-3.3513,-3.4327,0.0,-3.5981,-3.6827,-3.7276,-3.7276,-3.7642,-3.7661,-3.7276,-3.6442,-3.6692,-3.7969,-3.675,-3.6423,-3.6892,-3.6385,-3.6173,-3.6135,-3.5692,-3.55,-3.55,-3.55,-3.5769,-3.6115,-3.5673,-3.5788,-3.6115,-3.5654,-3.55,-3.55,-3.55,-3.55,-3.5346,-3.4468,0.0,0.0,0.0,-3.3737,-3.4064,-3.4167,-3.4045,-3.4077,-3.4764,-3.4353,-3.3874,-3.4239,-3.4099,-3.3895,-3.3895,-3.3204,-3.2653,-3.2867,-3.246,-3.2057,-3.1927,-3.2121,-3.2179,-3.1855,-3.18,-3.18,-3.18,-3.18,-3.18,-3.18,-3.18,-3.18,-3.18,-3.18,-3.18,-3.18,-3.18,-3.18,-3.18,-3.18,-3.18,-3.18,-3.18,-3.18,-3.18,-3.18,-3.1874,-3.202,-3.202,-3.2386,-3.3032,-3.3032,-3.309,-3.3229,-3.3093,-3.2908,-3.2732,-3.2779,-3.2684,-3.2553,-3.2908,-3.3032,-3.3006,0.0,0.0,0.0,0.0,0.0,0.0,0.0,0.0,0.0,0.0,0.0,0.0,-3.4302,0.0,0.0,0.0,0.0,0.0,-3.2643,0.0,0.0,0.0,0.0,-3.6404,-3.6404,-3.6596,-3.6596,-3.6404,-3.5788,-3.6365,-3.7988,-3.7334,-3.7603,-3.8584,-3.7507,-3.6904,-3.6654,-3.6058,-3.5808,-3.5808,-3.5808,-3.6154,-3.6654,-3.6269,-3.6365,-3.6615,-3.6019,-3.5673,-3.55,-3.55,-3.55,-3.5308,-3.4199,-3.4013,0.0,0.0,0.0,-3.2833,-3.3917,-3.4093,-3.4171,-3.4988,-3.4603,-3.4124,-3.4513,-3.4309,-3.403,-3.4005,-3.311,-3.237,-3.2577,-3.2392,-3.2151,-3.1934,-3.2262,-3.2369,-3.1874,-3.1874,-3.1893,-3.1818,-3.18,-3.18,-3.18,-3.18,-3.18,-3.18,-3.18,-3.18,-3.18,-3.161,-3.161,-3.1783,-3.142,-3.1403,-3.18,-3.18,-3.18,-3.18,-3.18,-3.18,-3.18,-3.18,-3.2073,-3.2553,-3.2635,-3.2715,-3.2795,-3.2716,-3.2537,-3.2318,-3.2469,-3.2403,-3.2214,-3.2536,-3.2666,-3.2608,0.0,0.0,0.0,0.0,0.0,0.0,0.0,0.0,0.0,0.0,0.0,0.0,-3.4302,-3.341,-3.2583,-3.182,-3.1041,0.0,0.0,0.0,0.0,0.0,0.0,0.0,-3.5558,-3.6308,-3.6327,-3.5558,-3.5519,-3.6365,-3.8007,-3.795,-3.8796,-4.0304,-3.8661,-3.7469,-3.6692,-3.6654,-3.6635,-3.6635,-3.6635,-3.6654,-3.6788,-3.7565,-3.7392,-3.6692,-3.6654,-3.6154,-3.55,-3.55,-3.55,-3.5192,-3.3506,-3.3526,-3.3878,0.0,0.0,0.0,-3.3763,-3.4199,-3.4351,-3.5039,-3.5709,-3.6001,-3.5088,-3.4622,-3.4357,-3.43,-3.2838,-3.1765,-3.2467,-3.2588,-3.2621,-3.2726,-3.3011,-3.2908,-3.1947,-3.2073,-3.2161,-3.1837,-3.18,-3.18,-3.18,-3.18,-3.18,-3.18,-3.18,-3.18,-3.18,-3.1127,-3.1076,-3.1783,-3.0386,-3.0317,-3.1783,-3.18,-3.18,-3.18,-3.18,-3.18,-3.18,-3.18,-3.1818,-3.1874,-3.2179,-3.252,-3.2781,-3.2453,-3.2318,-3.2266,-3.1966,-3.1838,-3.1856,-3.2197,-3.2335,-3.2263,0.0,0.0,0.0,0.0,0.0,0.0,0.0,0.0,0.0,0.0,0.0,0.0,0.0,-3.3757,-3.2807,-3.2555,-3.1327,0.0,0.0,0.0,0.0,0.0,0.0,0.0,-3.5481,-3.5788,-3.5788,-3.55,-3.55,-3.6077,-3.718,-3.718,-3.7488,-3.8065,-3.8027,-3.7834,-3.7469,-3.6385,-3.5923,-3.5962,-3.6481,-3.7038,-3.7507,-3.7257,-3.768,-3.8219,-3.7103,-3.65,-3.6269,-3.6269,-3.5923,-3.5192,-3.3449,-3.3103,-3.3045,-3.1365,-3.125,-3.1833,-3.2429,-3.2968,-3.3686,-3.5053,-3.5097,-3.4983,-3.5706,-3.523,-3.4612,-3.4458,-3.3373,-3.2654,-3.3305,-3.2561,-3.1934,-3.2282,-3.2706,-3.2781,-3.2197,-3.2037,-3.1929,-3.1818,-3.18,-3.18,-3.18,-3.18,-3.18,-3.18,-3.18,-3.18,-3.18,-3.1093,-3.0817,-3.1076,-3.0058,-3.0006,-3.1076,-3.1558,-3.18,-3.18,-3.18,-3.18,-3.18,-3.18,-3.18,-3.1818,-3.1929,-3.2055,-3.2144,-3.202,-3.1983,-3.1983,-3.1855,-3.18,-3.1818,-3.1929,-3.1671,-3.122,0.0,0.0,0.0,0.0,0.0,0.0,0.0,0.0,-3.55,-3.55,0.0,0.0,0.0,0.0,-3.3249,-3.3019,-3.1775,-3.1138,-3.1459,-3.1672,0.0,0.0,0.0,0.0,-3.5462,-3.5769,-3.5769,-3.55,-3.5769,-3.6173,-3.6692,-3.6692,-3.6865,-3.7161,-3.745,-3.7565,-3.7488,-3.6385,-3.5904,-3.5981,-3.6788,-3.7315,-3.7584,-3.7873,-3.8161,-3.8315,-3.745,-3.6769,-3.6308,-3.6308,-3.5942,-3.5192,-3.3449,-3.2506,-3.1852,-3.0731,-3.0808,-3.1327,-3.1621,-3.2295,-3.3256,-3.4699,-3.4527,-3.4377,-3.5775,-3.5276,-3.4519,-3.4593,-3.3783,-3.3245,-3.3812,-3.277,-3.1981,-3.2422,-3.2871,-3.2937,-3.2369,-3.2214,-3.2038,-3.1837,-3.18,-3.18,-3.18,-3.18,-3.18,-3.18,-3.18,-3.18,-3.18,-3.0834,-3.0058,-2.9575,-2.9523,-2.9644,-2.992,-3.092,-3.142,-3.142,-3.1679,-3.18,-3.18,-3.18,-3.18,-3.18,-3.18,-3.18,-3.18,-3.18,-3.18,-3.18,-3.18,-3.18,-3.18,-3.18,-3.1334,-3.0611,0.0,0.0,0.0,0.0,0.0,0.0,0.0,0.0,-3.55,-3.55,0.0,0.0,0.0,0.0,0.0,-3.3077,-3.2295,-3.2179,-3.2952,-3.2256,0.0,0.0,0.0,0.0,-3.5462,-3.6269,-3.6269,-3.55,-3.6269,-3.6654,-3.6654,-3.6654,-3.7103,-3.7853,-3.7026,-3.6635,-3.6596,-3.6615,-3.6654,-3.6769,-3.7603,-3.7469,-3.7038,-3.9488,-3.8911,-3.6923,-3.7738,-3.6988,-3.5615,-3.5615,-3.5577,-3.5231,-3.3468,-3.1756,-3.0404,-3.0404,-3.0404,-3.0577,0.0,0.0,0.0,-3.3975,-3.4186,-3.4391,-3.5288,-3.4664,-3.4064,-3.4643,-3.3925,-3.334,-3.3819,-3.325,-3.2839,-3.3252,-3.3583,-3.3433,-3.247,-3.2586,-3.2553,-3.1893,-3.1836,-3.1817,-3.18,-3.1817,-3.1817,-3.18,-3.18,-3.18,-3.18,-3.0351,-2.8816,-2.7351,-2.8713,-2.9127,-2.8403,-2.9903,-3.0697,-3.0714,-3.142,-3.1783,-3.18,-3.18,-3.18,-3.18,-3.18,-3.1783,-3.1765,-3.1783,-3.18,-3.18,-3.18,-3.18,-3.18,-3.18,-3.1317,-3.0541,0.0,0.0,0.0,0.0,0.0,-3.6712,-3.5654,-3.55,-3.55,0.0,0.0,0.0,-3.4622,-3.3776,-3.3191,-3.3019,-3.2792,-3.2803,-3.3119,-3.2295,-3.255,-3.4206,-3.3397,-3.3718,-3.5462,-3.5712,-3.5712,-3.55,-3.5712,-3.5827,-3.5827,-3.5827,-3.5622,-3.5264,-3.5661,-3.5135,-3.3987,-3.4622,-3.5584,-3.6673,-3.6327,-3.7161,-3.8584,-3.8661,-3.9008,-3.9392,-3.9065,-3.8642,-3.8257,-3.8257,-3.7411,-3.5962,-3.3622,-3.1756,-3.0404,-3.0404,-3.0404,-3.0442,-3.0692,0.0,0.0,0.0,0.0,0.0,-3.5154,-3.478,-3.4115,-3.4149,-3.3296,-3.2918,-3.4113,-3.3432,-3.2936,-3.3615,-3.3564,-3.335,-3.3063,-3.2684,-3.2369,-3.2179,-3.2415,-3.2386,-3.1852,-3.2283,-3.2369,-3.1834,-3.18,-3.18,-3.18,-3.0351,-2.8816,-2.7351,-2.8213,-2.861,-2.8403,-2.9351,-3.011,-3.0714,-3.0921,-3.1282,-3.18,-3.18,-3.18,-3.18,-3.18,-3.1489,-3.1041,-3.1576,-3.18,-3.18,-3.18,-3.18,-3.18,-3.18,-3.0955,-2.9799,0.0,0.0,0.0,-3.7526,-3.7038,-3.6423,-3.5615,-3.55,-3.55,0.0,0.0,0.0,-3.4795,-3.4295,-3.3994,-3.4048,-3.3379,-3.3156,-3.3581,-3.2452,-3.2337,-3.3662,-3.3198,-3.3545,-3.493,-3.5635,-3.5846,-3.55,-3.5846,-3.5827,-3.55,-3.55,-3.5026,-3.4225,-3.4737,-3.4391,-3.343,-3.3237,-3.4122,-3.5718,-3.6295,-3.7219,-3.8277,-3.8834,-3.9219,-3.9438,-3.9342,-3.9073,-3.8757,-3.8757,-3.7623,-3.5808,-3.3603,-3.2237,-3.1308,-3.0615,-3.0654,-3.0865,-3.05,-3.0404,-3.0846,-3.2699,0.0,0.0,-3.4019,-3.3757,-3.3294,-3.3796,-3.3394,-3.3383,-3.4749,-3.4393,-3.4024,-3.4381,-3.4206,-3.3833,-3.3357,-3.2954,-3.2685,-3.2537,-3.2861,-3.2939,-3.2523,-3.2739,-3.2714,-3.2283,-3.1972,-3.1524,-3.0869,-2.9989,-2.8816,-2.7351,-2.7713,-2.7937,-2.7937,-2.8678,-2.9282,-2.9748,-3.0386,-3.0938,-3.1351,-3.1662,-3.18,-3.1783,-3.1472,-3.1093,-3.0696,-3.08,-3.0834,-3.0869,-3.1196,-3.1145,-3.0834,-3.0834,-3.0058,-2.899,0.0,0.0,-3.7507,-3.6808,-3.6635,-3.6365,-3.5731,-3.5558,-3.5577,0.0,-3.5692,-3.5673,-3.5769,-3.5615,-3.5538,-3.5635,-3.4045,-3.3372,-3.4148,-3.2622,-3.2064,-3.2852,-3.2814,-3.316,-3.4032,-3.5603,-3.6077,-3.5365,-3.6173,-3.6192,-3.55,-3.5404,-3.4891,-3.4071,-3.4071,-3.3955,-3.3705,-3.2487,-3.2776,-3.4257,-3.6526,-3.7257,-3.7219,-3.9296,-3.9258,-3.8238,-3.8911,-3.8719,-3.8142,-3.8142,-3.7026,-3.5346,-3.3718,-3.3122,-3.2737,-3.1135,-3.1231,-3.166,-3.0885,-3.0673,-3.0865,-3.1641,-3.1327,0.0,-3.2468,-3.2275,-3.218,-3.339,-3.3632,-3.3987,-3.5136,-3.5443,-3.5366,-3.4897,-3.4962,-3.4651,-3.3517,-3.3408,-3.331,-3.3015,-3.335,-3.36,-3.3546,-3.3202,-3.2942,-3.2904,-3.2214,-3.1162,-2.9713,-2.9558,-2.8903,-2.7592,-2.7385,-2.7333,-2.742,-2.7989,-2.8316,-2.842,-2.9868,-3.0576,-3.0575,-3.1334,-3.1679,-3.1627,-3.0886,-3.0576,-3.0506,-2.9799,-2.9506,-2.9575,-3.0282,-3.0127,-2.9489,-2.9489,-2.8973,-2.827,0.0,-3.6327,-3.6135,-3.6615,-3.6154,-3.5904,-3.6385,-3.5923,-3.5981,-3.7334,-3.6904,-3.6731,-3.745,-3.6308,-3.575,-3.6404,-3.4911,-3.4013,-3.4186,-3.2622,-3.2064,-3.2852,-3.2275,-3.2314,-3.3141,-3.416,-3.4603,-3.4449,-3.5308,-3.5654,-3.5481,-3.4776,-3.3987,-3.3141,-3.3141,-3.241,-3.125,-3.2987,-3.3493,-3.3198,-3.3686,-3.5853,-3.8681,-3.7796,-3.8104,-3.8977,-3.843,-3.8604,-3.9053,-3.9053,-3.7892,-3.6288,-3.5308,-3.4507,-3.3744,-3.2718,-3.2526,-3.2622,-3.2468,-3.241,-3.2449,-3.2622,-3.3064,0.0,-3.2179,-3.2314,-3.2558,-3.2199,-3.1996,-3.2165,-3.3045,-3.416,-3.4432,-3.2799,-3.4146,-3.4995,-3.3872,-3.4026,-3.4247,-3.4186,-3.4554,-3.4747,-3.4462,-3.3755,-3.3187,-3.2923,-3.2214,-3.1403,-3.0506,-2.9851,-2.9368,-2.9075,-2.792,-2.7592,-2.8178,-2.773,-2.7799,-2.842,-2.9317,-2.973,-2.9765,-3.0541,-3.0903,-3.0886,-3.0075,-2.973,-2.973,-2.9558,-2.9506,-2.9523,-2.9679,-2.961,-2.942,-2.942,-2.8888,-2.8135,-3.6019,-3.5788,-3.5635,-3.6038,-3.5769,-3.5769,-3.6577,-3.6365,-3.6558,-3.7834,-3.8007,-3.8007,-3.8007,-3.7257,-3.6731,-3.6692,-3.5161,-3.4013,-3.3583,-3.2391,-3.1698,-3.1654,-3.1679,-3.1891,-3.2295,-3.3545,-3.4205,-3.4205,-3.5064,-3.55,-3.5481,-3.4603,-3.3975,-3.3506,-3.2679,-3.2064,-3.1673,-3.209,-3.2756,-3.3622,-3.4462,-3.607,-3.7966,-3.7519,-3.7892,-3.8584,-3.8161,-3.8277,-3.8527,-3.768,-3.7084,-3.6481,-3.5238,-3.5122,-3.5199,-3.391,-3.3853,-3.4007,-3.3141,-3.2891,-3.2891,-3.2891,-3.2929,0.0,0.0,-3.1679,-3.1775,-3.2218,-3.1904,-3.2015,-3.3559,-3.4075,-3.4037,-3.3395,-3.4521,-3.4965,-3.3593,-3.383,-3.4152,-3.4152,-3.4566,-3.4781,-3.4615,-3.3882,-3.3122,-3.2388,-3.2007,-3.1472,-3.0748,-3.0317,-2.992,-2.9523,-2.842,-2.8023,-2.8403,-2.7661,-2.7489,-2.7851,-2.861,-2.8954,-2.8989,-2.9748,-3.0093,-3.0058,-2.9299,-2.8954,-2.892,-2.8558,-2.8403,-2.8437,-2.8816,-2.8663,-2.8252,-2.8252,-2.7946,-2.7504,-3.5462,-3.55,-3.55,-3.55,-3.55,-3.5769,-3.6577,-3.6577,-3.6846,-3.7873,-3.8892,-3.9265,-3.8565,-3.8334,-3.8027,-3.7488,-3.5603,-3.4218,-3.368,-3.2564,-3.1621,-3.0904,-3.141,-3.1698,-3.1698,-3.3179,-3.3955,-3.3955,-3.4814,-3.525,-3.5231,-3.4199,-3.3725,-3.3667,-3.2288,-3.2058,-3.2583,-3.1309,-3.2103,-3.4301,-3.5659,-3.6395,-3.6752,-3.73,-3.7603,-3.7757,-3.7757,-3.7642,-3.7353,-3.6327,-3.6308,-3.6462,-3.5103,-3.5603,-3.6404,-3.4891,-3.4949,-3.5192,-3.3776,-3.341,-3.3314,-3.2987,-3.2545,-3.2045,0.0,0.0,0.0,-3.2179,-3.191,-3.2001,-3.3861,-3.3848,-3.3597,-3.3772,-3.4475,-3.4435,-3.2765,-3.3013,-3.3513,-3.3972,-3.436,-3.4694,-3.494,-3.4018,-3.2965,-3.1888,-3.18,-3.1541,-3.0938,-3.0783,-3.0386,-2.9748,-2.8868,-2.8403,-2.8403,-2.7661,-2.7299,-2.7315,-2.804,-2.8334,-2.8213,-2.8954,-2.9299,-2.9248,-2.8506,-2.8265,-2.8334,-2.7592,-2.7299,-2.7351,-2.7954,-2.7733,-2.7103,-2.7086,-2.699,-2.6893,-3.5332,-3.55,-3.55,-3.55,-3.55,-3.5769,-3.6577,-3.6096,-3.6212,-3.7796,-3.9381,-4.0323,-4.0227,-3.9573,-3.94,-4.0015,-3.718,-3.5615,-3.6231,-3.4064,-3.2718,-3.2622,-3.2025,-3.1698,-3.1698,-3.2583,-3.3045,-3.3045,-3.391,-3.4359,-3.4321,-3.2737,-3.1987,-3.1968,-3.1719,-3.1706,-3.1865,-3.232,-3.3137,-3.4129,-3.4321,-3.5309,-3.6635,-3.6019,-3.6231,-3.6846,-3.6846,-3.6385,-3.5981,-3.7276,-3.7257,-3.6673,-3.6481,-3.6538,-3.6519,-3.5615,-3.5423,-3.5462,-3.525,-3.5192,-3.4827,-3.3295,-3.341,-3.3314,-3.1058,0.0,-3.1391,-3.0808,0.0,-3.0629,-3.0899,0.0,0.0,-3.0807,-3.2257,-3.2982,-3.1139,-3.132,-3.2467,-3.4619,-3.4907,-3.5382,-3.6506,-3.4674,-3.2965,-3.1888,-3.18,-3.1765,-3.1679,-3.1059,-3.0662,-3.0576,-2.9161,-2.8403,-2.8403,-2.7661,-2.7299,-2.7315,-2.804,-2.8058,-2.7437,-2.8178,-2.8523,-2.8489,-2.7747,-2.7799,-2.8334,-2.7592,-2.7299,-2.7315,-2.7385,-2.7286,-2.7103,-2.7023,-2.6958,-2.6893,-3.5362,-3.5446,-3.5446,-3.5446,-3.5467,-3.5769,-3.6577,-3.7276,-3.8315,-3.9988,-4.0373,-4.0689,-4.12,-4.0085,-3.9631,-4.0439,-3.8315,-3.6892,-3.6712,-3.525,-3.3968,-3.2949,-3.2583,-3.2179,-3.1718,-3.2487,-3.2679,-3.2199,-3.3045,-3.3449,-3.341,-3.2256,-3.2218,-3.3122,-3.2596,-3.2916,-3.3832,-3.3602,-3.3734,-3.4088,-3.4067,-3.4491,-3.5213,-3.5388,-3.5671,-3.6,-3.6,-3.5755,-3.5472,-3.5671,-3.5837,-3.5945,-3.5904,-3.6253,-3.6635,-3.6306,-3.6197,-3.6096,-3.5635,-3.55,-3.5192,-3.3968,-3.3545,-3.3045,-3.1506,-3.1038,-3.0981,-3.1135,0.0,0.0,0.0,0.0,0.0,0.0,-3.1922,-3.2213,-3.0997,-3.1566,-3.2651,-3.4137,-3.3476,-3.341,-3.4676,-3.3752,-3.3159,-3.3454,-3.2431,-3.199,-3.2421,-3.1731,-3.1334,-3.1334,-2.9834,-2.9041,-2.9041,-2.7885,-2.7299,-2.7299,-2.7609,-2.7592,-2.7299,-2.7609,-2.7747,-2.773,-2.742,-2.7471,-2.773,-2.742,-2.7299,-2.7282,-2.7217,-2.712,-2.7039,-2.7007,-2.6909,-2.6792,-3.5656,-3.5518,-3.5372,-3.5372,-3.5412,-3.5722,-3.6563,-3.7954,-3.9519,-4.1219,-4.1104,-4.1104,-4.1731,-4.0931,-4.0593,-4.117,-3.9873,-3.8777,-3.8135,-3.6904,-3.5615,-3.4353,-3.3622,-3.2987,-3.2391,-3.2718,-3.2506,-3.1698,-3.2275,-3.2564,-3.2545,-3.1737,-3.1981,-3.3109,-3.2948,-3.3676,-3.5007,-3.4535,-3.4489,-3.4726,-3.4431,-3.4362,-3.4503,-3.5127,-3.5405,-3.5453,-3.5453,-3.5412,-3.5276,-3.4649,-3.4853,-3.5364,-3.5315,-3.5775,-3.631,-3.6327,-3.6315,-3.6183,-3.5633,-3.5467,-3.5198,-3.4122,-3.3372,-3.2622,-3.1583,-3.1038,-3.0942,-3.1564,-3.1365,0.0,0.0,0.0,-3.1212,-3.1609,0.0,-3.158,-3.076,-3.1243,-3.2065,-3.3031,-3.2302,-3.1965,-3.2592,-3.2552,-3.29,-3.3934,-3.2836,-3.2334,-3.2869,-3.2386,-3.1921,-3.1507,-3.0196,-2.9403,-2.9213,-2.7937,-2.7299,-2.7299,-2.7299,-2.7299,-2.7299,-2.7299,-2.7299,-2.7299,-2.7299,-2.7299,-2.7299,-2.7266,-2.725,-2.7233,-2.712,-2.7023,-2.6958,-2.6958,-2.6892,-2.6742,-3.6307,-3.5841,-3.5289,-3.5289,-3.5289,-3.5618,-3.6557,-3.7417,-3.8566,-4.0315,-4.1258,-4.1769,-4.1788,-4.2508,-4.2989,-4.3008,-4.22,-4.1673,-4.1635,-3.9296,-3.7892,-3.7834,-3.5468,-3.4148,-3.4129,-3.3314,-3.2506,-3.1698,-3.1737,-3.1737,-3.1718,-3.0846,-3.045,-3.0496,-3.2089,-3.3302,-3.4184,-3.4867,-3.5654,-3.6345,-3.5493,-3.5195,-3.5254,-3.5293,-3.5289,-3.5315,-3.5315,-3.5308,-3.5289,-3.527,-3.527,-3.5289,-3.5308,-3.5327,-3.5335,-3.5346,-3.5327,-3.5361,-3.5398,-3.5405,-3.5016,-3.334,-3.291,-3.2468,-3.0827,-3.1077,-3.1679,-3.1698,-3.2295,-3.2833,-3.2852,-3.2833,-3.2558,-3.1744,-3.1456,0.0,0.0,-2.9558,-2.992,-3.1311,-3.2118,-3.2135,-3.1079,-3.1378,-3.182,-3.2249,-3.2641,-3.2886,-3.2904,-3.2886,-3.2214,-3.0783,-2.9937,-2.9161,-2.8437,-2.7678,-2.7299,-2.7299,-2.7299,-2.7299,-2.7299,-2.7299,-2.7299,-2.7299,-2.7299,-2.7299,-2.7282,-2.7168,-2.7119,-2.7103,-2.704,-2.6958,-2.6909,-2.6909,-2.6893,-2.6893,-3.6449,-3.5815,-3.5258,-3.5281,-3.5772,-3.6466,-3.7364,-3.8212,-3.9553,-4.179,-4.1884,-4.1959,-4.2535,-4.2862,-4.3052,-4.3104,-4.2835,-4.2662,-4.2662,-4.0777,-3.9419,-3.8873,-3.7469,-3.6199,-3.5084,-3.4769,-3.3654,-3.1698,-3.1698,-3.1698,-3.1679,-3.0751,-3.095,-3.2071,-3.3109,-3.4083,-3.4944,-3.5723,-3.6222,-3.6411,-3.5553,-3.5218,-3.5234,-3.5273,-3.5304,-3.5308,-3.5308,-3.5293,-3.5308,-3.5308,-3.5308,-3.5281,-3.5258,-3.5262,-3.53,-3.5297,-3.4929,-3.4518,-3.4525,-3.411,-3.3548,-3.3019,-3.2475,-3.1904,-3.1385,-3.1487,-3.1698,-3.1698,-3.2333,-3.2891,-3.2891,-3.2891,-3.2795,-3.2513,-3.2254,-3.1741,0.0,-2.9729,-2.928,-2.9751,-3.1463,-3.2232,-3.1318,-3.1456,-3.2307,-3.3986,-3.291,-3.261,-3.3628,-3.2731,-3.1938,-3.1438,-3.0179,-2.9386,-2.9127,-2.7902,-2.7299,-2.7299,-2.7299,-2.7299,-2.7299,-2.7299,-2.7299,-2.7299,-2.7217,-2.7168,-2.7168,-2.7071,-2.7023,-2.704,-2.6958,-2.6926,-2.6893,-2.6893,-2.6842,-2.6758,-3.6557,-3.6042,-3.5572,-3.5318,-3.6001,-3.6963,-3.8148,-3.8805,-4.0068,-4.2572,-4.2206,-4.2023,-4.2876,-4.324,-4.3326,-4.3054,-4.3573,-4.3677,-4.3099,-4.1715,-4.0569,-3.9765,-3.8623,-3.7488,-3.6404,-3.6096,-3.4981,-3.3038,-3.2724,-3.2545,-3.2526,-3.1316,-3.1354,-3.2434,-3.3221,-3.4033,-3.4905,-3.6039,-3.65,-3.6424,-3.5545,-3.5209,-3.5209,-3.5253,-3.5266,-3.527,-3.527,-3.5266,-3.5269,-3.5269,-3.5269,-3.5203,-3.4874,-3.481,-3.4783,-3.4473,-3.4003,-3.3611,-3.3633,-3.3238,-3.2746,-3.2512,-3.2019,-3.161,-3.1655,-3.1891,-3.2109,-3.2026,-3.2987,-3.3678,-3.3168,-3.3496,-3.3673,-3.3245,-3.2859,-3.211,0.0,-2.97,-2.9089,-2.9017,-3.0381,-3.1115,-3.0595,-3.0794,-3.1857,-3.4067,-3.3072,-3.288,-3.4044,-3.3145,-3.2369,-3.1817,-3.03,-2.9506,-2.9506,-2.804,-2.7299,-2.7299,-2.7299,-2.7299,-2.7299,-2.7299,-2.7266,-2.7217,-2.7135,-2.7086,-2.7071,-2.6991,-2.6958,-2.6959,-2.6859,-2.6842,-2.6842,-2.6842,-2.6758,-2.6691,-3.6653,-3.6576,-3.6385,-3.5583,-3.6099,-3.7205,-3.891,-3.9167,-4.0046,-4.2515,-4.2179,-4.1987,-4.2763,-4.3617,-4.379,-4.2917,-4.4374,-4.4681,-4.3113,-4.2221,-4.1421,-4.0585,-3.8988,-3.8104,-3.8058,-3.7212,-3.6346,-3.5493,-3.4562,-3.4068,-3.3991,-3.2351,-3.1569,-3.1541,-3.2414,-3.3234,-3.4109,-3.5736,-3.6443,-3.6366,-3.5583,-3.5248,-3.5209,-3.5209,-3.5209,-3.5209,-3.5209,-3.5209,-3.5209,-3.5209,-3.5171,-3.5018,-3.4235,-3.3975,-3.3777,-3.2947,-3.268,-3.2649,-3.2728,-3.2697,-3.2501,-3.1788,-3.1558,-3.1526,-3.1559,-3.2211,-3.2739,-3.255,-3.404,-3.4994,-3.3667,-3.4544,-3.5115,-3.3971,-3.3257,-3.2119,-3.0076,-2.9537,-2.9291,-2.915,-2.906,-2.9023,-2.906,-2.9482,-3.0592,-3.261,-3.309,-3.3538,-3.4133,-3.4061,-3.3317,-3.1903,-3.0317,-2.9506,-2.9506,-2.804,-2.7299,-2.7299,-2.7299,-2.7299,-2.7299,-2.7282,-2.7217,-2.7103,-2.7103,-2.7038,-2.6975,-2.6926,-2.6893,-2.6893,-2.6742,-2.6691,-2.6691,-2.6691,-2.6691,-2.6691,-3.6653,-3.7493,-3.8495,-3.8926,-3.8639,-3.8725,-3.9832,-3.9993,-4.0432,-4.1695,-4.1714,-4.1713,-4.1987,-4.2735,-4.2916,-4.2159,-4.3609,-4.4156,-4.3145,-4.2857,-4.2349,-4.1429,-4.0415,-3.9523,-3.8837,-3.8055,-3.6921,-3.5357,-3.4503,-3.3766,-3.3105,-3.2029,-3.151,-3.1541,-3.2366,-3.3192,-3.4071,-3.5095,-3.5526,-3.5564,-3.6003,-3.5774,-3.5209,-3.5209,-3.5209,-3.5209,-3.5209,-3.5209,-3.5209,-3.5209,-3.4808,-3.4273,-3.4071,-3.3566,-3.2986,-3.2776,-3.2279,-3.1809,-3.1824,-3.1353,-3.0958,-3.1414,-3.0942,-3.0517,-3.1226,-3.1427,-3.1474,-3.1431,-3.2755,-3.3899,-3.3731,-3.4519,-3.5181,-3.5054,-3.4026,-3.3042,-3.2504,-3.1009,-3.0171,-3.0717,-2.9721,-2.9225,-2.9831,-3.0319,-3.142,-3.3428,-3.2419,-3.2614,-3.4786,-3.33,-3.2455,-3.261,-3.0593,-2.9506,-2.9506,-2.804,-2.7299,-2.7299,-2.7299,-2.7299,-2.7299,-2.7201,-2.7135,-2.7085,-2.699,-2.6942,-2.6926,-2.6809,-2.6742,-2.6742,-2.6708,-2.6691,-2.6691,-2.6691,-2.6691,-2.6691,-3.7684,-3.8935,-4.0368,-4.1246,-4.0998,-4.0826,-4.1323,-4.1074,-4.1131,-4.1963,-4.1457,-4.1179,-4.1579,-4.2364,-4.2545,-4.1773,-4.324,-4.3719,-4.2571,-4.2494,-4.2091,-4.1207,-4.0731,-4.0254,-3.972,-3.93,-3.8389,-3.6956,-3.6121,-3.5078,-3.3875,-3.2606,-3.1838,-3.1532,-3.2344,-3.3177,-3.409,-3.5267,-3.5545,-3.5248,-3.5736,-3.5641,0.0,-3.5209,-3.5209,-3.5209,-3.5209,-3.5209,-3.5209,-3.5209,-3.4904,-3.4464,-3.4109,-3.3394,-3.2623,-3.2279,-3.1527,-3.0807,-3.0807,-3.0372,-3.0059,-3.0538,-3.0227,-3.0009,-3.0918,-3.1039,-3.0931,-3.0847,-3.1921,-3.2732,-3.2316,-3.3486,-3.4568,-3.4703,-3.3948,-3.3191,-3.2726,-3.1622,-3.0862,-3.0864,-3.0393,-3.0099,-3.0191,-3.0124,-3.0894,-3.2921,-3.2264,-3.2564,-3.433,-3.3396,-3.2835,-3.2904,-3.0696,-2.9506,-2.9506,-2.804,-2.7299,-2.7299,-2.7233,-2.7217,-2.7217,-2.7104,-2.7039,-2.7006,-2.6925,-2.6859,-2.6809,-2.6742,-2.6691,-2.6691,-2.6691,-2.6691,-2.6691,-2.6691,-2.6691,-2.6691,-3.9336,-4.0673,-4.2068,-4.2813,-4.3042,-4.3138,-4.3138,-4.2202,-4.1762,-4.2526,-4.1361,-4.0731,-4.1447,-4.2192,-4.2365,-4.1666,-4.2929,-4.3139,-4.1628,-4.1637,-4.1327,-4.0503,-4.0473,-4.0468,-4.0477,-4.037,-3.9854,-3.8922,-3.818,-3.6824,-3.4937,-3.3525,-3.2374,-3.1541,-3.2336,-3.331,-3.4426,-3.587,-3.6061,-3.5354,-3.5248,-3.5209,-3.5201,-3.5157,-3.5185,-3.5201,-3.5157,-3.5185,-3.5209,-3.5209,-3.5133,-3.4915,-3.4173,-3.3355,-3.2527,-3.1779,-3.0907,-3.0177,-3.0177,-2.997,-2.9748,-2.9748,-2.9664,-2.9758,-3.0518,-3.0669,-3.0592,-3.042,-3.1219,-3.1587,-3.0448,-3.2068,-3.3619,-3.3654,-3.3449,-3.2943,-3.1991,-3.1848,-3.1485,-3.0619,-3.0944,0.0,-3.0411,-2.9629,-2.9953,-3.1855,-3.2159,-3.2588,-3.3352,-3.3561,-3.3404,-3.2921,-3.0696,-2.9506,-2.9506,-2.804,-2.7282,-2.7266,-2.7168,-2.7103,-2.7086,-2.7024,-2.6959,-2.6893,-2.6893,-2.6809,-2.6691,-2.6691,-2.6691,-2.6691,-2.6691,-2.6691,-2.6691,-2.6691,-2.6691,-2.6691,-4.1055,-4.2412,-4.3605,-4.3758,-4.438,-4.4857,-4.4857,-4.2947,-4.1552,-4.1705,-4.1476,-4.1361,-4.1571,-4.1724,-4.1781,-4.1682,-4.1959,-4.1691,-4.0684,-4.1306,-4.1297,-4.0362,-4.0396,-4.0398,-4.0347,-3.968,-3.8895,-3.7948,-3.784,-3.6214,-3.3154,-3.3586,-3.2955,-3.1541,-3.2336,-3.396,-3.608,-3.6385,-3.6405,-3.6214,-3.5488,-3.5209,-3.5174,-3.5019,-3.5054,-3.5185,-3.5019,-3.5063,-3.5209,-3.5209,-3.4751,-3.4154,-3.3774,-3.3105,-3.2379,-3.2015,-3.1777,-3.1635,-3.1635,-3.1119,-3.0583,-3.0583,-2.996,-2.9392,-2.9543,-2.9453,-2.9318,-2.9292,-2.9964,-3.0553,-3.0541,-3.159,-3.2683,-3.3356,-3.3231,-3.2997,-3.2791,-3.2576,-3.2377,-3.221,-3.1127,-3.0613,-3.114,-3.0467,-3.0538,-3.1892,-3.0682,-3.092,-3.3265,-3.207,-3.1783,-3.2869,-3.0696,-2.9506,-2.9506,-2.804,-2.7233,-2.7135,-2.7119,-2.707,-2.7024,-2.6959,-2.6909,-2.6893,-2.6792,-2.6725,-2.6691,-2.6691,-2.6691,-2.6691,-2.6691,-2.6691,-2.6691,-2.6691,-2.6691,-2.6691,-4.2794,-4.3806,-4.4666,-4.4666,-4.501,-4.5307,-4.5307,-4.3883,-4.266,-4.2221,-4.1781,-4.1504,-4.1543,-4.2326,-4.2518,-4.1713,-4.2028,-4.175,-4.0483,-4.079,-4.082,-4.0381,-4.0379,-4.0372,-4.0309,-3.9914,-3.9273,-3.8362,-3.7948,-3.6449,-3.4017,-3.4426,-3.3738,-3.2203,-3.3902,-3.5276,-3.6349,-3.7224,-3.7252,-3.662,-3.5807,-3.5466,-3.54,-3.4894,-3.4754,-3.4822,-3.4724,-3.4754,-3.4851,-3.4991,-3.4779,-3.4429,-3.4149,-3.3505,-3.2834,-3.2705,-3.2281,-3.1829,-3.1829,-3.1187,-3.0497,-3.0497,-2.9798,-2.9149,-2.9149,-2.9067,-2.8877,-2.8455,-2.8686,-2.9156,-2.9847,-3.0626,-3.147,-3.2408,-3.2701,-3.265,-3.2236,-3.2422,-3.2289,-3.1445,-3.1035,-3.065,-3.021,-2.9794,-2.9929,-3.079,-3.0625,-3.0989,-3.2143,-3.1619,-3.1765,-3.2869,-3.0696,-2.9489,-2.9455,-2.7941,-2.7153,-2.7039,-2.7006,-2.6991,-2.6925,-2.6842,-2.6792,-2.6792,-2.6742,-2.6691,-2.6691,-2.6691,-2.6691,-2.6691,-2.6691,-2.6691,-2.6691,-2.6691,-2.6691,-2.6691,-4.4045,-4.4704,-4.5239,-4.5048,-4.5182,-4.5307,-4.5307,-4.4418,-4.3567,-4.3119,-4.2469,-4.203,-4.203,-4.3061,-4.3224,-4.1963,-4.2106,-4.1723,-4.0448,-4.0381,-4.0381,-4.0381,-4.0381,-4.0344,-4.0289,-4.0308,-3.9869,-3.9011,-3.8495,-3.7215,-3.5209,-3.5392,-3.4642,-3.3247,-3.5611,-3.6625,-3.6617,-3.777,-3.783,-3.7108,-3.6276,-3.5856,-3.5631,-3.4948,-3.4614,-3.4497,-3.4453,-3.4464,-3.4529,-3.4693,-3.4782,-3.4763,-3.4526,-3.4,-3.3473,-3.3418,-3.2806,-3.2142,-3.2142,-3.1328,-3.0467,-3.0467,-2.9721,-2.9005,-2.9005,-2.9005,-2.8822,-2.8191,-2.7915,-2.8103,-2.913,-2.9525,-3.0134,-3.148,-3.1937,-3.199,-3.1696,-3.221,-3.2124,-3.087,-3.1109,-3.0834,-2.939,-2.935,-2.9417,-2.9447,-3.0324,-3.0894,-3.0944,-3.1185,-3.1731,-3.2645,-3.061,-2.9472,-2.9403,-2.7874,-2.7071,-2.6992,-2.6926,-2.6893,-2.6842,-2.6742,-2.6691,-2.6691,-2.6691,-2.6691,-2.6691,-2.6691,-2.6691,-2.6691,-2.6691,-2.6691,-2.6691,-2.6691,-2.6691,-2.6691,-4.4159,-4.4704,-4.5048,-4.4255,-4.4781,-4.5307,-4.5307,-4.394,-4.3157,-4.3796,-4.3815,-4.3777,-4.3777,-4.3271,-4.2851,-4.2708,-4.1361,-4.0463,-4.032,-4.032,-4.032,-4.032,-4.032,-4.032,-4.0291,-4.0291,-3.9871,-3.9011,-3.9709,-3.8391,-3.5229,-3.6003,-3.5728,-3.468,-3.6443,-3.7503,-3.7955,-3.7331,-3.7451,-3.7995,-3.7127,-3.6351,-3.5664,-3.5416,-3.499,-3.4475,-3.4298,-3.4348,-3.4475,-3.4321,-3.4383,-3.4497,-3.4298,-3.4177,-3.4074,-3.3817,-3.3676,-3.3608,-3.3608,-3.2474,-3.1286,-3.1286,-3.0136,-2.9005,-2.9005,-2.9005,-2.8987,-2.8895,-2.8319,-2.8055,-2.8874,-2.8477,-2.8771,-3.1066,-3.0876,-3.0907,-3.2289,-3.2546,-3.2546,-3.2381,-3.1806,-3.1048,-3.0173,-3.0472,-3.004,-2.8385,-2.8348,-2.902,-3.0389,-2.9981,-3.0386,-3.1852,-3.0351,-2.9472,-2.9403,-2.7874,-2.7039,-2.6909,-2.6909,-2.6842,-2.6725,-2.6708,-2.6691,-2.6691,-2.6691,-2.6691,-2.6691,-2.6691,-2.6691,-2.6691,-2.6691,-2.6691,-2.6691,-2.6691,-2.6691,-2.6691,-4.4159,-4.4704,-4.5029,-4.414,-4.4723,-4.5307,-4.5307,-4.4723,-4.4227,-4.4025,-4.3567,-4.3291,-4.3291,-4.3414,-4.3329,-4.2832,-4.1705,-4.0826,-4.032,-4.0301,-4.0301,-4.0301,-4.0301,-4.0301,-4.0301,-4.0301,-4.0053,-3.9535,-3.9519,-3.8737,-3.7252,-3.7595,-3.7437,-3.6862,-3.7544,-3.7875,-3.7964,-3.815,-3.8324,-3.8433,-3.7599,-3.7062,-3.6655,-3.5573,-3.5008,-3.4734,-3.4164,-3.4005,-3.4062,-3.3998,-3.4117,-3.4286,-3.4049,-3.3959,-3.3934,-3.3815,-3.3807,-3.3807,-3.3807,-3.2632,-3.1397,-3.1397,-2.9824,-2.8411,-2.8895,-2.862,-2.8282,-2.8282,-2.7255,-2.6751,-2.8044,-2.8026,-2.8264,-2.9732,-3.0099,-3.0265,-3.0418,-3.1274,-3.1696,-3.1219,-3.1292,-3.1085,-3.0283,-3.0374,-3.0088,-2.9143,-2.9173,-2.9424,-2.9837,-2.9625,-3.0213,-3.1748,-3.0282,-2.942,-2.9333,-2.7776,-2.6908,-2.6792,-2.6792,-2.6742,-2.6691,-2.6691,-2.6691,-2.6691,-2.6691,-2.6691,-2.6691,-2.6691,-2.6691,-2.6691,-2.6691,-2.6691,-2.6691,-2.6691,-2.6691,-2.6691,-4.4159,-4.4704,-4.5029,-4.414,-4.4513,-4.4991,-4.5269,-4.4804,-4.4285,-4.3931,-4.3096,-4.2593,-4.2784,-4.308,-4.3042,-4.2469,-4.1648,-4.0874,-4.0224,-4.0176,-4.0157,-4.0067,-4.0067,-4.0067,-4.0067,-4.0067,-3.9975,-3.9785,-3.9368,-3.8921,-3.8485,-3.8485,-3.8342,-3.8091,-3.8347,-3.8311,-3.8113,-3.8719,-3.8881,-3.8652,-3.8065,-3.7713,-3.7345,-3.5917,-3.5224,-3.4894,-3.41,-3.3807,-3.3807,-3.3807,-3.3921,-3.4049,-3.3855,-3.3807,-3.3807,-3.3807,-3.3807,-3.3807,-3.3807,-3.2797,-3.1696,-3.147,-2.9751,-2.8301,-2.8877,-2.8374,-2.7798,-2.7798,-2.6898,-2.6458,-2.7596,-2.7798,-2.8136,-2.917,-2.9629,-2.9812,-2.9721,-3.0687,-3.1195,-3.0613,-3.1048,-3.1085,-3.0283,-3.0233,-3.0072,-2.962,-2.9761,-2.9895,-2.9971,-2.9471,-2.9886,-3.142,-2.9919,-2.8922,-2.863,-2.747,-2.6723,-2.637,-2.659,-2.6691,-2.6691,-2.6691,-2.6691,-2.6691,-2.6691,-2.6691,-2.6691,-2.6691,-2.6691,-2.6691,-2.6691,-2.6691,-2.6691,-2.6691,-2.6691,-2.6691,-4.4159,-4.4704,-4.5029,-4.414,-4.4006,-4.4312,-4.5163,-4.3615,-4.2628,-4.3493,-4.2611,-4.2139,-4.2725,-4.203,-4.1533,-4.1514,-4.0788,-4.0205,-3.9924,-3.9903,-3.9785,-3.9526,-3.9514,-3.9514,-3.9514,-3.9514,-3.9514,-3.9495,-3.9495,-3.9063,-3.8194,-3.8194,-3.8047,-3.7848,-3.8711,-3.8931,-3.8689,-3.8707,-3.8707,-3.8707,-3.8689,-3.8212,-3.7419,-3.6578,-3.5752,-3.4894,-3.41,-3.3807,-3.3807,-3.3807,-3.3788,-3.3788,-3.3807,-3.3807,-3.3807,-3.3807,-3.3807,-3.3807,-3.3807,-3.322,-3.2381,-3.1599,-3.0173,-2.8987,-2.9005,-2.8374,-2.7798,-2.7798,-2.778,-2.778,-2.7798,-2.7798,-2.8319,-2.9934,-2.9537,-2.9574,-3.1146,-3.1397,-3.1397,-3.1397,-3.1397,-3.1085,-3.0283,-3.0305,-3.0092,-2.9355,-2.9419,-2.9971,-3.1006,-2.938,-2.9127,-3.0662,-2.9145,-2.7893,-2.704,-2.6942,-2.6486,-2.5625,-2.6353,-2.6691,-2.6691,-2.6691,-2.6691,-2.6691,-2.6691,-2.6691,-2.6691,-2.6691,-2.6691,-2.6691,-2.6691,-2.6691,-2.6691,-2.6691,-2.6691,-2.6691,-4.4159,-4.4704,-4.4968,-4.3916,-4.4167,-4.4576,-4.467,-4.368,-4.28,-4.2467,-4.165,-4.0948,-4.0589,-4.079,-4.0941,-4.0941,-4.0223,-3.9717,-3.9635,-3.9635,-3.9599,-3.9495,-3.9514,-3.9514,-3.9514,-3.9514,-3.9414,-3.9232,-3.9414,-3.9264,-3.8809,-3.8809,-3.8665,-3.8438,-3.8711,-3.878,-3.8707,-3.8707,-3.8707,-3.8707,-3.8707,-3.856,-3.823,-3.7419,-3.696,-3.6523,-3.5114,-3.4619,-3.4527,-3.399,-3.3807,-3.3807,-3.3807,-3.3807,-3.3807,-3.3807,-3.3807,-3.3807,-3.3807,-3.322,-3.2399,-3.1599,-3.0191,-2.8858,-2.8319,-2.797,-2.7952,-2.8503,-2.775,-2.7328,-2.8418,-2.7732,-2.7512,-2.9115,-2.917,-2.9372,-3.043,-3.1048,-3.1397,-3.1397,-3.188,-3.1821,-3.0779,-3.1219,-3.1273,-3.0566,-3.0619,-3.047,-3.004,-2.9004,-2.8834,-2.9782,-2.8253,-2.7502,-2.7691,-2.6571,-2.6132,-2.6353,-2.659,-2.6691,-2.6691,-2.6691,-2.6691,-2.6691,-2.6691,-2.6691,-2.6691,-2.6691,-2.6691,-2.6691,-2.6691,-2.6691,-2.6691,-2.6691,-2.6691,-2.6691,-4.4201,-4.4592,-4.4735,-4.4014,-4.4052,-4.4114,-4.3974,-4.3418,-4.281,-4.2268,-4.1684,-4.111,-4.0612,-4.0458,-4.0363,-4.0272,-3.9796,-3.9464,-3.9363,-3.935,-3.9311,-3.9192,-3.9192,-3.9192,-3.9192,-3.9192,-3.9129,-3.895,-3.9129,-3.9115,-3.895,-3.895,-3.8866,-3.8707,-3.8707,-3.8707,-3.8707,-3.8707,-3.8707,-3.8707,-3.8707,-3.8707,-3.8615,-3.7823,-3.7492,-3.7327,-3.5973,-3.5481,-3.5408,-3.4908,-3.4523,-3.4252,-3.4252,-3.4045,-3.3807,-3.3807,-3.3807,-3.3807,-3.3807,-3.344,-3.2871,-3.2045,-3.065,-2.9152,-2.8044,-2.7798,-2.7934,-2.8448,-2.775,-2.7365,-2.8363,-2.7978,-2.7831,-2.884,-2.9244,-2.9629,-3.0136,-3.1146,-3.1623,-3.1017,-3.1571,-3.1586,-3.0555,-3.0689,-3.0932,-3.109,-3.0501,-2.9968,-2.9506,-2.8799,-2.8576,-2.8973,-2.7689,-2.7043,-2.7131,-2.6386,-2.6116,-2.6285,-2.6573,-2.6691,-2.6691,-2.6691,-2.6691,-2.6691,-2.6691,-2.6691,-2.6691,-2.6691,-2.6691,-2.6691,-2.6691,-2.6691,-2.6691,-2.6691,-2.6691,-2.6742,-4.4247,-4.4397,-4.4383,-4.4388,-4.3704,-4.3183,-4.3216,-4.2909,-4.2662,-4.2671,-4.2408,-4.2213,-4.2213,-4.0873,-3.9871,-3.9626,-3.9508,-3.9356,-3.9161,-3.911,-3.8964,-3.8723,-3.8707,-3.8707,-3.8707,-3.8707,-3.8707,-3.8707,-3.8707,-3.8707,-3.8707,-3.8707,-3.8707,-3.8707,-3.8707,-3.8707,-3.8707,-3.8707,-3.8707,-3.8707,-3.8707,-3.8707,-3.8615,-3.7878,-3.7584,-3.7474,-3.667,-3.6376,-3.6358,-3.6321,-3.5771,-3.5078,-3.5023,-3.4491,-3.3862,-3.3825,-3.3807,-3.3807,-3.3807,-3.3807,-3.3605,-3.2803,-3.1335,-2.9751,-2.8301,-2.7842,-2.7761,-2.786,-2.7787,-2.775,-2.786,-2.8503,-2.9023,-2.9078,-2.9769,-3.0301,-3.0356,-3.1579,-3.1933,-3.0424,-3.0685,-3.0627,-2.9728,-2.9242,-2.953,-3.0883,-2.9484,-2.8816,-2.9386,-2.8765,-2.8352,-2.8218,-2.7365,-2.655,-2.5773,-2.6335,-2.6302,-2.5677,-2.637,-2.6691,-2.6691,-2.6691,-2.6691,-2.6691,-2.6691,-2.6691,-2.6691,-2.6691,-2.6691,-2.6657,-2.6657,-2.6641,-2.6624,-2.6624,-2.6657,-2.6792,-4.4247,-4.4397,-4.4332,-4.4136,-4.3908,-4.372,-4.3467,-4.2836,-4.2384,-4.24,-4.1803,-4.137,-4.137,-4.104,-4.0793,-4.0729,-3.9597,-3.9124,-3.9676,-3.9142,-3.8765,-3.8707,-3.8707,-3.8707,-3.8707,-3.8707,-3.8707,-3.8707,-3.8707,-3.8707,-3.8707,-3.8707,-3.8707,-3.8707,-3.8707,-3.8707,-3.8707,-3.8707,-3.8707,-3.8707,-3.8707,-3.8707,-3.8689,-3.8487,-3.8414,-3.8303,-3.7511,-3.7217,-3.7125,-3.6505,-3.6156,-3.5881,-3.5206,-3.4876,-3.4601,-3.399,-3.3807,-3.3807,-3.3807,-3.3807,-3.3605,-3.2803,-3.0931,-2.9354,-2.9586,-2.8209,-2.7236,-2.8455,-2.7739,-2.7273,-2.8491,-2.8877,-2.9207,-2.9824,-3.0595,-3.1329,-3.194,-3.1657,-3.1247,-3.0865,-3.0694,-3.0194,-2.9121,-2.9992,-3.0413,-2.9919,-3.0058,-2.9696,-2.8629,-2.8423,-2.8012,-2.7331,-2.6465,-2.6146,-2.6471,-2.6048,-2.6065,-2.6437,-2.6607,-2.6691,-2.6691,-2.6691,-2.6691,-2.6691,-2.6691,-2.6691,-2.6691,-2.6691,-2.6522,-2.6245,-2.6245,-2.6052,-2.5781,-2.5781,-2.6106,-2.6615,-4.3828,-4.3977,-4.3949,-4.3795,-4.3781,-4.3586,-4.3036,-4.2892,-4.2708,-4.2359,-4.2249,-4.2066,-4.1682,-4.1662,-4.1662,-4.1662,-4.0175,-3.9423,-3.9863,-3.9148,-3.8707,-3.8707,-3.8707,-3.8707,-3.8707,-3.8707,-3.8707,-3.8707,-3.8707,-3.8707,-3.8707,-3.8707,-3.8707,-3.8707,-3.8707,-3.8707,-3.8707,-3.8707,-3.8707,-3.8707,-3.8707,-3.8707,-3.8707,-3.8707,-3.8707,-3.8652,-3.8212,-3.8046,-3.7973,-3.7533,-3.7147,-3.6776,-3.6285,-3.5899,-3.5426,-3.4582,-3.41,-3.3807,-3.3807,-3.3807,-3.3605,-3.2803,-3.161,-3.0564,-3.0283,-2.8895,-2.7831,-2.8345,-2.7769,-2.742,-2.8301,-2.9042,-2.9684,-3.0136,-3.1182,-3.2049,-3.2338,-3.1906,-3.1351,-3.0836,-3.0183,-2.9508,-2.886,-2.9157,-2.943,-2.9455,-2.9214,-2.8818,-2.8236,-2.786,-2.7434,-2.6959,-2.6501,-2.6385,-2.6691,-2.6302,-2.6302,-2.6691,-2.6691,-2.6691,-2.6691,-2.6691,-2.6691,-2.6691,-2.6691,-2.6691,-2.6691,-2.6691,-2.647,-2.6104,-2.6104,-2.5854,-2.5503,-2.5503,-2.5921,-2.6584,-4.3332,-4.3515,-4.3515,-4.3515,-4.3515,-4.3276,-4.2598,-4.3057,-4.324,-4.2561,-4.3075,-4.3185,-4.2396,-4.2304,-4.2249,-4.2139,-4.0763,-3.9937,-4.0065,-3.9331,-3.8836,-3.8707,-3.8707,-3.8707,-3.8707,-3.8707,-3.8707,-3.8707,-3.8707,-3.8707,-3.8707,-3.8707,-3.8707,-3.8707,-3.8707,-3.8707,-3.8707,-3.8707,-3.8707,-3.8707,-3.8707,-3.8707,-3.8707,-3.8707,-3.8707,-3.8707,-3.8707,-3.8707,-3.8707,-3.8707,-3.8248,-3.7658,-3.7547,-3.7033,-3.6303,-3.5445,-3.4619,-3.3954,-3.3825,-3.3807,-3.3642,-3.2949,-3.2693,-3.2234,-3.087,-2.9849,-2.8987,-2.8301,-2.8062,-2.8026,-2.8136,-2.9384,-3.0399,-3.0479,-3.173,-3.2588,-3.2246,-3.2022,-3.151,-3.0538,-2.938,-2.8636,-2.8541,-2.7889,-2.7888,-2.8956,-2.7927,-2.7465,-2.7896,-2.7266,-2.6893,-2.6859,-2.6859,-2.6809,-2.6691,-2.6691,-2.6691,-2.6691,-2.6691,-2.6691,-2.6691,-2.6691,-2.6691,-2.6691,-2.6691,-2.6691,-2.6691,-2.6691,-2.6436,-2.5998,-2.5998,-2.5726,-2.5313,-2.5313,-2.5744,-2.6451,-4.3332,-4.3515,-4.3515,-4.3515,-4.3515,-4.346,-4.3331,-4.3423,-4.346,-4.3331,-4.3423,-4.3185,-4.2396,-4.2304,-4.2029,-4.1352,-4.0432,-4.0194,-4.0873,-4.0157,-3.9405,-3.8726,-3.8707,-3.8707,-3.8707,-3.8707,-3.8707,-3.8707,-3.8707,-3.8707,-3.8707,-3.8707,-3.8707,-3.8707,-3.8707,-3.8707,-3.8707,-3.8707,-3.8707,-3.8707,-3.8707,-3.8707,-3.8707,-3.8707,-3.8707,-3.8707,-3.8707,-3.8707,-3.8707,-3.8707,-3.8615,-3.8395,-3.7713,-3.7419,-3.7162,-3.634,-3.5481,-3.4674,-3.399,-3.3807,-3.377,-3.3642,-3.3096,-3.2528,-3.2271,-3.1091,-2.9989,-2.9861,-2.928,-2.9023,-2.9696,-3.0577,-3.1345,-3.1733,-3.2581,-3.3063,-3.2742,-3.132,-3.0282,-3.0096,-2.8586,-2.75,-2.7369,-2.7837,-2.7926,-2.74,-2.7741,-2.7691,-2.713,-2.6977,-2.6842,-2.6742,-2.6742,-2.6725,-2.6691,-2.6691,-2.6691,-2.6691,-2.6691,-2.6691,-2.6691,-2.6691,-2.6691,-2.6691,-2.6691,-2.6691,-2.6691,-2.6691,-2.6263,-2.5596,-2.5596,-2.5141,-2.4492,-2.4492,-2.4906,-2.5652,-4.3441,-4.3515,-4.3515,-4.3515,-4.3515,-4.3515,-4.3515,-4.3515,-4.3332,-4.291,-4.2837,-4.2543,-4.1754,-4.1662,-4.1515,-4.1132,-4.0763,-4.0524,-4.0469,-3.9698,-3.9093,-3.8726,-3.8707,-3.8707,-3.8707,-3.8707,-3.8707,-3.8707,-3.8707,-3.8707,-3.8707,-3.8707,-3.8707,-3.8707,-3.8707,-3.8707,-3.8707,-3.8707,-3.8707,-3.8707,-3.8707,-3.8707,-3.8707,-3.8707,-3.8707,-3.8707,-3.8707,-3.8707,-3.8707,-3.8707,-3.8707,-3.8634,-3.8267,-3.8138,-3.7991,-3.718,-3.6028,-3.4821,-3.4027,-3.3807,-3.3807,-3.3807,-3.3532,-3.3115,-3.2693,-3.2032,-3.1366,-3.0944,-3.0558,-3.0411,-3.0779,-3.1349,-3.1842,-3.2067,-3.2631,-3.2762,-3.2036,-3.0816,-2.9779,-2.9169,-2.7968,-2.7152,-2.7055,-2.7381,-2.7416,-2.6976,-2.7265,-2.7266,-2.6809,-2.6792,-2.6758,-2.6691,-2.6691,-2.6691,-2.6691,-2.6691,-2.6691,-2.6691,-2.6691,-2.6691,-2.6691,-2.6691,-2.6691,-2.6691,-2.6691,-2.6691,-2.6691,-2.6691,-2.6228,-2.5503,-2.5503,-2.502,-2.4327,-2.4718,-2.5302,-2.6024,-4.3515,-4.3515,-4.3515,-4.3515,-4.3515,-4.3515,-4.3515,-4.3515,-4.3277,-4.2653,-4.2415,-4.1992,-4.1187,-4.093,-4.0747,-4.0563,-4.0526,-4.0286,-3.9662,-3.9038,-3.8707,-3.8707,-3.8707,-3.8707,-3.8707,-3.8707,-3.8707,-3.8707,-3.8707,-3.8707,-3.8707,-3.8707,-3.8707,-3.8707,-3.8707,-3.8707,-3.8707,-3.8707,-3.8707,-3.8707,-3.8707,-3.8707,-3.8707,-3.8707,-3.8707,-3.8707,-3.8707,-3.8707,-3.8707,-3.8707,-3.8707,-3.8707,-3.8707,-3.8707,-3.8579,-3.797,-3.6743,-3.5353,-3.4357,-3.4082,-3.4027,-3.3844,-3.3807,-3.3642,-3.3023,-3.2876,-3.2651,-3.1843,-3.1609,-3.1571,-3.1571,-3.1792,-3.1964,-3.1891,-3.2181,-3.2054,-3.0953,-3.0133,-2.9303,-2.8405,-2.7582,-2.707,-2.6975,-2.6992,-2.6942,-2.6859,-2.6842,-2.6809,-2.6708,-2.6691,-2.6691,-2.6691,-2.6691,-2.6691,-2.6691,-2.6691,-2.6691,-2.6691,-2.6691,-2.6691,-2.6691,-2.6691,-2.6793,-2.6945,-2.6776,-2.6911,-2.7233,-2.7029,-2.6576,-2.6021,-2.6021,-2.5513,-2.4856,-2.5379,-2.5918,-2.651,-4.3515,-4.3515,-4.3515,-4.3515,-4.3515,-4.3515,-4.3515,-4.3515,-4.3478,-4.3423,-4.2763,-4.1992,-4.1187,-4.0432,-3.968,-3.8946,-3.8891,-3.8854,-3.8799,-3.8726,-3.8707,-3.8707,-3.8707,-3.8707,-3.8707,-3.8707,-3.8707,-3.8707,-3.8707,-3.8707,-3.8707,-3.8707,-3.8707,-3.8707,-3.8707,-3.8707,-3.8707,-3.8707,-3.8707,-3.8707,-3.8707,-3.8707,-3.8707,-3.8707,-3.8707,-3.8707,-3.8707,-3.8707,-3.8707,-3.8707,-3.8707,-3.8707,-3.8707,-3.8707,-3.8689,-3.8634,-3.7991,-3.6945,-3.5353,-3.4912,-3.4729,-3.399,-3.3807,-3.377,-3.3733,-3.3715,-3.3476,-3.2674,-3.2261,-3.2063,-3.2063,-3.1825,-3.156,-3.1308,-3.1296,-3.0918,-2.9782,-2.8988,-2.8454,-2.832,-2.7582,-2.7038,-2.6926,-2.6909,-2.6859,-2.6725,-2.6708,-2.6708,-2.6691,-2.6691,-2.6691,-2.6691,-2.6691,-2.6691,-2.6691,-2.6691,-2.6691,-2.6691,-2.6691,-2.6691,-2.6691,-2.6691,-2.708,-2.7672,-2.6996,-2.752,-2.8773,-2.8044,-2.7638,-2.7543,-2.7543,-2.7005,-2.6241,-2.6287,-2.6349,-2.651,-4.3515,-4.3515,-4.3515,-4.3515,-4.3515,-4.3515,-4.3515,-4.3515,-4.3331,-4.2818,-4.2066,-4.1425,-4.1132,-3.9937,-3.9239,-3.9423,-3.9001,-3.8707,-3.8707,-3.8707,-3.8707,-3.8707,-3.8707,-3.8707,-3.8707,-3.8707,-3.8707,-3.8707,-3.8707,-3.8707,-3.8707,-3.8707,-3.8707,-3.8707,-3.8707,-3.8707,-3.8707,-3.8707,-3.8707,-3.8707,-3.8707,-3.8707,-3.8707,-3.8707,-3.8707,-3.8707,-3.8707,-3.8707,-3.8707,-3.8707,-3.8707,-3.8707,-3.8707,-3.8707,-3.8707,-3.8707,-3.8487,-3.7991,-3.6853,-3.5775,-3.4821,-3.4009,-3.3807,-3.3807,-3.3807,-3.3807,-3.3643,-3.314,-3.2925,-3.2777,-3.2565,-3.2256,-3.1855,-3.1281,-3.1027,-3.0404,-2.9006,-2.8575,-2.8164,-2.7569,-2.7227,-2.6974,-2.6792,-2.6792,-2.6742,-2.6691,-2.6691,-2.6691,-2.6691,-2.6691,-2.6691,-2.6691,-2.6691,-2.6691,-2.6691,-2.6691,-2.6691,-2.6691,-2.6691,-2.6691,-2.6708,-2.7182,-2.7536,-2.7807,-2.8027,-2.8468,-2.8958,-2.836,-2.7957,-2.7664,-2.7374,-2.6922,-2.6464,-2.6857,-2.7011,-2.7119,-4.3515,-4.3515,-4.3515,-4.3515,-4.3515,-4.3515,-4.3515,-4.3515,-4.3221,-4.2415,-4.159,-4.1003,-4.0763,-3.9515,-3.8927,-3.9478,-3.9019,-3.8707,-3.8707,-3.8707,-3.8707,-3.8707,-3.8707,-3.8707,-3.8707,-3.8707,-3.8707,-3.8707,-3.8707,-3.8707,-3.8707,-3.8707,-3.8707,-3.8707,-3.8707,-3.8707,-3.8707,-3.8707,-3.8707,-3.8707,-3.8707,-3.8707,-3.8707,-3.8707,-3.8707,-3.8707,-3.8707,-3.8707,-3.8707,-3.8707,-3.8707,-3.8707,-3.8707,-3.8707,-3.8707,-3.8707,-3.8707,-3.8524,-3.7731,-3.6486,-3.5206,-3.438,-3.4192,-3.4119,-3.3862,-3.3721,-3.3583,-3.335,-3.3124,-3.2908,-3.2684,-3.2369,-3.19,-3.1149,-3.0855,-3.0162,-2.861,-2.8403,-2.806,-2.7142,-2.7007,-2.6942,-2.6792,-2.6725,-2.6691,-2.6691,-2.6691,-2.6691,-2.6691,-2.6691,-2.6691,-2.6691,-2.6691,-2.6691,-2.6691,-2.6691,-2.6691,-2.6691,-2.6691,-2.6826,-2.7063,-2.757,-2.806,-2.8534,-2.8711,-2.9042,-2.9427,-2.8712,-2.8323,-2.8116,-2.7793,-2.7411,-2.7072,-2.7534,-2.7703,-2.778,-4.3515,-4.3515,-4.3515,-4.3515,-4.3515,-4.3515,-4.3515,-4.3515,-4.3221,-4.2415,-4.159,-4.0799,-3.9992,-3.9184,-3.8707,-3.8707,-3.8707,-3.8707,-3.8707,-3.8707,-3.8707,-3.8707,-3.8707,-3.8707,-3.8707,-3.8707,-3.8707,-3.8707,-3.8707,-3.8707,-3.8707,-3.8707,-3.8707,-3.8707,-3.8707,-3.8707,-3.8707,-3.8707,-3.8707,-3.8707,-3.8707,-3.8707,-3.8707,-3.8707,-3.8707,-3.8707,-3.8707,-3.8707,-3.8707,-3.8707,-3.8707,-3.8707,-3.8707,-3.8707,-3.8707,-3.8707,-3.8707,-3.8524,-3.7731,-3.6942,-3.6101,-3.5224,-3.5004,-3.4784,-3.399,-3.3536,-3.3306,-3.3291,-3.2749,-3.2301,-3.2301,-3.202,-3.1558,-3.0817,-3.0714,-3.0162,-2.8627,-2.8403,-2.8094,-2.7204,-2.7056,-2.6975,-2.6909,-2.6775,-2.6725,-2.6691,-2.6691,-2.6691,-2.6691,-2.6691,-2.6691,-2.6708,-2.6708,-2.6708,-2.6708,-2.6708,-2.6708,-2.6708,-2.6708,-2.7097,-2.7807,-2.7824,-2.8652,-3.0036,-2.8824,-2.9148,-3.039,-2.9207,-2.8864,-2.9097,-2.9113,-2.8803,-2.8411,-2.8411,-2.8411,-2.8411,-4.3515,-4.3515,-4.3515,-4.3515,-4.3515,-4.3515,-4.3515,-4.3515,-4.3221,-4.2415,-4.159,-4.0799,-3.9992,-3.9184,-3.8927,-3.9478,-3.9038,-3.8707,-3.8707,-3.8707,-3.8707,-3.8707,-3.8707,-3.8707,-3.8707,-3.8707,-3.8707,-3.8707,-3.9276,-3.9533,-3.9533,-3.9533,-3.9533,-3.9515,-3.8946,-3.8707,-3.8707,-3.8707,-3.8707,-3.8707,-3.8707,-3.8707,-3.8707,-3.8707,-3.8707,-3.8707,-3.8707,-3.8707,-3.8707,-3.8707,-3.8707,-3.8707,-3.8707,-3.8707,-3.8707,-3.8707,-3.8707,-3.8652,-3.8414,-3.8175,-3.7514,-3.55,-3.4582,-3.4028,-3.3549,-3.3379,-3.3172,-3.2702,-3.2437,-3.2214,-3.1984,-3.1856,-3.1558,-3.0817,-3.0714,-3.0334,-2.9317,-2.9179,-2.8835,-2.7912,-2.7776,-2.7504,-2.6843,-2.7199,-2.7266,-2.6725,-2.6691,-2.6691,-2.6691,-2.6691,-2.6945,-2.7452,-2.7469,-2.774,-2.8316,-2.7757,-2.7469,-2.7469,-2.7469,-2.7892,-2.8636,-2.8308,-2.8693,-2.9609,-2.9428,-2.9598,-2.9951,-2.9243,-2.9021,-2.9067,-2.8748,-2.8517,-2.8411,-2.8411,-2.8411,-2.8387,-4.3441,-4.3515,-4.3515,-4.3515,-4.3515,-4.3515,-4.3515,-4.3222,-4.2745,-4.1937,-4.113,-4.0451,-3.9937,-3.946,-3.9368,-3.9845,-3.9166,-3.8707,-3.8707,-3.8707,-3.8707,-3.8707,-3.8707,-3.8707,-3.8707,-3.9019,-3.9166,-3.9166,-3.9974,-4.0212,-3.9916,-4.023,-4.0194,-3.9882,-3.9717,-3.9478,-3.9166,-3.9166,-3.9001,-3.8707,-3.8707,-3.8707,-3.8707,-3.8707,-3.8707,-3.8707,-3.8707,-3.8707,-3.8707,-3.8707,-3.8707,-3.8707,-3.8707,-3.8707,-3.8707,-3.8707,-3.8707,-3.8707,-3.8707,-3.8358,-3.7627,-3.6115,-3.5144,-3.4316,-3.3495,-3.3093,-3.2781,-3.2369,-3.2179,-3.2037,-3.1837,-3.18,-3.1645,-3.1196,-3.1127,-3.0833,-3.0023,-2.9902,-2.9557,-2.8647,-2.851,-2.827,-2.7708,-2.8028,-2.8095,-2.7638,-2.7622,-2.7622,-2.7622,-2.7622,-2.7807,-2.8264,-2.8281,-2.8501,-2.8993,-2.8805,-2.8551,-2.8281,-2.8281,-2.8687,-2.9431,-2.8962,-2.9148,-2.9806,-2.9599,-2.9528,-2.9483,-2.9036,-2.8826,-2.8779,-2.8517,-2.8372,-2.8323,-2.8323,-2.8275,-2.8226,-4.324,-4.3404,-4.3404,-4.3404,-4.346,-4.3478,-4.3387,-4.2818,-4.2121,-4.1297,-4.0579,-4.0084,-4.001,-4.001,-4.0029,-4.0102,-3.9441,-3.9001,-3.8927,-3.8854,-3.8817,-3.8817,-3.8817,-3.8817,-3.8817,-3.9533,-3.9953,-4.001,-4.0818,-4.0836,-4.012,-4.0873,-4.0818,-4.0139,-4.0818,-4.0653,-3.99,-3.99,-3.9441,-3.8707,-3.8707,-3.8707,-3.8707,-3.8707,-3.8707,-3.8707,-3.8707,-3.8707,-3.8707,-3.8707,-3.8707,-3.8707,-3.8707,-3.8707,-3.8707,-3.8707,-3.8707,-3.8692,-3.8661,-3.7838,-3.6979,-3.6874,-3.6224,-3.5196,-3.365,-3.2786,-3.2283,-3.2266,-3.2002,-3.18,-3.1764,-3.1781,-3.1781,-3.1781,-3.1781,-3.1503,-3.0706,-3.0585,-3.0275,-2.9399,-2.9223,-2.9169,-2.9101,-2.9029,-2.9027,-2.9094,-2.9044,-2.8993,-2.8993,-2.8993,-2.9027,-2.9094,-2.9094,-2.9128,-2.9196,-2.9816,-2.9764,-2.9039,-2.9039,-2.9391,-3.0058,-2.951,-2.9675,-3.0314,-2.9438,-2.9044,-2.8997,-2.8573,-2.8411,-2.8411,-2.8411,-2.8323,-2.821,-2.821,-2.8128,-2.7995,-4.2525,-4.2561,-4.2561,-4.2561,-4.3075,-4.3277,-4.2653,-4.2947,-4.2947,-4.2158,-4.1882,-4.1534,-4.091,-4.0838,-4.1093,-4.1717,-4.1625,-4.1258,-4.0618,-3.9992,-3.9643,-3.9643,-3.9643,-3.9643,-3.9643,-3.9808,-4.0212,-4.0838,-4.1662,-4.1956,-4.1772,-4.1956,-4.1956,-4.1754,-4.1297,-4.0653,-3.99,-3.99,-3.9441,-3.8707,-3.8707,-3.8707,-3.8707,-3.8707,-3.8707,-3.8707,-3.8707,-3.8707,-3.8707,-3.8707,-3.8707,-3.8707,-3.8707,-3.8707,-3.8707,-3.8707,-3.8707,-3.8627,-3.832,-3.8041,-3.7618,-3.6664,-3.5669,-3.4659,-3.3617,-3.2826,-3.2214,-3.1948,-3.1838,-3.1781,-3.1671,-3.1635,-3.1634,-3.1576,-3.1574,-3.1487,-3.1314,-3.128,-3.0969,-3.0091,-2.9969,-2.9712,-2.908,-2.9011,-2.9247,-2.982,-2.9331,-2.8993,-2.8993,-2.8993,-2.9264,-2.9837,-2.9871,-3.0142,-3.0717,-3.052,-3.0039,-2.9303,-2.9303,-2.9525,-2.9847,-2.8785,-2.8716,-2.9355,-2.8795,-2.8549,-2.8549,-2.8444,-2.8411,-2.8411,-2.8411,-2.8323,-2.821,-2.821,-2.8128,-2.798,-4.1662,-4.2047,-4.2304,-4.2304,-4.2965,-4.3368,-4.2928,-4.2892,-4.2782,-4.2359,-4.1974,-4.1717,-4.168,-4.168,-4.1846,-4.2268,-4.1956,-4.1535,-4.1132,-4.0726,-4.0304,-3.9918,-4.0267,-4.0469,-4.0469,-4.0855,-4.1258,-4.168,-4.2488,-4.2671,-4.2304,-4.269,-4.2671,-4.2304,-4.2268,-4.1791,-4.102,-4.0634,-4.001,-3.9239,-3.8854,-3.8707,-3.8707,-3.8707,-3.8707,-3.8707,-3.8707,-3.8707,-3.8707,-3.8707,-3.8707,-3.8707,-3.8707,-3.8707,-3.8707,-3.8707,-3.8562,-3.8368,-3.817,-3.7826,-3.7362,-3.6658,-3.5666,-3.4579,-3.3578,-3.2631,-3.1912,-3.1707,-3.1668,-3.1632,-3.1576,-3.154,-3.1538,-3.1517,-3.1498,-3.1479,-3.1406,-3.1406,-3.1215,-3.0745,-3.0675,-3.0503,-3.0093,-3.0059,-3.0192,-3.0598,-3.026,-3.0059,-3.0059,-3.0059,-3.0245,-3.0615,-3.0404,-3.0473,-3.0858,-3.0393,-2.9858,-2.9248,-2.9478,-2.9652,-2.9772,-2.8914,-2.8742,-2.9074,-2.8597,-2.8411,-2.8411,-2.8411,-2.8411,-2.8411,-2.8411,-2.8275,-2.8088,-2.8088,-2.7965,-2.779,-4.0967,-4.1754,-4.2304,-4.2304,-4.2965,-4.346,-4.3331,-4.2837,-4.2506,-4.2506,-4.1919,-4.1772,-4.2433,-4.2506,-4.2506,-4.2506,-4.1901,-4.1499,-4.1499,-4.137,-4.102,-4.0341,-4.0946,-4.1242,-4.1095,-4.2029,-4.2506,-4.2506,-4.3167,-4.3149,-4.2525,-4.3185,-4.313,-4.2525,-4.3185,-4.3039,-4.2249,-4.1425,-4.0653,-3.9827,-3.9019,-3.8707,-3.8707,-3.8707,-3.8707,-3.8707,-3.8707,-3.8707,-3.8707,-3.8707,-3.8707,-3.8692,-3.8611,-3.8596,-3.8596,-3.8515,-3.8252,-3.7982,-3.7913,-3.7377,-3.6841,-3.6664,-3.58,-3.4733,-3.3772,-3.2614,-3.1713,-3.1534,-3.1498,-3.1498,-3.1462,-3.1462,-3.1462,-3.146,-3.146,-3.1404,-3.1293,-3.1276,-3.1254,-3.121,-3.119,-3.119,-3.119,-3.119,-3.119,-3.119,-3.119,-3.119,-3.119,-3.119,-3.1171,-3.1075,-3.0699,-3.0456,-3.0393,-2.9924,-2.9483,-2.9097,-2.9416,-2.9566,-2.9544,-2.9159,-2.8974,-2.8951,-2.8573,-2.8411,-2.8411,-2.8411,-2.8411,-2.8411,-2.8411,-2.8241,-2.798,-2.7955,-2.779,-2.76,-4.1077,-4.1754,-4.2304,-4.2304,-4.2965,-4.3276,-4.2561,-4.2947,-4.3332,-4.3332,-4.3239,-4.3222,-4.3331,-4.3332,-4.3332,-4.3332,-4.3239,-4.3167,-4.3167,-4.2525,-4.2084,-4.1974,-4.2084,-4.1809,-4.1113,-4.2561,-4.3332,-4.3332,-4.346,-4.3441,-4.3332,-4.346,-4.3441,-4.3332,-4.346,-4.3039,-4.2249,-4.1425,-4.0653,-3.9827,-3.9019,-3.8707,-3.8707,-3.8707,-3.8707,-3.8707,-3.8707,-3.8707,-3.8707,-3.8707,-3.8707,-3.8643,-3.8285,-3.8168,-3.8118,-3.7756,-3.7632,-3.7505,-3.717,-3.6902,-3.6643,-3.6343,-3.5599,-3.4835,-3.4571,-3.3464,-3.2286,-3.1634,-3.1498,-3.1462,-3.1351,-3.1332,-3.1312,-3.1249,-3.123,-3.123,-3.121,-3.121,-3.121,-3.119,-3.119,-3.119,-3.119,-3.119,-3.119,-3.119,-3.119,-3.119,-3.119,-3.119,-3.1015,-3.0617,-3.0539,-3.0309,-2.9903,-2.9438,-2.9166,-2.9113,-2.8748,-2.8589,-2.8589,-2.8517,-2.8493,-2.8493,-2.8436,-2.8411,-2.8411,-2.8411,-2.8411,-2.8411,-2.8411,-2.8241,-2.7955,-2.774,-2.7625,-2.76,-4.0432,-4.1093,-4.1772,-4.2213,-4.2965,-4.3386,-4.302,-4.3276,-4.3515,-4.3515,-4.3515,-4.3515,-4.3515,-4.3515,-4.3515,-4.3515,-4.3515,-4.3515,-4.3515,-4.3167,-4.2763,-4.2323,-4.2304,-4.2139,-4.1791,-4.2029,-4.2598,-4.3515,-4.3515,-4.3515,-4.3496,-4.3039,-4.3057,-4.3478,-4.302,-4.2873,-4.291,-4.2121,-4.1313,-4.0506,-3.9698,-3.9093,-3.8707,-3.8707,-3.8707,-3.8707,-3.8707,-3.8707,-3.8676,-3.8433,-3.8368,-3.8285,-3.7896,-3.7756,-3.7721,-3.756,-3.734,-3.7132,-3.6939,-3.6678,-3.6385,-3.6148,-3.5736,-3.5248,-3.4699,-3.4126,-3.3349,-3.2176,-3.1939,-3.1803,-3.132,-3.1252,-3.1232,-3.121,-3.119,-3.119,-3.119,-3.119,-3.119,-3.119,-3.119,-3.119,-3.119,-3.119,-3.119,-3.119,-3.119,-3.1075,-3.0821,-3.0818,-3.058,-3.0118,-2.9843,-2.9623,-2.9416,-2.8943,-2.87,-2.87,-2.8517,-2.8411,-2.8411,-2.8411,-2.8411,-2.8411,-2.8411,-2.8411,-2.8411,-2.8411,-2.8411,-2.8411,-2.8411,-2.8241,-2.7955,-2.77,-2.76,-2.76]},{"header":{"parameterUnit":"m.s-1","parameterCategory":1,"la1":30.6,"la2":28.766,"lo1":-90.7593,"lo2":-88.6598,"dy":0.0162,"dx":0.0183,"nx":116,"ny":114,"refTime":"2024-06-02T00:00:00:Z","depth":0,"parameterNumber":3,"parameterNumberName":"V-component_of_WINDS"},"data":[0.0,0.0,0.0,0.0,0.0,0.0,0.0,0.0,0.0,0.0,0.0,0.0,0.0,0.0,0.0,0.0,0.0,0.0,0.0,0.0,0.0,0.0,0.0,0.0,0.0,0.0,0.0,0.0,0.0,0.0,0.0,0.0,0.0,0.0,0.0,0.0,0.0,0.0,0.0,0.0,0.0,0.0,0.0,0.0,0.0,0.0,0.0,0.0,0.0,0.0,0.0,0.0,0.0,0.0,0.0,0.0,0.0,0.0,0.0,0.0,0.0,0.0,0.0,0.0,0.0,0.0,0.0,0.0,0.0,0.0,0.0,0.0,0.0,0.0,0.0,0.0,0.0,0.0,0.0,0.0,0.0,0.0,0.0,0.0,0.0,0.0,0.0,0.0,0.0,0.0,0.0,0.0,0.0,0.0,0.0,0.0,0.0,0.0,0.0,0.0,0.0,0.0,0.0,0.0,0.0,0.0,0.0,0.0,0.0,0.0,0.0,0.0,0.0,0.0,0.0,0.0,0.0,0.0,0.0,0.0,0.0,0.0,0.0,0.0,0.0,0.0,0.0,0.0,0.0,0.0,0.0,0.0,0.0,0.0,0.0,0.0,0.0,0.0,0.0,0.0,0.0,0.0,0.0,0.0,0.0,0.0,0.0,0.0,0.0,0.0,0.0,0.0,0.0,0.0,0.0,0.0,0.0,0.0,0.0,0.0,0.0,0.0,0.0,0.0,0.0,0.0,0.0,0.0,0.0,0.0,0.0,0.0,0.0,0.0,0.0,0.0,0.0,0.0,0.0,0.0,0.0,0.0,0.0,0.0,0.0,0.0,0.0,0.0,0.0,0.0,0.0,0.0,0.0,0.0,0.0,0.0,0.0,0.0,0.0,0.0,0.0,0.0,0.0,0.0,0.0,0.0,0.0,0.0,0.0,0.0,0.0,0.0,0.0,0.0,0.0,0.0,0.0,0.0,0.0,0.0,0.0,0.0,0.0,0.0,0.0,0.0,0.0,0.0,0.0,0.0,0.0,0.0,0.0,0.0,0.0,0.0,0.0,0.0,0.0,0.0,0.0,0.0,0.0,0.0,0.0,0.0,0.0,0.0,0.0,0.0,0.0,0.0,0.0,0.0,0.0,0.0,0.0,0.0,0.0,0.0,0.0,0.0,0.0,0.0,0.0,0.0,0.0,0.0,0.0,0.0,0.0,0.0,0.0,0.0,0.0,0.0,0.0,0.0,0.0,0.0,0.0,0.0,0.0,0.0,0.0,0.0,0.0,0.0,0.0,0.0,0.0,0.0,0.0,0.0,0.0,0.0,0.0,0.0,0.0,0.0,0.0,0.0,0.0,0.0,0.0,0.0,0.0,0.0,0.0,0.0,0.0,0.0,0.0,0.0,0.0,0.0,0.0,0.0,0.0,0.0,0.0,0.0,0.0,0.0,0.0,0.0,0.0,0.0,0.0,0.0,0.0,0.0,0.0,0.0,0.0,0.0,0.0,0.0,0.0,0.0,0.0,0.0,0.0,0.0,0.0,0.0,0.0,0.0,0.0,0.0,0.0,0.0,0.0,0.0,0.0,0.0,0.0,0.0,0.0,0.0,0.0,0.0,0.0,0.0,0.0,0.0,0.0,0.0,0.0,0.0,0.0,0.0,0.0,0.0,0.0,0.0,0.0,0.0,0.0,0.0,0.0,0.0,0.0,0.0,0.0,0.0,0.0,0.0,0.0,0.0,0.0,0.0,0.0,0.0,0.0,0.0,0.0,0.0,0.0,0.0,0.0,0.0,0.0,0.0,0.0,0.0,0.0,0.0,0.0,0.0,0.0,0.0,0.0,0.0,0.0,0.0,0.0,0.0,0.0,0.0,0.0,0.0,0.0,0.0,0.0,0.0,0.0,0.0,0.0,0.0,0.0,0.0,0.0,0.0,0.0,0.0,0.0,0.0,0.0,0.0,0.0,0.0,0.0,0.0,0.0,0.0,0.0,0.0,0.0,0.0,0.0,0.0,0.0,0.0,0.0,0.0,0.0,0.0,0.0,0.0,0.0,0.0,0.0,0.0,0.0,0.0,0.0,0.0,0.0,0.0,0.0,0.0,0.0,0.0,0.0,0.0,0.0,0.0,0.0,0.0,0.0,0.0,0.0,0.0,0.0,0.0,0.0,0.0,0.0,0.0,0.0,0.0,0.0,0.0,0.0,0.0,0.0,0.0,0.0,0.0,0.0,0.0,0.0,0.0,0.0,0.0,0.0,0.0,0.0,0.0,0.0,0.0,0.0,0.0,0.0,0.0,0.0,0.0,0.0,0.0,0.0,0.0,0.0,0.0,0.0,0.0,0.0,0.0,0.0,0.0,0.0,0.0,0.0,0.0,0.0,0.0,0.0,0.0,0.0,0.0,0.0,0.0,0.0,0.0,0.0,0.0,0.0,0.0,0.0,0.0,0.0,0.0,0.0,0.0,0.0,0.0,0.0,0.0,0.0,0.0,0.0,0.0,0.0,0.0,0.0,0.0,0.0,0.0,0.0,0.0,0.0,0.0,0.0,0.0,0.0,0.0,0.0,0.0,0.0,0.0,0.0,0.0,0.0,0.0,0.0,0.0,0.0,0.0,0.0,0.0,0.0,0.0,0.0,0.0,0.0,0.0,0.0,0.0,0.0,0.0,0.0,0.0,0.0,0.0,0.0,0.0,0.0,0.0,0.0,0.0,0.0,0.0,0.0,0.0,0.0,0.0,0.0,0.0,0.0,0.0,0.0,0.0,0.0,0.0,0.0,0.0,0.0,0.0,0.0,0.0,0.0,0.0,0.0,0.0,0.0,0.0,0.0,0.0,0.0,0.0,0.0,0.0,0.0,0.0,0.0,0.0,0.0,0.0,0.0,0.0,0.0,0.0,0.0,0.0,0.0,0.0,0.0,0.0,0.0,0.0,0.0,0.0,0.0,0.0,0.0,0.0,0.0,0.0,0.0,0.0,0.0,0.0,0.0,0.0,0.0,0.0,0.0,0.0,0.0,0.0,0.0,0.0,0.0,0.0,0.0,0.0,0.0,0.0,0.0,0.0,0.0,0.0,0.0,0.0,0.0,0.0,0.0,0.0,0.0,0.0,0.0,0.0,0.0,0.0,0.0,0.0,0.0,0.0,0.0,0.0,0.0,0.0,0.0,0.0,0.0,0.0,0.0,0.0,0.0,0.0,0.0,0.0,0.0,0.0,0.0,0.0,0.0,0.0,0.0,0.0,0.0,0.0,0.0,0.0,0.0,0.0,0.0,0.0,0.0,0.0,0.0,0.0,0.0,0.0,0.0,0.0,0.0,0.0,0.0,0.0,0.0,0.0,0.0,0.0,0.0,0.0,0.0,0.0,0.0,0.0,0.0,0.0,0.0,0.0,0.0,0.0,0.0,0.0,0.0,0.0,0.0,0.0,0.0,0.0,0.0,0.0,0.0,0.0,0.0,0.0,0.0,0.0,0.0,0.0,0.0,0.0,0.0,0.0,0.0,0.0,0.0,0.0,0.0,0.0,0.0,0.0,0.0,0.0,0.0,0.0,0.0,0.0,0.0,0.0,0.0,0.0,0.0,0.0,0.0,0.0,0.0,0.0,0.0,0.0,0.0,0.0,0.0,0.0,0.0,0.0,0.0,0.0,0.0,0.0,0.0,0.0,0.0,0.0,0.0,0.0,0.0,0.0,0.0,0.0,0.0,0.0,0.0,0.0,0.0,0.0,0.0,0.0,0.0,0.0,0.0,0.0,0.0,0.0,0.0,0.0,0.0,0.0,0.0,0.0,0.0,0.0,0.0,0.0,0.0,0.0,0.0,0.0,0.0,0.0,0.0,0.0,0.0,0.0,0.0,0.0,0.0,0.0,0.0,0.0,0.0,0.0,0.0,0.0,0.0,0.0,0.0,0.0,0.0,0.0,0.0,0.0,0.0,0.0,0.0,0.0,0.0,0.0,0.0,0.0,0.0,0.0,0.0,0.0,0.0,0.0,0.0,0.0,0.0,0.0,0.0,0.0,0.0,0.0,0.0,0.0,0.0,0.0,0.0,0.0,0.0,0.0,0.0,0.0,0.0,0.0,0.0,0.0,0.0,0.0,0.0,0.0,0.0,0.0,0.0,0.0,0.0,0.0,0.0,0.0,0.0,0.0,0.0,0.0,0.0,0.0,0.0,0.0,0.0,0.0,0.0,0.0,0.0,0.0,0.0,0.0,0.0,0.0,0.0,0.0,0.0,0.0,0.0,0.0,0.0,0.0,0.0,0.0,0.0,0.0,0.0,0.0,0.0,0.0,0.0,0.0,0.0,0.0,0.0,0.0,0.0,0.0,0.0,0.0,0.0,0.0,0.0,0.0,0.0,0.0,0.0,0.0,0.0,0.0,0.0,0.0,0.0,0.0,0.0,0.0,0.0,0.0,0.0,0.0,0.0,0.0,0.0,0.0,0.0,0.0,0.0,0.0,0.0,0.0,0.0,0.0,0.0,0.0,0.0,0.0,0.0,0.0,0.0,0.0,0.0,0.0,0.0,0.0,0.0,0.0,0.0,0.0,0.0,0.0,0.0,0.0,0.0,0.0,0.0,0.0,0.0,0.0,0.0,0.0,0.0,0.0,0.0,0.0,0.0,0.0,0.0,0.0,0.0,0.0,0.0,0.0,0.0,0.0,0.0,0.0,0.0,0.0,0.0,0.0,0.0,0.0,0.0,0.0,0.0,0.0,0.0,0.0,0.0,0.0,0.0,0.0,0.0,0.0,0.0,0.0,0.0,0.0,0.0,0.0,0.0,0.0,0.0,0.0,0.0,0.0,0.0,0.0,0.0,0.0,0.0,0.0,0.0,0.0,0.0,0.0,0.0,0.0,0.0,0.0,0.0,0.0,0.0,0.0,0.0,0.0,0.0,0.0,0.0,0.0,0.0,0.0,0.0,0.0,0.0,0.0,0.0,0.0,0.0,0.0,0.0,0.0,0.0,0.0,0.0,0.0,0.0,0.0,0.0,0.0,0.0,0.0,0.0,0.0,0.0,0.0,0.0,0.0,0.0,0.0,0.0,0.0,0.0,0.0,0.0,0.0,0.0,0.0,0.0,0.0,0.0,0.0,0.0,0.0,0.0,0.0,0.0,0.0,0.0,0.0,0.0,0.0,0.0,0.0,0.0,0.0,0.0,0.0,0.0,0.0,0.0,0.0,0.0,0.0,0.0,0.0,0.0,0.0,0.0,0.0,0.0,0.0,0.0,0.0,0.0,0.0,0.0,0.0,0.0,0.0,0.0,0.0,0.0,0.0,0.0,0.0,0.0,0.0,0.0,0.0,0.0,0.0,0.0,0.0,0.0,0.0,0.0,0.0,0.0,0.0,0.0,0.0,0.0,0.0,0.0,0.0,0.0,0.0,0.0,0.0,0.0,0.0,0.0,0.0,0.0,0.0,0.0,0.0,0.0,0.0,0.0,0.0,0.0,0.0,0.0,0.0,0.0,0.0,0.0,0.0,0.0,0.0,0.0,0.0,0.0,0.0,0.0,0.0,0.0,0.0,0.0,0.0,0.0,0.0,0.0,0.0,0.0,0.0,0.0,0.0,0.0,0.0,0.0,0.0,0.0,0.0,0.0,0.0,0.0,0.0,0.0,0.0,0.0,0.0,0.0,0.0,0.0,0.0,0.0,0.0,0.0,0.0,0.0,0.0,0.0,0.0,0.0,0.0,0.0,0.0,0.0,0.0,0.0,0.0,0.0,0.0,0.0,0.0,0.0,0.0,0.0,0.0,0.0,0.0,0.0,0.0,0.0,0.0,0.0,0.0,0.0,0.0,0.0,0.0,0.0,0.0,0.0,0.0,0.0,0.0,0.0,0.0,0.0,0.0,0.0,0.0,0.0,0.0,0.0,0.0,0.0,0.0,0.0,0.0,0.0,0.0,0.0,0.0,0.0,0.0,0.0,0.0,0.0,0.0,0.0,0.0,0.0,0.0,0.0,0.0,0.0,0.0,0.0,0.0,0.0,0.0,0.0,0.0,0.0,0.0,0.0,0.0,0.0,0.0,0.0,0.0,0.0,0.0,0.0,0.0,0.0,0.0,0.0,0.0,0.0,0.0,0.0,0.0,0.0,0.0,0.0,0.0,0.165,0.0936,0.0,0.0,0.0,0.0,0.0,0.0,0.0,0.0,0.0,0.0,0.0,0.0,0.0,0.0,0.0,0.0,0.0,0.0,0.0,0.0,0.0,0.0,0.0,0.0,0.0032,0.0134,0.0067,0.0067,0.0236,0.0,0.0,0.0,0.0,0.0,0.0494,0.0419,0.0501,0.0735,0.0598,0.0644,0.0868,0.0868,0.056,0.0,0.0,0.0,0.0,0.0,0.0,0.0,0.0,0.0,0.0,0.0,0.0,0.0,0.0,0.0,0.0,0.0,0.0,0.0,0.0,0.0,0.0,0.0,0.0,0.0,0.0,0.0,0.0,0.0,0.0,0.0,0.0,0.0,0.0,0.0,0.0,0.0,0.0,0.0,0.0,0.0,0.0,0.0,0.0,0.0,0.0,0.0,0.0,0.0,0.0,0.0,0.0,0.0,0.0,0.0,0.0,0.0,0.0,0.0,0.0,0.0,0.0,0.0,0.0,0.0,0.0,0.0,0.0,0.0,0.0,0.0,0.3003,0.2264,0.0,0.0,0.0,0.0,0.0,0.0,0.0,0.0,0.0,0.0,0.0,0.0,0.0,0.0,0.0,0.0,0.0,0.0,0.0,0.0,0.0,0.0,0.0061,0.0062,0.0127,0.0302,0.0169,0.0202,0.0472,0.0539,0.0,0.0,0.0,0.0964,0.0971,0.0907,0.1067,0.145,0.1314,0.1456,0.179,0.179,0.1259,0.0309,0.0203,0.0,0.0,0.0,0.0,0.0,0.0,0.0,0.0,0.0,0.0,0.0,0.0,0.0,0.0,0.0,0.0,0.0,0.0,0.0,0.0,0.0,0.0,0.0,0.0,0.0,0.0,0.0,0.0,0.0,0.0,0.0,0.0,0.0,0.0,0.0,0.0,0.0,0.0,0.0,0.0,0.0,0.0,0.0,0.0,0.0,0.0,0.0,0.0,0.0,0.0,0.0,0.0,0.0,0.0,0.0,0.0,0.0,0.0,0.0,0.0,0.0,0.0,0.0,0.461,0.4695,0.4692,0.4702,0.4709,0.4695,0.4695,0.4082,0.303,0.306,0.0,0.0,0.0,0.0,0.0,0.0,0.0,0.0,0.0,0.0,0.0,0.0,0.0,0.0,0.0,0.0,0.0,0.0,0.0,0.0056,0.0245,0.0247,0.0316,0.047,0.0438,0.0438,0.0506,0.1244,0.0,0.0,0.2435,0.2828,0.285,0.2547,0.2444,0.2505,0.2076,0.1847,0.179,0.179,0.1706,0.1541,0.1013,0.0491,0.0,0.0,0.0,0.0,0.0,0.0,0.0,0.0,0.0,0.0,0.0,0.0,0.0,0.0,0.0,0.0,0.0,0.0,0.0,0.0,0.0,0.0,0.0,0.0,0.0,0.0,0.0,0.0,0.0,0.0,0.0,0.0,0.0,0.0,0.0,0.0,0.0,0.0,0.0,0.0,0.0,0.0,0.6384,0.6361,0.0,0.0,0.0,0.0,0.0,0.0,0.0,0.0,0.0,0.0,0.0,0.0,0.0,0.4191,0.4269,0.5085,0.5489,0.5518,0.6313,0.6709,0.6709,0.6737,0.6737,0.6709,0.6709,0.0,0.4023,0.4011,0.0,0.0,0.0,0.0,0.0,0.0,0.0,0.0,0.0,0.0,0.0,0.0,0.0,0.0,0.0,0.0,0.0,0.0,0.0,0.0,0.0,0.0301,0.0551,0.1086,0.1026,0.1226,0.1869,0.2196,0.2441,0.2611,0.2982,0.3215,0.3215,0.2981,0.2933,0.3094,0.3119,0.3102,0.3044,0.3044,0.285,0.2519,0.2169,0.1689,0.1095,0.0672,0.0,0.0,0.0,0.0,0.0,0.0,0.0,0.0,0.0,0.0,0.0,0.0,0.0,0.0,0.0,0.0,0.0,0.0,0.0,0.0,0.0,0.0,0.0,0.0,0.0,0.0,0.0,0.0,0.0,0.0,0.0,0.0,0.0,0.0,0.0,0.0,0.0,0.0,0.0,0.6388,0.6511,0.6511,0.6511,0.648,0.0,0.0,0.0,0.0,0.0,0.0,0.0,0.0,0.0,0.5532,0.5602,0.5786,0.6043,0.653,0.6755,0.6752,0.7128,0.7272,0.7265,0.7136,0.7095,0.7095,0.7095,0.6615,0.5804,0.5259,0.4449,0.3528,0.0,0.0,0.0,0.0,0.299,0.3237,0.0,0.0,0.0,0.0,0.0,0.0,0.0,0.0,0.0,0.0,0.0,0.0,0.0323,0.0412,0.0805,0.1598,0.154,0.1865,0.2892,0.3009,0.3178,0.341,0.3637,0.3737,0.3678,0.3508,0.3492,0.3608,0.3913,0.4024,0.3996,0.3996,0.3771,0.333,0.3239,0.2766,0.1999,0.1422,0.1248,0.1304,0.0,0.0,0.0,0.0,0.0,0.0,0.0,0.0,0.0,0.0,0.0,0.0,0.0,0.0,0.0,0.0,0.0,0.0,0.0,0.0,0.0,0.0,0.0,0.0,0.0,0.0,0.0,0.0,0.0,0.0,0.0,0.0,0.0,0.0,0.0,0.0,0.0,0.6521,0.6555,0.6518,0.6579,0.6532,0.0,0.0,0.0,0.0,0.0,0.0,0.6307,0.6384,0.6552,0.6825,0.6936,0.7138,0.7431,0.7543,0.76,0.7597,0.7485,0.7456,0.7412,0.7251,0.7132,0.7095,0.7095,0.7095,0.7044,0.6365,0.5478,0.4577,0.4594,0.438,0.4048,0.4048,0.4123,0.4218,0.0,0.0,0.0,0.0,0.0,0.0,0.0,0.0,0.0,0.0,0.0,0.0454,0.0646,0.0678,0.1014,0.1813,0.1879,0.2125,0.2774,0.3571,0.4043,0.4049,0.4852,0.5193,0.5014,0.476,0.4454,0.4166,0.4193,0.4138,0.3996,0.3996,0.3993,0.3968,0.3947,0.3303,0.2173,0.2002,0.1995,0.1991,0.1317,0.0,0.0,0.0,0.0,0.0,0.0,0.0,0.0,0.0,0.0,0.0,0.0,0.0,0.0,0.0,0.0,0.0,0.0,0.0,0.0,0.0,0.0,0.0,0.0,0.0,0.0,0.0,0.0,0.0,0.0,0.0,0.0,0.0,0.0,0.0,0.0,0.0,0.0,0.6528,0.6729,0.0,0.0,0.0,0.0,0.6392,0.67,0.685,0.6766,0.7127,0.7407,0.756,0.7573,0.758,0.7587,0.7597,0.76,0.76,0.7594,0.7512,0.7415,0.7409,0.7278,0.7095,0.7095,0.7095,0.7095,0.7044,0.6474,0.5626,0.562,0.5034,0.4187,0.4187,0.4724,0.5421,0.0,0.0,0.0,0.0,0.0,-0.1399,-0.0196,0.0112,0.0196,0.0196,0.0421,0.062,0.0684,0.1112,0.1688,0.2342,0.2777,0.3297,0.3988,0.4306,0.4524,0.4615,0.4922,0.5003,0.485,0.4745,0.4587,0.4384,0.4384,0.4384,0.4325,0.4325,0.4325,0.4325,0.419,0.3925,0.3574,0.297,0.2777,0.2793,0.2058,0.1984,0.0,0.0,0.0,0.0,0.0,0.0,0.0,0.0,0.0,0.0,0.0,0.0,0.0,0.0,0.0,0.0,0.0,0.0,0.0,0.0,0.0,0.0,0.0,0.0,0.0,0.0,0.0,0.0,0.0,0.0,0.0,0.0,0.0,0.0,0.0,0.0,0.0,0.6759,0.6861,0.0,0.6715,0.6871,0.694,0.685,0.7173,0.7338,0.7296,0.7442,0.7543,0.7597,0.7689,0.7736,0.7736,0.7834,0.7833,0.7833,0.7784,0.7706,0.7648,0.7458,0.7343,0.7285,0.7139,0.7095,0.7095,0.7095,0.6889,0.6621,0.6621,0.6322,0.595,0.595,0.6066,0.628,0.0,0.0,0.0,0.0,-0.179,-0.1399,-0.0196,0.014,0.028,0.028,0.0561,0.0841,0.1036,0.1512,0.2124,0.2931,0.3375,0.3887,0.4577,0.4663,0.4735,0.484,0.4843,0.4796,0.4694,0.4668,0.4593,0.4491,0.4491,0.4491,0.4491,0.4491,0.4491,0.4491,0.4356,0.4353,0.4387,0.3837,0.3671,0.368,0.2963,0.2894,0.3206,0.0,0.0,0.0,0.0,0.0,0.0,0.0,0.0,0.0,0.0,0.0,0.0,0.0,0.0,0.0,0.0,0.0,0.0,0.0,0.0,0.0,0.0,0.0,0.0,0.0,0.0,0.0,0.0,0.0,0.0,0.0,0.0,0.0,0.0,0.6712,0.6797,0.6848,0.6987,0.7017,0.6865,0.7119,0.725,0.725,0.7529,0.7672,0.7672,0.7719,0.7746,0.7746,0.7838,0.7889,0.7889,0.7938,0.7988,0.7988,0.7887,0.7862,0.7804,0.7607,0.7495,0.7444,0.7339,0.7189,0.7098,0.7152,0.7115,0.7031,0.7078,0.7038,0.6957,0.6957,0.6893,0.6848,0.0,0.0,0.0,-0.2014,-0.179,-0.1371,-0.0168,0.0224,0.0393,0.0393,0.0701,0.1121,0.1706,0.1818,0.2291,0.3458,0.3599,0.3876,0.446,0.4631,0.4684,0.4684,0.4684,0.4713,0.4713,0.4566,0.4519,0.4515,0.4519,0.4491,0.4491,0.4491,0.4491,0.4491,0.4491,0.4491,0.4508,0.4575,0.4624,0.4565,0.4045,0.4257,0.4826,0.0,0.0,0.0,0.0,0.0,0.0,0.0,0.0,0.0,0.0,0.0,0.0,0.0,0.0,0.0,0.0,0.0,0.0,0.0,0.0,0.0,0.0,0.0,0.0,0.0,0.0,0.0,0.0,0.0,0.0,0.0,0.0,0.0,0.6685,0.6742,0.6836,0.6739,0.7105,0.7316,0.7125,0.7428,0.7607,0.7607,0.7736,0.7818,0.7818,0.7911,0.7988,0.7988,0.7988,0.7988,0.7988,0.7988,0.7988,0.7988,0.7988,0.7914,0.7818,0.7814,0.7736,0.7604,0.7597,0.7421,0.7109,0.7302,0.7193,0.69,0.7041,0.7095,0.7095,0.7095,0.7095,0.7095,0.0,0.0,-0.271,-0.193,-0.1428,-0.0897,-0.0112,0.0224,0.0393,0.0393,0.0701,0.0953,0.1121,0.193,0.2597,0.2931,0.3738,0.4322,0.4491,0.4528,0.4552,0.4552,0.4552,0.4745,0.5131,0.4729,0.468,0.5089,0.468,0.4491,0.4491,0.4491,0.4491,0.4491,0.4491,0.4491,0.4508,0.4726,0.4819,0.4813,0.4602,0.4737,0.5032,0.0,0.0,0.0,0.0,0.0,0.0,0.0,0.0,0.0,0.0,0.0,0.0,0.0,0.0,0.0,0.0,0.0,0.0,0.0,0.0,0.0,0.0,0.0,0.0,0.0,0.0,0.0,0.0,0.0,0.0,0.0,0.8936,0.8833,0.7917,0.7292,0.6993,0.7166,0.734,0.7397,0.7468,0.7645,0.7753,0.7753,0.7892,0.7928,0.7928,0.7968,0.7988,0.7988,0.7988,0.7988,0.7988,0.7988,0.7988,0.7988,0.7988,0.7968,0.7924,0.7862,0.779,0.774,0.7529,0.7322,0.7098,0.7142,0.7051,0.69,0.7041,0.7095,0.7095,0.7095,0.7095,0.7095,0.0,-0.3102,-0.2514,-0.1902,-0.1288,-0.0701,-0.0084,0.0224,0.0393,0.0393,0.0701,0.1009,0.126,0.2124,0.2792,0.3042,0.3959,0.4491,0.4491,0.4491,0.4518,0.4583,0.4525,0.4763,0.5277,0.4763,0.4763,0.5304,0.4763,0.4491,0.4491,0.4491,0.4491,0.4491,0.4491,0.4491,0.4505,0.4721,0.486,0.4908,0.4916,0.5038,0.5223,0.5223,0.5292,0.5415,0.5578,0.5928,0.6321,0.6445,0.0,0.0,0.0,0.0,0.0,0.0,0.0,0.0,0.0,0.0,0.0,0.0,0.0,0.0,0.0,0.0,0.0,0.0,0.0,0.0,0.0,0.0,0.0,0.0,1.0089,1.0038,0.961,0.8498,0.7749,0.7978,0.7752,0.759,0.7678,0.7821,0.7906,0.7906,0.7938,0.7988,0.7988,0.7988,0.7988,0.7988,0.7988,0.7988,0.7988,0.7988,0.7988,0.7988,0.7988,0.7988,0.7985,0.7897,0.7906,0.7892,0.7658,0.7434,0.7238,0.7238,0.7115,0.69,0.0,0.0,0.0,0.0,0.7095,0.7095,0.0,-0.3047,-0.243,-0.1902,-0.1232,-0.0617,-0.0084,0.0224,0.0393,0.0393,0.0701,0.1093,0.1651,0.2291,0.2903,0.3458,0.4098,0.4498,0.4515,0.4515,0.4576,0.4684,0.4573,0.4791,0.5386,0.4873,0.4897,0.5496,0.4897,0.4598,0.4598,0.4515,0.4491,0.4491,0.4491,0.4491,0.4501,0.4655,0.4769,0.4877,0.5036,0.5223,0.5395,0.5395,0.5395,0.5491,0.6174,0.6465,0.6604,0.7166,0.0,0.0,0.0,0.0,0.0,0.0,0.0,0.0,0.0,0.0,0.0,0.0,0.0,0.0,0.0,0.0,0.0,0.0,0.0,0.0,0.0,0.0,0.0,0.0,1.116,1.118,1.1462,1.0154,0.9112,0.9013,0.8385,0.8007,0.7976,0.8009,0.7988,0.7988,0.7988,0.7988,0.7988,0.7988,0.0,0.0,0.0,0.7988,0.7988,0.7988,0.7988,0.7988,0.7988,0.7988,0.7988,0.7988,0.7982,0.7958,0.7851,0.7617,0.7346,0.7346,0.719,0.6923,0.7048,0.7095,0.7095,0.7095,0.7085,0.7071,0.0,-0.2713,-0.1928,-0.1818,-0.0896,-0.014,-0.0028,0.0224,0.0393,0.0393,0.0701,0.0954,0.1065,0.204,0.2736,0.2875,0.3876,0.4542,0.4665,0.4646,0.466,0.4691,0.4573,0.4983,0.6014,0.5445,0.5664,0.6756,0.5664,0.5144,0.5144,0.4708,0.4491,0.4491,0.4491,0.4491,0.4501,0.4655,0.4707,0.4758,0.4992,0.5223,0.5395,0.5395,0.5395,0.5491,0.6174,0.6761,0.7312,0.8018,0.8324,0.8478,0.8885,0.871,0.0,0.0,0.0,0.0,0.0,0.0,0.0,0.0,0.0,0.0,0.0,0.0,0.0,0.0,0.0,0.0,0.0,0.0,0.0,1.1952,1.2236,1.2466,1.2695,1.1907,1.1044,1.0352,0.9579,0.9151,0.9249,0.851,0.7988,0.7988,0.7988,0.7988,0.7988,0.7988,0.7988,0.7988,0.7988,0.7988,0.7988,0.7988,0.7988,0.7988,0.7988,0.0,0.7988,0.7988,0.7924,0.7848,0.7702,0.7468,0.7139,0.7139,0.7105,0.7058,0.7085,0.7095,0.7095,0.7095,0.7024,0.6927,-0.3613,-0.288,-0.2151,-0.1846,-0.1064,-0.0336,0.0056,0.028,0.0449,0.0533,0.0757,0.0898,0.0898,0.1706,0.2374,0.2681,0.3854,0.4672,0.4796,0.4731,0.4724,0.4802,0.4614,0.4901,0.5741,0.5199,0.5336,0.6209,0.5336,0.4897,0.4897,0.4625,0.4532,0.46,0.4525,0.4532,0.461,0.466,0.4735,0.4823,0.5012,0.5223,0.5395,0.5395,0.5624,0.598,0.6662,0.7349,0.8069,0.8759,0.8985,0.9055,0.9382,0.9285,0.9055,0.0,0.0,0.0,0.0,0.0,0.0,0.0,0.0,0.0,0.0,0.0,0.0,0.0,0.0,1.0908,1.1588,0.0,1.1892,1.2404,1.2735,1.2964,1.3059,1.3001,1.2535,1.1548,1.0791,1.0135,0.9645,0.9118,0.8581,0.8038,0.7988,0.7988,0.7988,0.7988,0.7988,0.7988,0.7988,0.7988,0.7988,0.7988,0.7988,0.7988,0.7988,0.7988,0.7988,0.7911,0.7882,0.7797,0.758,0.74,0.7251,0.7129,0.7095,0.7095,0.7095,0.7095,0.7088,0.7018,0.6947,0.6876,-0.3613,-0.3216,-0.2655,-0.193,-0.1288,-0.0673,0.0056,0.0308,0.0449,0.0617,0.0785,0.09,0.0905,0.1442,0.2095,0.2845,0.3935,0.468,0.4921,0.4847,0.4819,0.4884,0.4653,0.4768,0.5281,0.4873,0.4928,0.5469,0.4928,0.4671,0.4699,0.4591,0.4617,0.4728,0.4634,0.4648,0.4735,0.4735,0.4806,0.4901,0.5042,0.5206,0.5354,0.5385,0.5818,0.6498,0.7158,0.7874,0.8587,0.9285,0.9516,0.9516,0.9516,0.9516,0.9516,0.9516,0.9516,0.0,0.0,0.0,0.0,0.0,0.0,0.0,0.0,1.0689,1.0912,1.1214,1.1453,1.1772,1.2234,1.2355,1.2475,1.2741,1.2976,1.3157,1.326,1.364,1.359,1.2778,1.1796,1.0877,0.9998,0.9509,0.8924,0.8088,0.7988,0.7988,0.7988,0.7988,0.7988,0.7988,0.7988,0.7988,0.7988,0.7988,0.7988,0.7988,0.7988,0.7988,0.7985,0.7882,0.7794,0.7753,0.7455,0.7326,0.7316,0.7146,0.7095,0.7095,0.7095,0.7078,0.7041,0.6927,0.6849,0.682,0.0,-0.3555,-0.3132,-0.1986,-0.1288,-0.0701,-0.0084,0.0224,0.0421,0.0421,0.0701,0.0907,0.0905,0.1434,0.2304,0.358,0.3936,0.4366,0.5034,0.5059,0.5002,0.4894,0.4755,0.4883,0.5281,0.525,0.55,0.61,0.55,0.531,0.5465,0.4923,0.4748,0.4864,0.4874,0.4877,0.4894,0.4894,0.4874,0.4901,0.5042,0.511,0.514,0.5344,0.5818,0.6498,0.7158,0.7874,0.8587,0.9285,0.9516,0.9516,0.9516,0.9516,0.9516,0.9516,0.9516,0.957,0.9799,1.0051,1.0256,1.0286,1.0472,1.0767,0.0,1.1381,1.1477,1.1775,1.2,1.2246,1.23,1.2499,1.2753,1.3031,1.3059,1.329,1.3755,1.387,1.3943,1.4076,1.2377,1.117,1.1023,0.9316,0.8137,0.7988,0.7988,0.7988,0.7988,0.7988,0.7988,0.7988,0.7988,0.7988,0.7988,0.7988,0.7988,0.7988,0.7988,0.7988,0.7985,0.7882,0.7743,0.7607,0.7253,0.7122,0.7122,0.7102,0.7095,0.7095,0.7095,0.7018,0.6906,0.6893,0.6756,0.6562,0.0,-0.3613,-0.3218,-0.2014,-0.1595,-0.1064,-0.0028,0.028,0.0449,0.0561,0.0757,0.0909,0.091,0.1465,0.2246,0.3256,0.3776,0.437,0.5061,0.51,0.5073,0.5012,0.4901,0.4881,0.5075,0.5075,0.5191,0.5453,0.5191,0.5111,0.5177,0.4942,0.4901,0.5009,0.4924,0.4935,0.5012,0.5012,0.5012,0.5032,0.5301,0.5345,0.5281,0.547,0.6134,0.7022,0.7288,0.8139,0.0,0.9414,0.9516,0.9516,0.9516,0.9516,0.9516,0.9516,0.9624,0.9835,1.0244,1.0328,1.0364,1.0707,1.0954,1.1212,1.1441,1.1724,1.2017,1.2125,1.2361,1.2542,1.2542,1.2765,1.2988,1.3059,1.3381,1.3652,1.3876,1.4039,1.4171,1.4286,1.2974,1.1853,1.1268,1.0391,0.9361,0.8088,0.7988,0.7988,0.7988,0.7988,0.7988,0.7988,0.7988,0.7988,0.7988,0.7988,0.7988,0.7988,0.7988,0.7988,0.7982,0.7794,0.7556,0.728,0.7152,0.7095,0.7095,0.7095,0.7095,0.7088,0.7004,0.6883,0.6797,0.6797,0.6658,0.6501,0.0,-0.3613,-0.3218,-0.2014,-0.179,-0.1371,-0.0056,0.028,0.0449,0.0589,0.0791,0.0896,0.0934,0.1357,0.194,0.2678,0.3251,0.3929,0.4832,0.4868,0.4948,0.51,0.5002,0.4928,0.4887,0.4887,0.4887,0.4887,0.4887,0.4816,0.4667,0.4674,0.4636,0.4596,0.4508,0.4505,0.462,0.462,0.4752,0.4972,0.5215,0.541,0.5525,0.5562,0.626,0.7202,0.7339,0.8301,0.9516,0.9516,0.9516,0.9516,0.9516,0.9516,0.9528,0.96,0.9805,1.0081,1.0382,1.0382,1.04,1.0851,1.117,1.1417,1.1567,1.1986,1.233,1.2409,1.2572,1.2705,1.2705,1.2934,1.3101,1.3218,1.361,1.393,1.4002,1.4177,1.4298,1.4298,1.3607,1.2732,1.1707,1.1121,1.0096,0.8577,0.8187,0.7988,0.7988,0.7988,0.7988,0.7988,0.7988,0.7988,0.7988,0.7988,0.7988,0.7988,0.7988,0.7968,0.7917,0.7672,0.739,0.7095,0.7095,0.7095,0.7095,0.7095,0.7071,0.7028,0.6927,0.681,0.6637,0.6637,0.6542,0.6439,0.0,0.0,-0.3218,-0.2014,-0.179,-0.1399,-0.0168,0.0224,0.0393,0.0421,0.0692,0.0934,0.0992,0.0999,0.1335,0.207,0.2158,0.2769,0.424,0.4314,0.4558,0.5071,0.5096,0.5029,0.4891,0.4887,0.4887,0.4887,0.4887,0.4646,0.4134,0.412,0.3864,0.3348,0.3361,0.3365,0.3367,0.3367,0.3837,0.4599,0.4643,0.5111,0.5772,0.564,0.6027,0.6707,0.7226,0.8301,0.9516,0.9516,0.9516,0.9516,0.9516,0.9516,0.9564,0.9817,1.0075,1.0232,0.9991,1.0106,1.0358,1.0629,1.0894,1.1262,1.1787,1.2119,1.2385,1.2638,1.2699,1.2705,1.2705,1.2934,1.3212,1.3465,1.3731,1.3996,1.425,1.4292,1.4298,1.4298,1.425,1.3806,1.278,1.0828,0.9608,0.9558,0.8577,0.7988,0.7988,0.7988,0.7988,0.7988,0.7988,0.7988,0.7988,0.7988,0.7988,0.7988,0.7988,0.7914,0.7807,0.7512,0.7292,0.7095,0.7095,0.7095,0.7095,0.7095,0.7014,0.6893,0.6886,0.6746,0.6518,0.6518,0.6429,0.6306,0.0,0.0,0.0,-0.2014,-0.179,-0.1399,-0.0196,0.014,0.0311,0.0462,0.0759,0.0,0.0,0.0,0.0,0.0,0.2096,0.2523,0.3513,0.4018,0.4168,0.3863,0.4322,0.4575,0.4625,0.412,0.4126,0.4685,0.4132,0.3737,0.3559,0.3556,0.3482,0.3301,0.3294,0.3306,0.3306,0.3306,0.3487,0.3876,0.4466,0.4836,0.5049,0.5639,0.6179,0.6698,0.0,0.8126,0.892,0.935,0.9516,0.9516,0.9516,0.9516,0.957,0.9829,0.9967,1.0094,1.0352,1.0485,1.0617,1.0918,1.1184,1.1447,1.1802,1.2125,1.2391,1.265,1.2705,1.2705,1.2705,1.2934,1.3212,1.3471,1.3737,1.3996,1.4262,1.4298,1.4298,1.4298,1.4298,1.4154,1.3806,1.2484,1.1072,0.9702,0.9262,0.8775,0.8038,0.7988,0.7988,0.7988,0.7988,0.7988,0.7988,0.7988,0.7988,0.7988,0.7887,0.7756,0.7516,0.7463,0.7285,0.7095,0.7095,0.7095,0.7095,0.7095,0.7014,0.6876,0.6817,0.6654,0.6501,0.6405,0.634,0.63,0.0,0.0,0.0,0.0,0.0,0.0,0.0,0.0,0.0,0.0,0.0,0.0,0.0,0.0,0.0,0.0,0.0,0.2047,0.2748,0.3251,0.3416,0.3215,0.3651,0.3953,0.4025,0.3543,0.3557,0.412,0.3583,0.3169,0.2907,0.2935,0.2801,0.2545,0.2569,0.2579,0.2579,0.2579,0.2792,0.3137,0.3747,0.4258,0.4734,0.5246,0.5781,0.0,0.7,0.7456,0.7934,0.9087,0.9516,0.9516,0.9516,0.9642,0.9811,0.9883,1.0039,1.0256,1.0593,1.0617,1.0629,1.1021,1.1244,1.1441,1.1802,1.2125,1.2361,1.253,1.2566,1.2566,1.2566,1.2789,1.3091,1.3459,1.3737,1.3996,1.4262,1.4298,1.4298,1.4298,1.4298,1.4298,1.4298,1.3661,1.2581,1.0828,0.9998,0.9316,0.8627,0.8187,0.7988,0.7988,0.7988,0.7988,0.7988,0.7988,0.7961,0.7907,0.7807,0.7607,0.7415,0.7316,0.7234,0.7095,0.7095,0.7095,0.7092,0.7041,0.6937,0.6831,0.6678,0.6529,0.6426,0.6334,0.63,0.63,0.0,0.0,0.0,0.0,0.0,0.0,0.0,0.0,0.0,0.0,0.0,0.0,0.0,0.0,0.0,0.0,0.0,0.0,0.2013,0.2079,0.2414,0.3049,0.3115,0.3153,0.3157,0.3123,0.3131,0.3254,0.3221,0.2839,0.2152,0.2202,0.1851,0.1213,0.1281,0.1294,0.1294,0.1294,0.1725,0.2426,0.2478,0.3394,0.4729,0.4575,0.4981,0.5693,0.623,0.642,0.6708,0.8776,0.9508,0.9552,0.9552,0.9895,1.0244,0.9985,1.0268,1.0665,1.0665,1.0491,1.0436,1.0985,1.1111,1.125,1.1742,1.2095,1.2276,1.2288,1.23,1.2312,1.2312,1.253,1.2886,1.3429,1.3725,1.3978,1.4256,1.4298,1.4298,1.4298,1.4298,1.4298,1.4298,1.4298,1.3859,1.2877,1.0925,0.9706,0.9608,0.8627,0.8038,0.7988,0.7988,0.7988,0.7988,0.7982,0.7901,0.7797,0.7655,0.7555,0.7444,0.7207,0.7139,0.7224,0.7183,0.718,0.7204,0.707,0.6961,0.6795,0.6687,0.6541,0.6416,0.6416,0.6416,0.6377,0.0,0.0,0.0,0.0,0.0,0.0,0.0,0.0,0.0,0.0,0.0,0.0,0.0,0.0,0.0,0.0,0.0,0.0,0.1344,0.1812,0.1946,0.1646,0.2114,0.2438,0.2594,0.1973,0.1965,0.2629,0.2017,0.1645,0.1461,0.1481,0.1375,0.1212,0.122,0.1224,0.1224,0.1224,0.1391,0.1643,0.2208,0.3078,0.413,0.4678,0.5289,0.5971,0.6557,0.6686,0.6802,0.8482,0.9517,1.01,1.01,1.019,1.0244,0.9985,1.0142,1.0394,1.0394,1.0485,1.0665,1.1033,1.1111,1.1202,1.1513,1.1639,1.1748,1.194,1.2174,1.2312,1.2312,1.253,1.2886,1.3429,1.3568,1.3773,1.4232,1.4298,1.4298,1.4298,1.4298,1.4298,1.4298,1.4298,1.4202,1.3908,1.2678,1.1219,0.9706,0.9361,0.8821,0.8038,0.7988,0.7988,0.7988,0.7877,0.7797,0.7651,0.7502,0.7709,0.8215,0.7422,0.7881,0.9139,0.8452,0.8419,0.8883,0.884,0.8624,0.8356,0.8308,0.8216,0.8093,0.8093,0.771,0.7292,0.0,0.0,0.0,0.0,0.0,0.0,0.0,0.0,0.0,0.0,0.0,0.0,0.0,0.0,0.0,0.0,0.0,0.0,0.0,0.1444,0.1478,0.1109,0.1444,0.1725,0.182,0.1357,0.134,0.1824,0.1413,0.1212,0.1191,0.1211,0.1212,0.1192,0.1192,0.1192,0.1192,0.1192,0.1239,0.0,0.0,0.2368,0.3179,0.4027,0.4786,0.5478,0.6154,0.6607,0.7045,0.8308,0.9423,1.0292,1.0292,1.037,1.0436,1.0292,1.0352,1.0491,1.0605,1.0695,1.0743,1.1045,1.1021,1.1045,1.1405,1.1399,1.1387,1.1657,1.1956,1.2137,1.2137,1.2355,1.2747,1.3405,1.3513,1.3701,1.422,1.4298,1.4298,1.4298,1.4298,1.4298,1.4298,1.4298,1.4298,1.4298,1.3318,1.2193,1.1023,1.0096,0.9312,0.8726,0.8237,0.8233,0.8676,0.8515,0.8358,0.8294,0.8535,0.836,0.7885,0.7753,0.8277,0.927,0.8589,0.8751,0.9475,0.9298,0.9083,0.8908,0.8819,0.876,0.8703,0.8703,0.8399,0.8093,0.0,0.0,0.0,0.0,0.0,0.0,0.0,0.0,0.0,0.0,0.0,0.0,0.0,0.0,0.0,0.0,0.0,0.0,0.0,0.0,0.1109,0.1109,0.1109,0.1109,0.1109,0.1102,0.1115,0.1115,0.1141,0.1192,0.1196,0.1192,0.1193,0.1196,0.1196,0.1196,0.1196,0.1196,0.1196,0.1196,0.1196,0.1598,0.2328,0.0,0.399,0.4767,0.5548,0.6423,0.7315,0.8088,0.9186,1.026,1.0365,1.0557,1.0767,1.0695,1.0659,1.0725,1.0985,1.0864,1.0701,1.1033,1.0942,1.0857,1.1333,1.1286,1.1178,1.1387,1.1676,1.188,1.188,1.2161,1.262,1.3387,1.3513,1.3701,1.422,1.4298,1.4298,1.4298,1.4298,1.4298,1.4298,1.4298,1.4298,1.4298,1.3414,1.2829,1.2732,1.0974,0.9887,0.9571,0.8625,0.8516,0.9343,0.922,0.915,0.9132,0.9718,0.9176,0.7665,0.8364,0.8803,0.9052,0.8653,0.8979,0.98,0.9397,0.9213,0.9169,0.9071,0.9003,0.9003,0.9003,0.8965,0.8889,0.0,0.0,0.0,0.0,0.0,0.0,0.0,0.0,0.0,0.0,0.1002,0.105,0.0,0.0,0.0,0.0,0.0,0.0,0.0,0.0,0.0,0.1109,0.1109,0.1109,0.1109,0.1115,0.1084,0.1084,0.1123,0.1104,0.1128,0.1103,0.1105,0.1129,0.1129,0.1129,0.1129,0.1129,0.1129,0.1129,0.1129,0.1607,0.2443,0.3344,0.0,0.0,0.5732,0.6482,0.7241,0.7389,0.8551,1.0096,1.0751,1.1009,1.1003,1.0785,1.0533,1.0418,1.0719,1.0563,1.0478,1.0991,1.1081,1.1069,1.1166,1.1148,1.1123,1.1172,1.1576,1.188,1.188,1.2312,1.2831,1.3417,1.3513,1.3701,1.422,1.4298,1.4298,1.4298,1.4298,1.4298,1.4298,1.4298,1.4298,1.4298,1.4148,1.3661,1.2732,1.2339,1.1327,0.9481,0.9052,0.856,0.7956,0.8575,0.8881,0.8848,0.8803,0.9402,1.0539,0.9927,1.0491,1.1912,1.0863,1.0823,1.1474,1.1178,1.0923,1.0721,1.0674,1.0694,1.0694,1.0694,1.025,0.9803,0.0,0.0,0.0,0.0,0.0,0.0,0.0,0.0958,0.0994,0.1008,0.1037,0.1061,0.1108,0.1109,0.1109,0.0,0.0,0.0,0.0,0.0,0.0,0.0,0.1109,0.1109,0.1109,0.1091,0.1091,0.1109,0.0,0.1099,0.1097,0.1116,0.1083,0.1097,0.1097,0.1097,0.1097,0.1097,0.1097,0.11,0.1132,0.1405,0.1865,0.0,0.0,0.0,0.5867,0.6411,0.6787,0.7199,0.7938,0.8851,1.0099,1.0775,1.1087,1.096,1.0737,1.0557,1.0852,1.0695,1.0587,1.1015,1.1009,1.0942,1.1081,1.1009,1.0942,1.1081,1.1546,1.188,1.188,1.2355,1.2837,1.3248,1.327,1.3495,1.402,1.4093,1.4141,1.428,1.4298,1.4298,1.4298,1.4298,1.4298,1.4298,1.4298,1.3993,1.3376,1.2672,1.1561,0.9956,0.9821,0.9773,0.982,1.0076,1.0239,1.0324,1.0552,1.0669,1.0577,1.0626,1.1037,1.1719,1.101,1.1059,1.1657,1.1387,1.1232,1.1111,1.1223,1.126,1.126,1.1372,1.1186,1.0925,0.0,0.0,0.0,0.0,0.0,0.0,0.0,0.0958,0.0993,0.1005,0.108,0.1109,0.1109,0.1109,0.1109,0.0,0.0,0.0,0.0,0.0,0.0,0.0,0.0,0.1109,0.1109,0.0,0.0,0.1085,0.1103,0.0,0.0,0.0,0.0,0.0,0.1109,0.1109,0.1109,0.1109,0.1113,0.0,0.0,0.1207,0.133,0.0,0.0,0.0,0.0,0.63,0.6416,0.7026,0.7369,0.771,0.897,1.0062,1.0887,1.1037,1.0924,1.0743,1.1039,1.0882,1.0731,1.0972,1.0918,1.0846,1.0997,1.0912,1.0864,1.1069,1.1459,1.182,1.1874,1.23,1.2729,1.3067,1.3083,1.3308,1.3833,1.3906,1.4002,1.4262,1.4298,1.4298,1.4298,1.4298,1.4298,1.4298,1.4189,1.4063,1.3912,1.2619,1.1501,1.0724,1.0635,1.0884,1.1469,1.1476,1.1519,1.164,1.2149,1.1746,1.0529,1.1273,1.1453,1.1169,1.0917,1.1078,1.1471,1.1226,1.1149,1.1186,1.1335,1.1446,1.1484,1.1632,1.1706,1.1706,0.0,0.0,0.0,0.0,0.0,0.0,0.0,0.0985,0.1007,0.1094,0.1106,0.1109,0.1109,0.1109,0.1109,0.0,0.0,0.0,0.0,0.0,0.0,0.0,0.0,0.0,0.0,0.0,0.0,0.1117,0.1092,0.0,0.0,0.0,0.0,0.0,0.0,0.1109,0.1109,0.1109,0.0,0.0,0.0,0.0,0.0,0.0,0.0,0.0,0.0,0.63,0.63,0.6377,0.6911,0.7518,0.7676,0.8775,1.0143,1.0887,1.0924,1.0743,1.1039,1.0882,1.0725,1.0713,1.0918,1.1021,1.0803,1.0924,1.1081,1.1105,1.1315,1.1597,1.1838,1.2155,1.2518,1.3043,1.3083,1.3308,1.3833,1.3906,1.4002,1.4262,1.4298,1.4298,1.4298,1.4298,1.4298,1.4298,1.3857,1.3682,1.3894,1.2502,1.1659,1.157,1.1324,1.086,1.011,1.0883,1.1316,1.1359,1.1419,1.18,1.2443,1.2534,1.2433,1.217,1.1873,1.1651,1.1471,1.1226,1.1223,1.1372,1.1409,1.1521,1.1669,1.1706,1.1706,1.1744,0.0,0.0,0.0,0.0,0.0,0.0,0.0984,0.1004,0.1024,0.1047,0.1065,0.1109,0.1109,0.1109,0.1109,0.1109,0.0,0.0,0.0,0.0,0.0,0.0,0.0,0.0,0.0,0.0,0.1109,0.1086,0.1127,0.0,0.0,0.0,0.0,0.0,0.0,0.1109,0.1109,0.1109,0.0,0.0,0.0,0.0,0.0,0.0,0.0,0.0,0.0,0.0,0.63,0.63,0.6528,0.6853,0.7203,0.7845,0.8699,0.9986,1.0668,1.0979,1.1081,1.1033,1.0997,1.1128,1.1122,1.1129,1.1158,1.1122,1.1111,1.1111,1.1297,1.1573,1.1832,1.2137,1.2439,1.2813,1.2874,1.3,1.3381,1.3435,1.3592,1.4008,1.4063,1.4123,1.428,1.4298,1.4232,1.4075,1.3725,1.3495,1.3435,1.2715,1.2293,1.2293,1.2195,1.1966,1.1574,1.1966,1.2143,1.2143,1.2143,1.2357,1.2699,1.2542,1.2324,1.2024,1.176,1.1495,1.123,1.1154,1.1149,1.1223,1.1484,1.1632,1.1744,1.1966,1.2077,1.2077,0.0,0.0,0.0,0.0,0.0,0.0991,0.1001,0.0988,0.1004,0.1012,0.1063,0.1109,0.1109,0.1084,0.1089,0.1089,0.1115,0.0,0.0,0.0,0.0,0.0,0.0,0.0,0.0,0.0,0.1139,0.1148,0.116,0.1208,0.0,0.0,0.1134,0.1133,0.0,0.0,0.0,0.0,0.0,0.0,0.0,0.0,0.0,0.0,0.0,0.0,0.0,0.0,0.0,0.0,0.0,0.6349,0.6746,0.711,0.774,0.936,1.0269,1.0812,1.1037,1.1111,1.1141,1.1224,1.1164,1.1141,1.1224,1.1196,1.1111,1.1111,1.1297,1.1549,1.1736,1.2083,1.2373,1.256,1.265,1.2801,1.3041,1.3083,1.329,1.3737,1.3791,1.3894,1.4159,1.425,1.4159,1.3815,1.3622,1.3363,1.3019,1.2813,1.2705,1.2705,1.2705,1.2705,1.2705,1.2705,1.2705,1.2705,1.2705,1.2705,1.2693,1.2433,1.2168,1.1908,1.1688,1.1409,1.1111,1.1223,1.1298,1.1298,1.1632,1.1818,1.1892,1.2187,1.2305,1.2305,0.0,0.0,0.0,0.0,0.0,0.0,0.0996,0.1001,0.1011,0.1105,0.1109,0.1109,0.1109,0.1102,0.1086,0.1086,0.1093,0.0,0.0,0.0,0.0,0.0,0.0,0.0,0.0,0.0,0.1181,0.1211,0.1218,0.1182,0.1211,0.1217,0.1203,0.1201,0.0,0.0,0.0,0.0,0.0,0.0,0.0,0.0,0.0,0.0,0.0,0.0,0.0,0.0,0.0,0.0,0.0,0.0,0.0,0.6544,0.754,0.9192,0.9807,1.0105,1.0887,1.1111,1.1051,1.0755,1.0924,1.1045,1.0755,1.0924,1.1111,1.1111,1.1297,1.1495,1.1495,1.1922,1.2312,1.2318,1.2536,1.2801,1.3041,1.3083,1.3224,1.3489,1.3519,1.3622,1.3882,1.4141,1.4081,1.3556,1.3513,1.3278,1.2735,1.2705,1.2705,1.2705,1.2705,1.2705,1.2705,1.2705,1.2705,1.2705,1.2705,1.2705,1.2693,1.2433,1.2168,1.1908,1.1838,1.1523,1.1149,1.1521,1.1706,1.1706,1.1929,1.2114,1.2298,1.2305,1.2305,1.2305,0.0,0.0,0.0,0.0,0.0,0.0,0.0,0.1062,0.1065,0.1108,0.1109,0.1109,0.1109,0.1103,0.1086,0.1086,0.1131,0.0,0.0,0.0,0.0,0.0,0.0,0.0,0.0,0.0,0.1202,0.1212,0.1261,0.1272,0.1281,0.1212,0.1198,0.1196,0.1166,0.1152,0.0,0.0,0.0,0.0,0.0,0.0,0.0,0.0,0.0,0.0,0.0,0.0,0.0,0.0,0.0,0.0,0.0,0.0,0.0,0.7723,0.8835,0.9965,1.0877,1.1111,1.1135,1.1206,1.1152,1.1141,1.1212,1.119,1.1166,1.1321,1.1429,1.1603,1.1958,1.2204,1.2373,1.2548,1.265,1.2735,1.2825,1.3,1.3224,1.3483,1.3833,1.4081,1.4165,1.425,1.4081,1.3556,1.3513,1.3278,1.2735,1.2705,1.2705,1.2705,1.2705,1.2705,1.2705,1.2705,1.2705,1.2699,1.2524,1.2439,1.2421,1.194,1.1694,1.1603,1.1555,1.1459,1.1335,1.1595,1.1706,1.1706,1.1929,1.204,1.2114,1.2268,1.2305,1.2305,0.0,0.0,0.0,0.0,0.0,0.0,0.0,0.1109,0.1109,0.1109,0.1109,0.1109,0.1109,0.1113,0.1138,0.1138,0.1213,0.0,0.0,0.0,0.0,0.0,0.0,0.0,0.1155,0.1204,0.1229,0.1229,0.1287,0.1296,0.1296,0.1277,0.1229,0.1228,0.1197,0.1183,0.0,0.0,0.0,0.0,0.0,0.0,0.0,0.0,0.0,0.0,0.0,0.0,0.0,0.0,0.0,0.0,0.0,0.0,0.0,0.0,0.8162,0.9463,1.0407,1.085,1.1154,1.1329,1.12,1.1154,1.1297,1.1238,1.116,1.1297,1.1495,1.1712,1.198,1.2264,1.2481,1.2548,1.2638,1.2705,1.2705,1.2946,1.3224,1.3483,1.3888,1.4111,1.4008,1.4093,1.393,1.3405,1.3369,1.3175,1.2729,1.2705,1.2705,1.2705,1.2705,1.2705,1.2705,1.2608,1.256,1.2554,1.2288,1.2168,1.2149,1.1688,1.1534,1.1593,1.1533,1.1521,0.0,1.1818,1.1892,1.1818,1.204,1.2114,1.212,1.2268,1.2305,1.2305,0.0,0.0,0.0,0.0,0.0,0.0,0.0,0.1109,0.1109,0.1109,0.1109,0.1109,0.1109,0.1165,0.1203,0.1203,0.0,0.0,0.0,0.0,0.0,0.0,0.0,0.0,0.1287,0.1358,0.1414,0.1492,0.1492,0.1492,0.1492,0.1492,0.1453,0.1374,0.1304,0.1253,0.0,0.0,0.0,0.0,0.0,0.0,0.0,0.0,0.0,0.0,0.0,0.0,0.0,0.0,0.0,0.0,0.0,0.0,0.0,0.0,0.0,0.0,0.0,1.0443,1.1111,1.1111,1.1111,1.1111,1.1111,1.1111,0.0,1.1135,1.1501,1.179,1.1585,1.2186,1.2602,1.2379,1.2542,1.2705,1.2705,1.2946,1.323,1.3507,1.3743,1.3779,1.3538,1.3737,1.367,1.3119,1.3083,1.3,1.2717,1.2705,1.2705,1.2705,1.2705,1.2693,1.2681,1.2433,1.2306,1.2282,1.2017,1.1896,1.1924,1.1618,1.1619,1.1794,1.1752,1.1706,1.1744,1.215,1.2194,1.204,1.2224,1.2305,1.2305,1.2305,1.2305,1.2305,0.0,0.0,0.0,0.0,0.0,0.0,0.0,0.0,0.0,0.0,0.1109,0.1109,0.1109,0.1165,0.1203,0.0,0.0,0.0,0.0,0.0,0.0,0.0,0.0,0.0,0.2193,0.2209,0.2547,0.3209,0.3209,0.3209,0.3209,0.3209,0.2859,0.2235,0.2184,0.1869,0.0,0.0,0.0,0.0,0.0,0.0,0.0,0.0,0.0,0.0,0.3389,0.4208,0.0,0.0,0.0,0.0,0.0,0.0,0.0,0.0,0.7529,0.8713,0.8917,0.0,1.1111,1.1111,1.1111,1.1111,0.0,1.1111,1.1172,1.1351,1.1495,1.1688,1.2065,1.2282,1.2451,1.259,1.2662,1.2705,1.2705,1.2946,1.3296,1.3761,1.3688,1.3586,1.3519,1.3568,1.3471,1.3101,1.3083,1.3,1.2717,1.2705,1.2705,1.2705,1.2705,1.2608,1.2409,1.2343,1.2257,1.2212,1.1942,1.1897,1.204,1.179,1.1696,1.1727,1.1887,1.1929,1.1966,1.2187,1.2268,1.2224,1.2268,1.2305,1.2305,1.2305,1.2305,1.2305,0.0,0.0,0.0,0.0,0.0,0.0,0.0,0.0,0.0,0.0,0.0,0.0,0.0,0.0,0.0,0.0,0.0,0.0,0.0,0.0,0.0,0.0,0.0,0.1598,0.2499,0.2493,0.2938,0.3791,0.3791,0.3791,0.3791,0.3791,0.356,0.3093,0.2666,0.2041,0.0,0.0,0.0,0.0,0.0,0.0,0.0,0.0,0.0,0.0,0.3364,0.4082,0.0,0.5623,0.5915,0.5935,0.0,0.0,0.0,0.0,0.7176,0.8246,0.8589,0.9954,1.1266,1.1266,1.1266,1.1266,1.1266,1.1208,1.1154,1.131,1.1405,1.1615,1.2059,1.2234,1.2397,1.2662,1.2705,1.2747,1.288,1.3025,1.3227,1.3676,1.3604,1.3465,1.335,1.3338,1.3224,1.2952,1.2928,1.2813,1.2536,1.2524,1.2469,1.2349,1.2425,1.2419,1.2312,1.2273,1.216,1.2015,1.1852,1.1797,1.1904,1.1783,1.1744,1.1855,1.1966,1.204,1.215,1.2261,1.2305,1.2305,1.2305,1.2305,1.2305,1.2305,1.2305,1.2305,0.0,0.0,0.0,0.0,0.0,0.0,0.0,0.0,0.0,0.0,0.0,0.0,0.0,0.0,0.0,0.0,0.0,0.0,0.0,0.0,0.0,0.0,0.1348,0.1806,0.2665,0.2823,0.3327,0.4183,0.4183,0.4183,0.4183,0.4183,0.4103,0.3947,0.2938,0.2119,0.0,0.0,0.0,0.0,0.0,0.0,0.0,0.0,0.0,0.0,0.0,0.0,0.0,0.5644,0.5925,0.5861,0.5952,0.0,0.0,0.0,0.0,0.0,0.8513,1.0089,1.1483,1.1441,1.1459,1.1483,1.1441,1.1242,1.1111,1.1111,1.1266,1.1507,1.1778,1.2077,1.2337,1.2602,1.2681,1.2801,1.3041,1.3047,1.3157,1.3423,1.3417,1.3302,1.3041,1.3061,1.2921,1.2723,1.2705,1.2608,1.2385,1.2337,1.2251,1.2027,1.2145,1.2252,1.2273,1.2215,1.2087,1.1845,1.179,1.1744,1.1781,1.1781,1.1892,1.204,1.204,1.215,1.2305,1.2305,1.2305,1.2305,1.2305,1.2305,1.2305,1.2305,1.2305,1.2305,0.0,0.0,0.0,0.0,0.0,0.0,0.0,0.0,0.0,0.0,0.0,0.0,0.0,0.0,0.0,0.0,0.0,0.0,0.0,0.0,0.0,0.1298,0.1956,0.2694,0.3599,0.4263,0.5043,0.5906,0.5906,0.5906,0.5906,0.5906,0.5515,0.473,0.3212,0.2433,0.2276,0.0,0.0,0.0,0.1296,0.0,0.0,0.0,0.0,0.0,0.0,0.0,0.0,0.5317,0.5908,0.5959,0.5986,0.0,0.0,0.0,0.0,0.0,0.8665,1.0089,1.1435,1.1232,1.1315,1.1429,1.1194,1.1141,1.1111,1.1111,1.1148,1.1224,1.1501,1.1766,1.2071,1.233,1.256,1.2801,1.3041,1.2916,1.2874,1.3151,1.297,1.2813,1.2771,1.2771,1.2747,1.2705,1.2705,1.2687,1.2644,1.26,1.2542,1.2499,1.2485,1.2351,1.2117,1.2118,1.2069,1.1963,1.1948,1.204,1.2224,1.2224,1.2231,1.2268,1.2268,1.2268,1.2305,1.2305,1.2305,1.2305,1.2305,1.2305,1.2305,1.2305,1.2305,1.2305,0.0,0.0,0.0,0.0,0.0,0.0,0.0,0.0,0.0,0.0,0.0,0.0,0.0,0.0,0.0,0.0,0.0,0.0,0.0,0.0,0.1313,0.1283,0.2517,0.3371,0.3793,0.4572,0.5434,0.63,0.63,0.63,0.63,0.63,0.5828,0.4963,0.4185,0.3329,0.247,0.2119,0.1702,0.0,0.0,0.0,0.0,0.0,0.0,0.0,0.0,0.0,0.0,0.0,0.5796,0.5793,0.5793,0.0,0.0,0.0,0.0,0.0,0.8443,0.943,1.0362,1.0952,1.1285,1.1459,1.1327,1.1182,1.1111,1.1111,1.1111,1.1196,1.1441,1.1706,1.2005,1.227,1.2294,1.2373,1.2644,1.2572,1.259,1.2868,1.2783,1.2705,1.2705,1.2705,1.2644,1.2499,1.2493,1.2367,1.2083,1.2117,1.2101,1.1947,1.2126,1.2151,1.2061,1.2136,1.214,1.2003,1.2114,1.2224,1.2305,1.2305,1.2305,1.2305,1.2305,1.2305,1.2305,1.2305,1.2305,1.2305,1.2305,1.2305,1.2305,1.2305,1.2305,1.2305,0.0,0.0,0.0,0.0,0.0,0.0,0.0,0.0,0.0,0.0,0.0,0.0,0.0,0.0,0.0,0.0,0.0,0.0,0.0,0.132,0.1409,0.1628,0.3041,0.3804,0.3793,0.4768,0.5631,0.63,0.63,0.63,0.63,0.6334,0.5993,0.5361,0.5193,0.4256,0.2829,0.2631,0.2096,0.0,0.0,0.0,0.0,0.0,0.0,0.0,0.0,0.0,0.0,0.0,0.0,0.0,0.0,0.0,0.0,0.5915,0.6111,0.6611,0.8205,0.8971,0.9581,1.0714,1.1242,1.1495,1.1495,1.1327,1.1226,1.1248,1.1304,1.1365,1.1543,1.1796,1.2095,1.2361,1.2234,1.2174,1.2373,1.2403,1.2481,1.2681,1.2705,1.2681,1.262,1.265,1.2589,1.2281,1.2304,1.2168,1.176,1.1874,1.1853,1.1627,1.193,1.2077,1.2077,1.2231,1.2231,1.2077,1.2224,1.2305,1.2305,1.2305,1.2305,1.2305,1.2305,1.2305,1.2305,1.2305,1.2305,1.2305,1.2305,1.2305,1.2305,1.2305,1.2305,1.2305,0.0,0.0,0.0,0.0,0.0,0.0,0.0,0.0,0.0,0.0,0.0,0.0,0.0,0.0,0.0,0.0,0.0,0.0,0.0,0.1289,0.167,0.2555,0.3362,0.3804,0.3793,0.5395,0.6219,0.63,0.63,0.63,0.6303,0.6433,0.6458,0.6381,0.5735,0.4877,0.3839,0.309,0.2219,0.1302,0.13,0.0,0.0,0.0,0.0,0.0,0.0,0.0,0.0,0.0,0.0,0.0,0.0,0.0,0.5949,0.5857,0.6423,0.7319,0.8254,0.916,0.9997,1.0597,1.1104,1.1495,1.1495,1.1477,1.1531,1.1778,1.1826,1.1832,1.185,1.2107,1.2373,1.2632,1.2662,1.2656,1.2674,1.2674,1.2687,1.2699,1.2705,1.2608,1.2367,1.2508,1.2521,1.2249,1.2391,1.2452,1.2414,1.2369,1.2331,1.235,1.2302,1.2268,1.2268,1.2298,1.2298,1.2268,1.2298,1.2305,1.2305,1.2305,1.2305,1.2305,1.2305,1.2305,1.2305,1.2305,1.2305,1.2305,1.2305,1.2305,1.2305,1.2305,1.2305,1.2305,0.0,0.0,0.0,0.0,0.0,0.0,0.0,0.0,0.0,0.0,0.0,0.0,0.0,0.0,0.0,0.0,0.0,0.0,0.0,0.1286,0.1697,0.2544,0.3378,0.4046,0.4535,0.5709,0.63,0.63,0.63,0.6344,0.6433,0.6487,0.6562,0.6614,0.6285,0.5615,0.4716,0.4324,0.3718,0.2935,0.2358,0.0,0.0,0.0,0.0,0.0,0.0,0.0,0.0,0.0,0.5925,0.5949,0.5803,0.5817,0.5861,0.5711,0.5987,0.663,0.8093,0.8837,0.9437,1.0652,1.1117,1.123,1.123,1.123,1.1357,1.179,1.1754,1.1742,1.2107,1.2432,1.2753,1.3026,1.3294,1.3357,1.3093,1.2924,1.2722,1.2481,1.2318,1.218,1.2077,1.2233,1.2243,1.1971,1.2148,1.2189,1.1999,1.208,1.2135,1.2135,1.2254,1.2305,1.2305,1.2305,1.2305,1.2305,1.2305,1.2305,1.2305,1.2305,1.2305,1.2305,1.2305,1.2305,1.2305,1.2305,1.2305,1.2305,1.2305,1.2305,1.2305,1.2305,1.2305,1.2305,0.0,0.0,0.0,0.0,0.0,0.0,0.0,0.0,0.0,0.0,0.0,0.0,0.0,0.0,0.0,0.0,0.0,0.0,0.1295,0.1286,0.1817,0.2936,0.3496,0.4341,0.5454,0.6006,0.63,0.63,0.63,0.6351,0.6446,0.6542,0.6573,0.6627,0.662,0.6097,0.5233,0.5148,0.4642,0.3893,0.3256,0.3047,0.0,0.0,0.0,0.0,0.0,0.0,0.0,0.0,0.5766,0.5776,0.5633,0.5657,0.5705,0.5559,0.565,0.618,0.792,0.8476,0.897,1.0578,1.1051,1.1111,1.1111,1.1178,1.1395,1.1938,1.1968,1.2051,1.2539,1.2829,1.3099,1.3492,1.372,1.3794,1.3595,1.318,1.2895,1.2881,1.2345,1.2089,1.2313,1.2307,1.2161,1.1878,1.2043,1.2074,1.1905,1.2003,1.2077,1.2077,1.2224,1.2305,1.2305,1.2305,1.2305,1.2305,1.2305,1.2305,1.2305,1.2305,1.2305,1.2305,1.2305,1.2305,1.2305,1.2305,1.2305,1.2305,1.2305,1.2305,1.2305,1.2305,1.2305,1.2305,0.0,0.0,0.0,0.0,0.0,0.0,0.0,0.0,0.0,0.0,0.0,0.0,0.0,0.0,0.0,0.0,0.0,0.0,0.1296,0.1325,0.2112,0.3927,0.3887,0.4653,0.6471,0.6375,0.6303,0.6303,0.63,0.6303,0.631,0.6563,0.6617,0.6528,0.679,0.6323,0.5311,0.5311,0.4728,0.3813,0.3813,0.3804,0.3718,0.0,0.0,0.0,0.0,0.0,0.0,0.0,0.5684,0.5776,0.5633,0.5593,0.5562,0.544,0.5607,0.6154,0.7778,0.8248,0.8702,1.0311,1.0918,1.1111,1.1105,1.1329,1.1639,1.2198,1.2518,1.2826,1.33,1.3288,1.3416,1.4007,1.3879,1.3835,1.4165,1.3403,1.318,1.408,1.3002,1.2516,1.3224,1.2752,1.2291,1.2022,1.2194,1.2305,1.2305,1.2305,1.2305,1.2305,1.2305,1.2305,1.2305,1.2305,1.2305,1.2305,1.2305,1.2305,1.2305,1.2305,1.2305,1.2305,1.2305,1.2305,1.2305,1.2305,1.2305,1.2305,1.2305,1.2305,1.2305,1.2305,1.2305,1.2305,0.0,0.0,0.0,0.0,0.0,0.0,0.0,0.0,0.0,0.0,0.0,0.0,0.0,0.0,0.0,0.0,0.0,0.0,0.1986,0.2079,0.2857,0.4505,0.4621,0.5213,0.6471,0.6536,0.6519,0.645,0.6351,0.6405,0.6569,0.6549,0.6573,0.663,0.6614,0.6457,0.6121,0.6029,0.5882,0.5638,0.4948,0.4687,0.4695,0.0,0.0,0.0,0.0,0.0,0.0,0.0,0.0,0.0,0.5633,0.5732,0.583,0.5501,0.5607,0.6097,0.7541,0.8179,0.8745,1.0096,1.0743,1.1063,1.0876,1.1158,1.1537,1.1688,1.2049,1.2557,1.3279,1.3886,1.4488,1.5187,1.5606,1.5666,1.5049,1.4576,1.4191,1.3948,1.3422,1.308,1.3019,1.2975,1.2681,1.2046,1.2194,1.2305,1.2305,1.2305,1.2305,1.2305,1.2305,1.2305,1.2305,1.2305,1.2305,1.2305,1.2305,1.2305,1.2305,1.2305,1.2305,1.2305,1.2305,1.2305,1.2305,1.2305,1.2305,1.2305,1.2305,1.2305,1.2305,1.2305,1.2305,1.2305,0.0,0.0,0.0,0.0,0.0,0.0,0.0,0.0,0.0,0.0,0.175,0.1649,0.0,0.0,0.0,0.0,0.0,0.0,0.0,0.2608,0.317,0.4745,0.4936,0.5454,0.6468,0.662,0.6685,0.6654,0.6484,0.6474,0.6607,0.6555,0.6532,0.6525,0.6528,0.648,0.6419,0.623,0.6293,0.6343,0.5689,0.5505,0.5555,0.0,0.0,0.0,0.0,0.0,0.0,0.0,0.0,0.0,0.5701,0.5796,0.5884,0.5613,0.5705,0.6194,0.7685,0.826,0.877,1.0253,1.0876,1.1099,1.1125,1.1406,1.165,1.1766,1.2054,1.2592,1.3482,1.4079,1.4797,1.5791,1.6199,1.6226,1.5753,1.5254,1.4882,1.4801,1.4221,1.3882,1.4027,1.3882,1.3564,1.3055,1.2879,1.2915,1.32,1.2952,1.2776,1.2776,1.2776,1.2776,1.2776,1.2776,1.2915,1.32,1.2915,1.2776,1.2776,1.2445,1.2305,1.2305,1.2305,1.2305,1.2305,1.2305,1.2305,1.2305,1.2305,1.2305,1.2305,1.2305,1.2305,1.2305,0.0,0.0,0.0,0.0,0.0,0.0,0.0,0.0,0.0,0.0,0.2627,0.2353,0.0,0.0,0.0,0.0,0.0,0.0,0.0,0.0,0.3283,0.486,0.5073,0.5607,0.6512,0.6661,0.681,0.6906,0.6627,0.6518,0.6532,0.6504,0.6422,0.6306,0.6433,0.6419,0.6289,0.6108,0.6132,0.6286,0.6108,0.6135,0.6222,0.5434,0.0,0.0,0.0,0.0,0.0,0.0,0.0,0.0,0.5806,0.582,0.5837,0.581,0.5911,0.6358,0.7924,0.8327,0.8746,1.0498,1.102,1.1222,1.1699,1.18,1.1883,1.2113,1.2311,1.2785,1.3814,1.4077,1.4626,1.6041,1.6057,1.5982,1.6272,1.5586,1.5338,1.6202,1.5215,1.4816,1.5719,1.5144,1.4673,1.4601,1.3998,1.389,1.4565,1.3962,1.36,1.36,1.36,1.36,1.36,1.36,1.3926,1.4601,1.3926,1.36,1.3571,1.2703,1.2305,1.2305,1.2305,1.2305,1.2305,1.2305,1.2305,1.2305,1.2305,1.2305,1.2305,1.2305,1.2305,1.2305,0.0,0.0,0.0,0.0,0.0,0.0,0.0,0.0,0.0,0.0,0.0,0.0,0.0,0.0,0.0,0.0,0.0,0.0,0.0,0.0,0.4145,0.5688,0.6119,0.6468,0.6827,0.6927,0.7018,0.7051,0.6675,0.6573,0.6647,0.6453,0.633,0.6303,0.633,0.6327,0.6296,0.6265,0.6269,0.6296,0.6262,0.6269,0.63,0.6103,0.5497,0.0,0.0,0.0,0.0,0.0,0.0,0.0,0.584,0.5966,0.6153,0.5871,0.5911,0.6189,0.7005,0.783,0.8646,0.9348,1.0283,1.1131,1.1627,1.1839,1.1914,1.1839,1.1965,1.2553,1.3976,1.4361,1.5,1.6492,1.671,1.6586,1.6342,1.6132,1.6061,1.6272,1.6053,1.5833,1.5798,1.5657,1.5294,1.4637,1.4458,1.4422,1.4601,1.4458,1.435,1.435,1.435,1.435,1.435,1.435,1.4422,1.4601,1.4422,1.435,1.4322,1.2915,1.2305,1.2305,1.2305,1.2305,1.2305,1.2305,1.2305,1.2305,1.2305,1.2305,1.2305,1.2305,1.2305,1.2305,0.0,0.0,0.0,0.0,0.0,0.0,0.0,0.0,0.0,0.0,0.0,0.0,0.0,0.0,0.0,0.0,0.0,0.0,0.0,0.4445,0.4909,0.6195,0.6536,0.6736,0.6817,0.692,0.6997,0.6997,0.6658,0.6552,0.6695,0.6436,0.63,0.63,0.63,0.63,0.6293,0.6179,0.6193,0.6293,0.6179,0.6196,0.63,0.63,0.5747,0.5112,0.586,0.0,0.0,0.0,0.0,0.0,0.0,0.0,0.6269,0.6105,0.6078,0.6311,0.7009,0.7604,0.8249,0.9244,1.0239,1.1111,1.1606,1.1855,1.2003,1.2003,1.2077,1.2475,1.3557,1.4243,1.5002,1.6184,1.6656,1.6839,1.6621,1.6595,1.6595,1.6595,1.6595,1.6517,1.6333,1.6333,1.6149,1.5719,1.5357,1.5321,1.5683,1.5357,1.518,1.518,1.518,1.518,1.518,1.518,1.5357,1.5719,1.5321,1.4966,1.4565,1.3382,1.2666,1.2305,1.2305,1.2305,1.2305,1.2305,1.2519,1.2849,1.2445,1.2556,1.2849,1.2445,1.2305,1.2305,0.0,0.0,0.0,0.0,0.0,0.0,0.0,0.0,0.0,0.0,0.0,0.0,0.0,0.0,0.0,0.0,0.0,0.0,0.0,0.5448,0.5608,0.6461,0.6617,0.6702,0.6702,0.6851,0.6873,0.6849,0.661,0.6552,0.6695,0.6436,0.63,0.63,0.63,0.63,0.6289,0.6125,0.6142,0.6289,0.6122,0.6146,0.63,0.63,0.5867,0.5318,0.6025,0.5828,0.5318,0.6064,0.0,0.0,0.0,0.0,0.6293,0.6269,0.6279,0.6447,0.7065,0.7359,0.7859,0.949,1.0396,1.0991,1.1545,1.1818,1.204,1.2224,1.2228,1.2458,1.312,1.3837,1.4644,1.564,1.6298,1.676,1.6874,1.6908,1.6908,1.6908,1.6908,1.6908,1.6908,1.6908,1.6908,1.6908,1.6333,1.6263,1.6874,1.6333,1.5974,1.5974,1.5974,1.5974,1.5974,1.5974,1.6298,1.6908,1.6298,1.5578,1.478,1.4178,1.339,1.2519,1.2519,1.2409,1.2305,1.2445,1.2915,1.3462,1.2915,1.3098,1.36,1.2806,1.2519,1.2482,0.0,0.0,0.0,0.0,0.0,0.0,0.0,0.0,0.0,0.0,0.6141,0.6008,0.5707,0.5654,0.0,0.0,0.0,0.0,0.4926,0.0,0.0,0.6504,0.6617,0.6702,0.6702,0.6851,0.6865,0.6729,0.6556,0.6552,0.6695,0.6436,0.63,0.63,0.63,0.63,0.6296,0.6279,0.6279,0.6296,0.6276,0.6282,0.63,0.63,0.6222,0.6141,0.6261,0.6222,0.6141,0.6261,0.63,0.0,0.0,0.0,0.6272,0.6101,0.6156,0.6269,0.6208,0.6727,0.7654,0.9449,1.0121,1.051,1.1254,1.1744,1.2003,1.204,1.1995,1.2249,1.3259,1.3335,1.3761,1.5527,1.5868,1.6158,1.6795,1.6908,1.6908,1.6908,1.6908,1.6908,1.6908,1.6908,1.6908,1.6908,1.6795,1.6804,1.6908,1.6795,1.676,1.676,1.676,1.676,1.676,1.676,1.6795,1.6908,1.6804,1.6368,1.5657,1.5542,1.4716,1.3353,1.3353,1.2952,1.2342,1.3062,1.339,1.3535,1.4106,1.435,1.435,1.36,1.3353,1.3244,0.0,0.0,0.0,0.0,0.0,0.0,0.0,0.0,0.0,0.0,0.0,0.6242,0.601,0.5915,0.0,0.0,0.0,0.0,0.4747,0.5629,0.0,0.6385,0.6535,0.6573,0.6573,0.6637,0.6641,0.6573,0.6467,0.6511,0.6695,0.6521,0.6463,0.6505,0.6457,0.6419,0.6412,0.6334,0.63,0.63,0.63,0.6347,0.6409,0.633,0.6351,0.6409,0.6327,0.63,0.63,0.63,0.63,0.6272,0.6078,0.0,0.0,0.0,0.5949,0.6006,0.5986,0.6541,0.736,0.8306,0.9285,1.0114,1.0591,1.1409,1.2003,1.2003,1.1962,1.2046,1.2534,1.2827,1.3402,1.4718,1.5407,1.6044,1.6804,1.6908,1.6908,1.6908,1.6908,1.6908,1.6908,1.6908,1.6908,1.6908,1.6908,1.6908,1.6908,1.6908,1.6908,1.6908,1.6908,1.6908,1.6908,1.6908,1.6908,1.6908,1.6908,1.6726,1.6403,1.6403,1.5578,1.4106,1.4106,1.3918,1.3637,1.3962,1.4394,1.4788,1.4637,1.4895,1.518,1.4394,1.4106,1.3968,0.0,0.0,0.0,0.0,0.0,0.0,0.0,0.0,0.0,0.0,0.0,0.0,0.601,0.0,0.0,0.0,0.0,0.0,0.4624,0.0,0.0,0.0,0.0,0.646,0.646,0.6494,0.6494,0.646,0.6351,0.6453,0.6698,0.6583,0.663,0.6803,0.6614,0.6549,0.6504,0.6399,0.6354,0.6354,0.6354,0.6416,0.6504,0.6436,0.6453,0.6497,0.6392,0.633,0.63,0.63,0.63,0.6265,0.603,0.5959,0.0,0.0,0.0,0.5789,0.5942,0.6396,0.6913,0.7397,0.8387,0.9383,0.9734,1.0694,1.1552,1.1626,1.1644,1.1742,1.1857,1.2353,1.3072,1.4134,1.483,1.5613,1.6726,1.6726,1.6691,1.6874,1.6908,1.6908,1.6908,1.6908,1.6908,1.6908,1.6908,1.6908,1.6908,1.6807,1.6807,1.6899,1.6707,1.6697,1.6908,1.6908,1.6908,1.6908,1.6908,1.6908,1.6908,1.6908,1.6254,1.518,1.5002,1.478,1.4601,1.4824,1.5259,1.5762,1.5357,1.5542,1.5974,1.5215,1.4887,1.4732,0.0,0.0,0.0,0.0,0.0,0.0,0.0,0.0,0.0,0.0,0.0,0.0,0.601,0.5891,0.5745,0.5575,0.4778,0.0,0.0,0.0,0.0,0.0,0.0,0.0,0.631,0.6443,0.6446,0.631,0.6303,0.6453,0.6702,0.6692,0.6841,0.7061,0.6817,0.6607,0.6511,0.6504,0.6501,0.6501,0.6501,0.6504,0.6528,0.6624,0.6593,0.6511,0.6504,0.6416,0.63,0.63,0.63,0.6245,0.5908,0.5911,0.5936,0.0,0.0,0.0,0.5915,0.603,0.6289,0.7248,0.7672,0.7981,0.8627,0.9561,1.034,1.0527,1.0868,1.1288,1.1817,1.1942,1.2522,1.4272,1.4055,1.4394,1.6586,1.6298,1.6123,1.6839,1.6908,1.6908,1.6908,1.6908,1.6908,1.6908,1.6908,1.6908,1.6908,1.6551,1.6523,1.6899,1.6156,1.612,1.6899,1.6908,1.6908,1.6908,1.6908,1.6908,1.6908,1.6908,1.6874,1.6726,1.6044,1.5294,1.4681,1.5436,1.5762,1.5868,1.6508,1.6795,1.676,1.6009,1.5727,1.5562,0.0,0.0,0.0,0.0,0.0,0.0,0.0,0.0,0.0,0.0,0.0,0.0,0.0,0.5952,0.56,0.5083,0.4159,0.0,0.0,0.0,0.0,0.0,0.0,0.0,0.6296,0.6351,0.6351,0.63,0.63,0.6402,0.6556,0.6556,0.661,0.6712,0.6705,0.6671,0.6607,0.6457,0.6375,0.6381,0.6474,0.6573,0.6614,0.6569,0.6644,0.6739,0.6542,0.6477,0.6436,0.6436,0.6375,0.6245,0.5898,0.5837,0.5827,0.5566,0.5545,0.5613,0.5718,0.5813,0.6016,0.6576,0.7061,0.7516,0.7957,0.8784,0.9599,1.0207,1.0482,1.0926,1.1794,1.1731,1.2019,1.3371,1.3925,1.4681,1.6009,1.6368,1.6621,1.6874,1.6908,1.6908,1.6908,1.6908,1.6908,1.6908,1.6908,1.6908,1.6908,1.6532,1.6386,1.6523,1.5982,1.5955,1.6523,1.678,1.6908,1.6908,1.6908,1.6908,1.6908,1.6908,1.6908,1.6874,1.6621,1.6333,1.6114,1.6403,1.6517,1.6517,1.6804,1.6908,1.6874,1.6621,1.6355,1.595,0.0,0.0,0.0,0.0,0.0,0.0,0.0,0.0,0.63,0.63,0.0,0.0,0.0,0.0,0.5564,0.4751,0.4042,0.3445,0.2995,0.3924,0.0,0.0,0.0,0.0,0.6293,0.6347,0.6347,0.63,0.6347,0.6419,0.6511,0.6511,0.6542,0.6552,0.6603,0.6624,0.661,0.6457,0.6371,0.6385,0.6528,0.658,0.6627,0.6678,0.6729,0.6756,0.6603,0.6525,0.6443,0.6443,0.6378,0.6245,0.5898,0.5732,0.5616,0.5453,0.5467,0.5559,0.5576,0.5694,0.5864,0.6118,0.6516,0.6877,0.7157,0.7821,0.8647,0.9593,1.0007,1.0562,1.1766,1.1725,1.1838,1.2976,1.3531,1.4279,1.5613,1.5974,1.6324,1.6839,1.6908,1.6908,1.6908,1.6908,1.6908,1.6908,1.6908,1.6908,1.6908,1.6395,1.5982,1.5684,1.5698,1.5762,1.5909,1.6441,1.6707,1.6707,1.6844,1.6908,1.6908,1.6908,1.6908,1.6908,1.6908,1.6908,1.6908,1.6908,1.6908,1.6908,1.6908,1.6908,1.6908,1.6908,1.6661,1.6191,0.0,0.0,0.0,0.0,0.0,0.0,0.0,0.0,0.63,0.63,0.0,0.0,0.0,0.0,0.0,0.4759,0.4575,0.4558,0.4668,0.4569,0.0,0.0,0.0,0.0,0.6293,0.6436,0.6436,0.63,0.6436,0.6504,0.6504,0.6504,0.6542,0.6675,0.6529,0.6501,0.6494,0.6497,0.6504,0.6525,0.663,0.6607,0.6573,0.6963,0.6861,0.6552,0.6654,0.6522,0.632,0.632,0.6313,0.6252,0.5901,0.5599,0.5395,0.5395,0.5395,0.5426,0.0,0.0,0.0,0.5952,0.599,0.6064,0.6262,0.6738,0.7513,0.8718,0.9369,1.0193,1.1686,1.1774,1.1993,1.3266,1.2849,1.3127,1.5401,1.5108,1.518,1.6691,1.6883,1.6917,1.6908,1.6917,1.6917,1.6908,1.6908,1.6908,1.6908,1.6138,1.5322,1.4543,1.5267,1.5487,1.5102,1.59,1.6279,1.6288,1.6707,1.6899,1.6908,1.6908,1.6908,1.6908,1.6908,1.6899,1.689,1.6899,1.6908,1.6908,1.6908,1.6908,1.6908,1.6908,1.6652,1.6239,0.0,0.0,0.0,0.0,0.0,0.6515,0.6327,0.63,0.63,0.0,0.0,0.0,0.6105,0.5956,0.5554,0.4751,0.4682,0.4464,0.3993,0.4288,0.472,0.5265,0.5626,0.5945,0.6293,0.6337,0.6337,0.63,0.6337,0.6358,0.6358,0.6358,0.6281,0.6178,0.6288,0.6235,0.5993,0.6105,0.6274,0.6508,0.6446,0.6552,0.6803,0.6817,0.6878,0.6946,0.6888,0.6814,0.6746,0.6746,0.6597,0.6381,0.5928,0.5599,0.5395,0.5395,0.5395,0.5402,0.5446,0.0,0.0,0.0,0.0,0.0,0.6238,0.6329,0.6593,0.7492,0.8225,0.9129,1.047,1.1186,1.1785,1.2318,1.2842,1.339,1.4034,1.4895,1.5613,1.6044,1.6829,1.722,1.6936,1.7165,1.7211,1.6927,1.6908,1.6908,1.6908,1.6138,1.5322,1.4543,1.5001,1.5212,1.5102,1.5606,1.601,1.6288,1.6398,1.6633,1.6908,1.6908,1.6908,1.6908,1.6908,1.6743,1.6505,1.6789,1.6908,1.6908,1.6908,1.6908,1.6908,1.6908,1.6459,1.5845,0.0,0.0,0.0,0.6617,0.6573,0.6463,0.632,0.63,0.63,0.0,0.0,0.0,0.6135,0.6047,0.5841,0.5393,0.5249,0.5029,0.4682,0.485,0.5086,0.5332,0.563,0.5915,0.6159,0.6323,0.6361,0.63,0.6361,0.6358,0.63,0.63,0.6176,0.5996,0.6125,0.6064,0.5895,0.5861,0.6017,0.6298,0.64,0.6563,0.6749,0.6848,0.6915,0.691,0.6893,0.6846,0.6834,0.6834,0.6634,0.6354,0.5925,0.5684,0.5556,0.5433,0.544,0.5477,0.5412,0.5395,0.5474,0.5766,0.0,0.0,0.6037,0.5952,0.6096,0.6991,0.7556,0.8362,1.0046,1.0885,1.1508,1.2091,1.2747,1.3285,1.3477,1.4286,1.4939,1.5259,1.6339,1.6965,1.6706,1.7179,1.7394,1.7165,1.7,1.6762,1.6413,1.5945,1.5322,1.4543,1.4735,1.4854,1.4854,1.5249,1.557,1.5817,1.6156,1.6407,1.667,1.6835,1.6908,1.6899,1.6734,1.6532,1.6321,1.6376,1.6395,1.6413,1.6587,1.656,1.6395,1.6395,1.6024,1.5536,0.0,0.0,0.6614,0.6532,0.6501,0.6453,0.634,0.631,0.6313,0.0,0.6334,0.633,0.6347,0.632,0.6306,0.6323,0.6003,0.5884,0.5983,0.5752,0.5654,0.5793,0.5786,0.5847,0.5963,0.6278,0.6402,0.6276,0.6419,0.6422,0.63,0.6282,0.6152,0.5969,0.5969,0.5949,0.5905,0.5728,0.5779,0.604,0.6441,0.6569,0.6563,0.6929,0.6922,0.6742,0.6861,0.6827,0.6725,0.6725,0.6529,0.6272,0.5945,0.584,0.5772,0.5525,0.5542,0.5583,0.5481,0.5443,0.5477,0.5579,0.5559,0.0,0.5725,0.5691,0.5892,0.6831,0.711,0.7768,0.9827,1.0457,1.0981,1.1974,1.2381,1.2783,1.3287,1.3455,1.3797,1.4441,1.5596,1.6342,1.6452,1.7008,1.7423,1.7495,1.7128,1.6569,1.5799,1.5716,1.5368,1.4671,1.4561,1.4533,1.4579,1.4882,1.5056,1.5111,1.5881,1.6215,1.6257,1.6661,1.6844,1.6817,1.6422,1.6215,1.6221,1.5845,1.5689,1.5725,1.6101,1.6019,1.5721,1.5721,1.5568,1.5349,0.0,0.6446,0.6412,0.6497,0.6416,0.6371,0.6457,0.6375,0.6385,0.6583,0.6549,0.6518,0.6603,0.6443,0.6344,0.646,0.6156,0.5959,0.599,0.5752,0.5654,0.5793,0.5691,0.5698,0.5844,0.6023,0.6101,0.6074,0.6265,0.6327,0.6296,0.6132,0.5993,0.5844,0.5844,0.5715,0.5545,0.5817,0.5981,0.6078,0.6016,0.6322,0.682,0.6664,0.6719,0.6829,0.6776,0.6807,0.6842,0.6842,0.6681,0.6439,0.6265,0.6084,0.5912,0.5769,0.5735,0.5752,0.5725,0.5715,0.5722,0.5752,0.583,0.0,0.5674,0.5698,0.5777,0.5895,0.6437,0.7057,0.7591,0.8636,0.9589,1.0224,1.0889,1.1624,1.2412,1.3275,1.388,1.403,1.5114,1.6065,1.6669,1.6646,1.6864,1.7459,1.7128,1.6697,1.6221,1.5872,1.5615,1.546,1.4845,1.4671,1.4983,1.4744,1.4781,1.5111,1.5588,1.5808,1.5826,1.6239,1.6431,1.6379,1.5991,1.5808,1.5808,1.5716,1.5689,1.5698,1.578,1.5827,1.5849,1.5849,1.5726,1.5555,0.6392,0.6351,0.6323,0.6395,0.6347,0.6347,0.6491,0.6453,0.6487,0.6671,0.6702,0.6702,0.6702,0.6569,0.6518,0.6511,0.62,0.5959,0.5922,0.5711,0.5589,0.5617,0.5586,0.5623,0.5694,0.5915,0.5993,0.5993,0.6183,0.63,0.6296,0.6101,0.5952,0.5908,0.5762,0.5654,0.562,0.5731,0.5886,0.6042,0.6115,0.6441,0.6823,0.6658,0.6681,0.6803,0.6729,0.6749,0.6793,0.6644,0.6539,0.6474,0.6213,0.6193,0.6207,0.5979,0.5969,0.5996,0.5844,0.58,0.58,0.58,0.5806,0.0,0.0,0.5586,0.5603,0.5681,0.5985,0.6441,0.7171,0.7906,0.8644,0.9379,1.0472,1.1276,1.1321,1.2355,1.311,1.311,1.4185,1.5033,1.5411,1.6025,1.6604,1.7176,1.7018,1.6734,1.6306,1.612,1.5909,1.5698,1.5111,1.49,1.5102,1.4708,1.4616,1.4808,1.5212,1.5395,1.5414,1.5817,1.6001,1.5982,1.5579,1.5395,1.5377,1.5184,1.5102,1.512,1.5322,1.5361,1.53,1.53,1.5331,1.5403,0.6293,0.63,0.63,0.63,0.63,0.6347,0.6491,0.6491,0.6538,0.6678,0.6858,0.6879,0.68,0.6759,0.6705,0.661,0.6278,0.6034,0.5939,0.5742,0.5576,0.5484,0.5538,0.5589,0.5589,0.585,0.5949,0.5949,0.6139,0.6255,0.6252,0.603,0.5909,0.5899,0.573,0.5689,0.5745,0.5767,0.5878,0.6125,0.6408,0.6622,0.6729,0.6661,0.663,0.6658,0.6658,0.6637,0.6586,0.6446,0.6443,0.647,0.619,0.6278,0.646,0.6152,0.6162,0.6245,0.5956,0.5891,0.5874,0.5817,0.5739,0.565,0.0,0.0,0.0,0.5674,0.5627,0.5895,0.6966,0.7311,0.7718,0.8577,1.0008,1.0816,1.0331,1.1327,1.2198,1.2365,1.3276,1.3973,1.425,1.5548,1.6525,1.6866,1.6908,1.6771,1.645,1.6325,1.6156,1.5817,1.5349,1.5102,1.5102,1.4708,1.4515,1.4485,1.4909,1.5065,1.5001,1.5395,1.5579,1.5551,1.5157,1.5029,1.5065,1.4671,1.4515,1.4543,1.4864,1.4863,1.4715,1.4745,1.4961,1.5215,0.6349,0.63,0.63,0.63,0.63,0.6347,0.6491,0.6405,0.6426,0.6664,0.69,0.7065,0.7048,0.6933,0.6903,0.7011,0.6556,0.632,0.6429,0.6006,0.5769,0.5752,0.5647,0.5589,0.5589,0.5745,0.5827,0.5827,0.5979,0.602,0.6013,0.5772,0.564,0.5637,0.5807,0.5769,0.5655,0.61,0.6404,0.6518,0.6555,0.6584,0.6501,0.6392,0.6429,0.6538,0.6538,0.6457,0.6385,0.6573,0.6569,0.6508,0.6474,0.6484,0.648,0.632,0.6286,0.6293,0.6255,0.6245,0.618,0.5871,0.5891,0.5874,0.5511,0.0,0.5535,0.5467,0.0,0.547,0.5622,0.0,0.0,0.6865,0.8192,0.9263,0.9706,1.0784,1.1817,1.2643,1.2878,1.3449,1.4703,1.5756,1.6525,1.6866,1.6908,1.689,1.6844,1.6471,1.626,1.6215,1.5505,1.5102,1.5102,1.4708,1.4515,1.4485,1.4909,1.4919,1.4588,1.4983,1.5166,1.5148,1.4753,1.4781,1.5065,1.4671,1.4515,1.4485,1.4561,1.4623,1.4715,1.4902,1.5059,1.5215,0.6514,0.649,0.649,0.649,0.6374,0.6347,0.6491,0.6573,0.6756,0.7051,0.7119,0.7129,0.7265,0.7068,0.6943,0.7085,0.6756,0.6505,0.6515,0.6255,0.5989,0.581,0.5745,0.5674,0.5593,0.5728,0.5762,0.5677,0.5827,0.5898,0.5891,0.5688,0.5681,0.584,0.6005,0.6101,0.6194,0.657,0.671,0.6626,0.6738,0.6704,0.6566,0.6479,0.645,0.6388,0.6388,0.6425,0.6454,0.645,0.6521,0.6581,0.6695,0.6637,0.6501,0.6565,0.6505,0.6405,0.6323,0.63,0.6245,0.5989,0.5915,0.5827,0.5555,0.5508,0.5498,0.5525,0.0,0.0,0.0,0.0,0.0,0.0,0.759,0.882,0.8815,1.0485,1.1884,1.2425,1.2184,1.2533,1.3966,1.4851,1.5772,1.6771,1.6883,1.7009,1.7238,1.6872,1.6661,1.6661,1.5863,1.5441,1.5441,1.4827,1.4515,1.4515,1.468,1.4671,1.4515,1.468,1.4753,1.4744,1.4579,1.4607,1.4744,1.4579,1.4515,1.4506,1.4586,1.4725,1.4872,1.497,1.5147,1.5313,0.685,0.6743,0.6676,0.6676,0.6563,0.65,0.657,0.6778,0.7013,0.7268,0.7248,0.7248,0.7405,0.7217,0.7112,0.7213,0.7031,0.6837,0.6767,0.6549,0.632,0.6057,0.5928,0.5817,0.5711,0.5769,0.5732,0.5589,0.5691,0.5742,0.5739,0.5596,0.5675,0.5913,0.6144,0.6394,0.6607,0.6987,0.7017,0.6829,0.7005,0.6952,0.6746,0.6709,0.6602,0.6451,0.6451,0.6563,0.6657,0.65,0.6578,0.6714,0.6865,0.6752,0.6648,0.6774,0.6731,0.6584,0.6443,0.6374,0.6325,0.6017,0.5884,0.5752,0.5569,0.5508,0.5491,0.5566,0.5566,0.0,0.0,0.0,0.5539,0.5645,0.0,0.8314,0.8206,0.9963,1.1434,1.1981,1.1757,1.1991,1.3127,1.3986,1.508,1.6459,1.6866,1.7193,1.7477,1.722,1.6972,1.6752,1.6056,1.5634,1.5533,1.4854,1.4515,1.4515,1.4515,1.4515,1.4515,1.4515,1.4515,1.4515,1.4515,1.4515,1.4515,1.4536,1.4565,1.4556,1.4725,1.4902,1.5059,1.5059,1.5176,1.5362,0.7387,0.7129,0.6899,0.6899,0.6899,0.6843,0.6817,0.6893,0.7017,0.7109,0.7275,0.7412,0.7415,0.7495,0.758,0.7584,0.7441,0.7395,0.7388,0.6929,0.6681,0.6671,0.6254,0.5983,0.5979,0.5874,0.5732,0.5589,0.5596,0.5596,0.5593,0.5474,0.5472,0.5652,0.6165,0.6473,0.6645,0.7213,0.7457,0.7395,0.7463,0.7361,0.7173,0.698,0.6899,0.6865,0.6865,0.6903,0.6899,0.6896,0.6896,0.6899,0.6903,0.6907,0.6868,0.6911,0.6907,0.6834,0.6641,0.6602,0.645,0.5954,0.5803,0.5725,0.547,0.5515,0.5586,0.5589,0.5694,0.5789,0.5793,0.5789,0.5777,0.5776,0.6543,0.0,0.0,0.9002,1.0048,1.128,1.169,1.2095,1.2596,1.3603,1.4669,1.586,1.6902,1.7486,1.7495,1.7486,1.7128,1.6325,1.5918,1.5505,1.512,1.4717,1.4515,1.4515,1.4515,1.4515,1.4515,1.4515,1.4515,1.4515,1.4515,1.4515,1.4506,1.4636,1.4686,1.4715,1.4911,1.5059,1.5186,1.5186,1.5215,1.5215,0.7664,0.745,0.7253,0.7138,0.7075,0.7088,0.7178,0.7212,0.7375,0.784,0.7763,0.7682,0.7787,0.7847,0.7785,0.76,0.7553,0.7522,0.7522,0.719,0.6906,0.6854,0.6607,0.6383,0.6186,0.617,0.5972,0.5589,0.5589,0.5589,0.5586,0.5561,0.5666,0.5944,0.6548,0.6857,0.703,0.7512,0.7699,0.7656,0.7557,0.7446,0.7369,0.7176,0.7022,0.6903,0.6903,0.698,0.7103,0.7103,0.7103,0.7138,0.7253,0.7134,0.6942,0.7061,0.6908,0.667,0.6633,0.6515,0.6331,0.6082,0.5909,0.5769,0.5569,0.5552,0.5589,0.5589,0.5701,0.58,0.58,0.58,0.5783,0.5806,0.6635,0.751,0.0,0.9374,1.0405,1.0828,1.1491,1.1891,1.1826,1.3271,1.4638,1.5758,1.6633,1.7339,1.788,1.7403,1.6982,1.6716,1.6046,1.5625,1.5487,1.4836,1.4515,1.4515,1.4515,1.4515,1.4515,1.4515,1.4515,1.4515,1.4586,1.4636,1.4636,1.4813,1.4902,1.4911,1.5059,1.5156,1.5215,1.5215,1.5264,1.5332,0.7812,0.7702,0.7561,0.7346,0.7324,0.7394,0.7545,0.7543,0.7698,0.8227,0.8061,0.7978,0.8092,0.8161,0.8128,0.7882,0.7977,0.7947,0.7745,0.7496,0.7245,0.6967,0.681,0.661,0.646,0.6405,0.6207,0.5863,0.5844,0.5848,0.5845,0.5839,0.5953,0.6231,0.6683,0.7002,0.7221,0.7619,0.78,0.7784,0.7596,0.7484,0.7484,0.7373,0.7215,0.7096,0.7096,0.7215,0.7296,0.7296,0.7296,0.7322,0.7373,0.7201,0.7037,0.7092,0.6957,0.6724,0.6614,0.6498,0.6365,0.6136,0.6007,0.5859,0.5724,0.5731,0.5843,0.608,0.6039,0.6166,0.6748,0.6397,0.6089,0.6462,0.6797,0.7303,0.0,0.94,1.0301,1.0561,1.1095,1.1363,1.1136,1.252,1.4017,1.5391,1.6265,1.7162,1.8054,1.7623,1.7211,1.6917,1.6111,1.5689,1.5689,1.4909,1.4515,1.4515,1.4515,1.4515,1.4515,1.4515,1.4536,1.4586,1.4656,1.4745,1.4813,1.5,1.5059,1.5098,1.5235,1.5264,1.5264,1.5264,1.5332,1.541,0.7833,0.7816,0.7775,0.7604,0.7714,0.7866,0.7916,0.7924,0.8011,0.8312,0.8199,0.8162,0.8264,0.8478,0.8512,0.8294,0.8575,0.8533,0.7991,0.7873,0.7583,0.7156,0.6875,0.6719,0.6753,0.6603,0.645,0.6338,0.6328,0.6314,0.63,0.6252,0.6279,0.6417,0.6632,0.6913,0.7211,0.7637,0.7788,0.7771,0.7604,0.7492,0.7484,0.7484,0.7484,0.7484,0.7484,0.7484,0.7484,0.7484,0.7476,0.7443,0.7277,0.7183,0.7179,0.7041,0.6984,0.694,0.6659,0.6615,0.6502,0.6179,0.6134,0.6092,0.592,0.6043,0.6401,0.703,0.6771,0.6881,0.8433,0.7421,0.6667,0.757,0.6993,0.69,0.8341,0.9136,0.9836,1.0538,1.0613,1.06,1.0613,1.1539,1.2907,1.4775,1.5872,1.695,1.8053,1.8063,1.7715,1.6963,1.612,1.5689,1.5689,1.4909,1.4515,1.4515,1.4515,1.4515,1.4515,1.4506,1.4586,1.4715,1.4715,1.4834,1.5029,1.5156,1.5215,1.5215,1.5362,1.541,1.541,1.541,1.541,1.541,0.7833,0.8012,0.8182,0.8318,0.8257,0.8231,0.8376,0.8273,0.8272,0.8625,0.8534,0.8344,0.8162,0.8307,0.8196,0.7671,0.7886,0.7935,0.7705,0.7653,0.761,0.7538,0.7217,0.7102,0.7374,0.6881,0.6676,0.6753,0.6434,0.6334,0.636,0.6371,0.6375,0.6417,0.6769,0.7017,0.7203,0.746,0.7592,0.76,0.7694,0.7645,0.7484,0.7484,0.7484,0.7484,0.7484,0.7484,0.7484,0.7484,0.7399,0.7285,0.7203,0.7135,0.7049,0.7004,0.6898,0.6761,0.6692,0.6557,0.6439,0.6356,0.6612,0.6905,0.678,0.7219,0.7702,0.7873,0.8053,0.806,0.7749,0.7534,0.7238,0.6774,0.7504,0.8353,0.8938,0.9926,1.0758,1.1142,1.0854,1.0673,1.0894,1.1867,1.3256,1.5146,1.5463,1.6483,1.8447,1.7706,1.7257,1.7339,1.6266,1.5689,1.5689,1.4909,1.4515,1.4515,1.4515,1.4515,1.4515,1.4616,1.4656,1.4706,1.4961,1.5088,1.5156,1.5284,1.5362,1.5362,1.5381,1.541,1.541,1.541,1.541,1.541,0.8053,0.8276,0.858,0.8767,0.8714,0.8678,0.8783,0.8637,0.8555,0.8872,0.8717,0.8518,0.8412,0.8571,0.8463,0.7931,0.8161,0.8152,0.7698,0.7684,0.7611,0.7451,0.7228,0.7234,0.7541,0.7239,0.7115,0.7225,0.7021,0.6858,0.67,0.6671,0.6622,0.6559,0.6875,0.709,0.7207,0.7496,0.7596,0.7492,0.7637,0.7616,0.0,0.7484,0.7484,0.7484,0.7484,0.7484,0.7484,0.7484,0.7419,0.7326,0.7211,0.7098,0.6971,0.6898,0.6953,0.7042,0.7042,0.7187,0.7321,0.7332,0.7536,0.7761,0.7673,0.7991,0.8397,0.87,0.8703,0.8694,0.8886,0.8271,0.7585,0.7139,0.8189,0.9166,0.9655,1.0313,1.0853,1.1196,1.1062,1.0955,1.0989,1.145,1.2482,1.4314,1.4874,1.5882,1.7634,1.7524,1.7458,1.7495,1.6321,1.5689,1.5689,1.4909,1.4515,1.4515,1.4556,1.4586,1.4586,1.4754,1.4872,1.4931,1.5117,1.5235,1.5284,1.5362,1.541,1.541,1.541,1.541,1.541,1.541,1.541,1.541,0.8361,0.8645,0.8942,0.91,0.9149,0.9169,0.9169,0.897,0.8877,0.9039,0.8792,0.8658,0.8763,0.892,0.886,0.8477,0.8734,0.8581,0.7856,0.7811,0.766,0.7279,0.7228,0.7363,0.7639,0.7573,0.7567,0.7654,0.7681,0.7492,0.7068,0.7049,0.6918,0.6704,0.691,0.7118,0.7317,0.7665,0.7706,0.7555,0.7492,0.7484,0.7522,0.7633,0.7599,0.7522,0.7633,0.7599,0.7484,0.7484,0.7468,0.7461,0.7381,0.728,0.7137,0.7082,0.7385,0.7734,0.7734,0.8136,0.8565,0.8565,0.8576,0.8603,0.8571,0.8613,0.8881,0.9519,0.9173,0.9169,1.0558,0.912,0.78,0.8157,0.8885,0.968,1.0317,1.0502,1.0726,1.1069,1.1263,0.0,1.1069,1.0821,1.1348,1.3073,1.4108,1.5196,1.6448,1.7378,1.7761,1.7504,1.6321,1.5689,1.5689,1.4909,1.4506,1.4536,1.4636,1.4715,1.4745,1.4941,1.5098,1.5215,1.5215,1.5284,1.541,1.541,1.541,1.541,1.541,1.541,1.541,1.541,1.541,1.541,0.8727,0.9015,0.9318,0.9351,0.9433,0.9535,0.9535,0.9129,0.8832,0.8865,0.8816,0.8697,0.8552,0.8584,0.85,0.8197,0.8204,0.8151,0.7908,0.7982,0.8027,0.8028,0.7852,0.7944,0.8392,0.7848,0.7693,0.7936,0.7785,0.745,0.7009,0.7139,0.7005,0.6704,0.691,0.7257,0.771,0.7775,0.778,0.7739,0.7584,0.7484,0.7557,0.8246,0.8093,0.7599,0.8246,0.8055,0.7484,0.7484,0.7387,0.7377,0.7992,0.8101,0.811,0.8728,0.9,0.9071,0.9071,0.896,0.8842,0.8842,0.9088,0.9338,0.9315,0.9783,1.0238,1.0373,1.0464,1.0371,0.985,0.8946,0.8339,0.8626,0.9529,1.0246,1.0378,1.1098,1.1664,1.1724,1.1329,1.1142,1.1295,1.1089,1.157,1.3088,1.3341,1.4336,1.6404,1.6561,1.6899,1.7477,1.6321,1.5689,1.5689,1.4909,1.4556,1.4656,1.4686,1.4775,1.4941,1.5098,1.5186,1.5215,1.5313,1.5391,1.541,1.541,1.541,1.541,1.541,1.541,1.541,1.541,1.541,1.541,0.9096,0.9311,0.9494,0.9494,0.9567,0.9579,0.9579,0.9328,0.9068,0.8974,0.8881,0.8775,0.8688,0.8852,0.8795,0.8344,0.836,0.8257,0.7915,0.7975,0.8027,0.8032,0.794,0.8076,0.8384,0.8075,0.799,0.8154,0.7936,0.7664,0.7269,0.7317,0.7171,0.6882,0.7245,0.7821,0.8475,0.8679,0.8986,0.9343,0.9052,0.8966,0.899,0.9228,0.9069,0.8803,0.9183,0.9069,0.8689,0.828,0.8069,0.8107,0.8911,0.9056,0.899,0.9378,0.9715,0.9921,0.9921,0.9946,0.9983,0.9983,1.0043,1.0072,1.0072,1.0364,1.0546,1.0392,1.0441,1.0289,0.9518,0.9583,0.9696,0.9561,1.0468,1.1123,1.0943,1.1481,1.1792,1.1484,1.1296,1.1156,1.0995,1.0881,1.1302,1.2479,1.3276,1.4327,1.5808,1.6328,1.689,1.7477,1.6321,1.5721,1.5785,1.5013,1.4704,1.4872,1.4931,1.5,1.5117,1.5225,1.5313,1.5313,1.5362,1.541,1.541,1.541,1.541,1.541,1.541,1.541,1.541,1.541,1.541,1.541,0.9412,0.9502,0.9616,0.9575,0.9604,0.9579,0.9579,0.9441,0.931,0.9165,0.9027,0.8934,0.8934,0.9153,0.9138,0.8681,0.8662,0.8489,0.8092,0.8032,0.8032,0.8032,0.8032,0.8116,0.8288,0.8292,0.8293,0.8292,0.8182,0.791,0.7484,0.7563,0.7522,0.7409,0.7935,0.8666,0.9512,0.9812,1.0269,1.0816,1.0531,1.0366,1.0301,1.0269,1.0089,0.9933,1.0083,1.0045,0.982,0.9377,0.9117,0.9112,0.99,1.0031,0.9955,1.0137,1.0462,1.0794,1.0794,1.094,1.1089,1.1089,1.0854,1.0593,1.0593,1.0593,1.0526,1.0261,1.016,0.9986,0.9641,1.0238,1.0745,1.0495,1.1153,1.1643,1.1536,1.1724,1.1732,1.1236,1.1323,1.1223,1.0734,1.09,1.1329,1.2047,1.3185,1.416,1.4926,1.6018,1.6872,1.7358,1.6276,1.5753,1.5882,1.5095,1.4813,1.5039,1.5156,1.5215,1.5264,1.5362,1.541,1.541,1.541,1.541,1.541,1.541,1.541,1.541,1.541,1.541,1.541,1.541,1.541,1.541,0.9437,0.9502,0.9575,0.9457,0.9518,0.9579,0.9579,0.934,0.9173,0.9359,0.9363,0.9355,0.9355,0.9198,0.9108,0.9029,0.8792,0.8601,0.8524,0.8524,0.8524,0.8524,0.8524,0.8524,0.8564,0.8564,0.8475,0.8292,0.8486,0.8204,0.7488,0.7694,0.8125,0.8727,0.9086,0.983,1.0839,1.0749,1.0827,1.0985,1.0821,1.0552,1.0395,1.1082,1.0739,1.0008,1.0732,1.0501,1.0008,1.0657,1.0389,0.9933,1.0732,1.0981,1.1112,1.181,1.2091,1.2108,1.2108,1.174,1.1349,1.1349,1.0969,1.0593,1.0593,1.0593,1.0586,1.0553,1.0307,1.0177,1.0438,1.033,1.0436,1.1154,1.1162,1.1249,1.1792,1.1886,1.1886,1.1826,1.1577,1.1262,1.0982,1.185,1.2404,1.2453,1.2584,1.2996,1.3809,1.5112,1.6156,1.6936,1.6138,1.5753,1.5882,1.5095,1.4872,1.5186,1.5186,1.5264,1.5391,1.5381,1.541,1.541,1.541,1.541,1.541,1.541,1.541,1.541,1.541,1.541,1.541,1.541,1.541,1.541,0.9437,0.9502,0.9571,0.9433,0.9506,0.9579,0.9579,0.9506,0.9401,0.9408,0.931,0.9202,0.9202,0.9277,0.921,0.9104,0.8865,0.8678,0.8616,0.8612,0.8612,0.8612,0.8612,0.8612,0.8612,0.8612,0.8834,0.9264,0.8716,0.8543,0.8815,0.8896,0.9377,1.018,1.028,1.0905,1.1834,1.1892,1.2314,1.2859,1.2581,1.2401,1.2265,1.2292,1.2012,1.1664,1.1764,1.1626,1.1397,1.1706,1.1292,1.0769,1.1558,1.1818,1.1892,1.2224,1.2305,1.2305,1.2305,1.1877,1.1389,1.1389,1.0855,1.0341,1.0553,1.0452,1.0294,1.0294,0.992,0.9704,1.0207,1.02,1.0287,1.0822,1.0955,1.1015,1.1109,1.1383,1.1536,1.1363,1.139,1.1275,1.1022,1.1394,1.1814,1.2221,1.318,1.4074,1.4876,1.5422,1.6065,1.6881,1.6186,1.5891,1.6092,1.5357,1.5108,1.5313,1.5313,1.5362,1.541,1.541,1.541,1.541,1.541,1.541,1.541,1.541,1.541,1.541,1.541,1.541,1.541,1.541,1.541,1.541,0.9437,0.9502,0.9571,0.9433,0.9462,0.9563,0.9571,0.9779,0.9868,0.984,0.99,0.9736,0.9143,0.9157,0.9149,0.9027,0.8852,0.8828,0.8964,0.8999,0.9087,0.9388,0.9388,0.9388,0.9388,0.9388,0.9689,1.0289,0.9542,0.9479,1.0087,1.0087,1.0543,1.1419,1.145,1.2033,1.2891,1.3049,1.3483,1.4068,1.3854,1.368,1.3547,1.3073,1.2864,1.2744,1.2412,1.2305,1.2305,1.2305,1.1929,1.1558,1.2114,1.2305,1.2305,1.2305,1.2305,1.2305,1.2305,1.1937,1.1536,1.1415,1.0828,1.0301,1.0546,1.0327,1.0083,1.0083,0.9757,0.9597,1.001,1.0083,1.0241,1.0653,1.0821,1.0888,1.0854,1.1169,1.1315,1.1142,1.1262,1.1275,1.1022,1.1492,1.196,1.2345,1.3957,1.5109,1.556,1.5547,1.589,1.6707,1.6076,1.5744,1.5829,1.5423,1.5196,1.5225,1.5352,1.541,1.541,1.541,1.541,1.541,1.541,1.541,1.541,1.541,1.541,1.541,1.541,1.541,1.541,1.541,1.541,1.541,0.9437,0.9502,0.9571,0.9433,0.9404,0.9469,0.96,1.017,1.0678,1.0844,1.1517,1.1242,0.9325,0.8934,0.8828,0.8824,0.867,0.8959,0.9816,0.9903,1.0289,1.1241,1.1284,1.1284,1.1284,1.1284,1.1284,1.1278,1.1278,1.1155,1.0997,1.0997,1.1496,1.2389,1.2578,1.3215,1.4082,1.4088,1.4088,1.4088,1.4082,1.3908,1.3573,1.3313,1.3013,1.2744,1.2412,1.2305,1.2305,1.2305,1.2298,1.2298,1.2305,1.2305,1.2305,1.2305,1.2305,1.2305,1.2305,1.2091,1.1826,1.1462,1.0982,1.0586,1.0593,1.0327,1.0083,1.0083,1.0077,1.0077,1.0083,1.0083,1.0307,1.0895,1.0787,1.0801,1.1336,1.1389,1.1389,1.1389,1.1389,1.1275,1.1022,1.263,1.3516,1.3108,1.4708,1.556,1.5332,1.5172,1.5487,1.626,1.566,1.5184,1.4911,1.5088,1.5061,1.4795,1.5215,1.541,1.541,1.541,1.541,1.541,1.541,1.541,1.541,1.541,1.541,1.541,1.541,1.541,1.541,1.541,1.541,1.541,0.9437,0.9502,0.9763,1.0341,1.0553,1.0856,1.1604,1.1755,1.1719,1.1677,1.1698,1.1452,1.0686,1.0692,1.0731,1.0731,1.0543,1.0549,1.0852,1.0852,1.0982,1.1278,1.1284,1.1284,1.1284,1.1284,1.1628,1.2229,1.1628,1.1584,1.2143,1.2143,1.2656,1.3565,1.3613,1.3828,1.4088,1.4088,1.4088,1.4088,1.4088,1.4035,1.3915,1.3573,1.3407,1.3293,1.2824,1.2643,1.261,1.2371,1.2305,1.2305,1.2305,1.2305,1.2305,1.2305,1.2305,1.2305,1.2305,1.2091,1.1832,1.1462,1.0989,1.0539,1.0307,1.018,1.0174,1.0374,1.01,0.9947,1.0378,1.0094,1.0013,1.0633,1.0653,1.0727,1.1076,1.1262,1.1389,1.1389,1.1603,1.1818,1.2085,1.2772,1.3598,1.4538,1.5058,1.54,1.5555,1.526,1.5372,1.6002,1.538,1.5166,1.5508,1.511,1.5011,1.5215,1.5352,1.541,1.541,1.541,1.541,1.541,1.541,1.541,1.541,1.541,1.541,1.541,1.541,1.541,1.541,1.541,1.541,1.541,1.0663,1.0706,1.0947,1.1485,1.1649,1.1872,1.2454,1.2758,1.2884,1.2721,1.2893,1.2962,1.2854,1.2756,1.234,1.1548,1.1364,1.1456,1.18,1.1843,1.1972,1.2357,1.2357,1.2357,1.2357,1.2357,1.2619,1.3222,1.2619,1.2662,1.3222,1.3222,1.3525,1.4088,1.4088,1.4088,1.4088,1.4088,1.4088,1.4088,1.4088,1.4088,1.4055,1.372,1.36,1.354,1.3093,1.2958,1.2931,1.2705,1.2565,1.2509,1.2509,1.2392,1.2305,1.2305,1.2305,1.2305,1.2305,1.2171,1.1964,1.1663,1.1156,1.0646,1.0207,1.0083,1.0167,1.0354,1.01,0.996,1.0358,1.0218,1.0164,1.0533,1.068,1.0821,1.0969,1.1336,1.151,1.1289,1.1765,1.2164,1.2384,1.3027,1.3934,1.5206,1.5207,1.5311,1.5689,1.5313,1.5274,1.5649,1.5191,1.5067,1.535,1.5119,1.5078,1.5176,1.5342,1.541,1.541,1.541,1.541,1.541,1.541,1.541,1.541,1.541,1.541,1.541,1.541,1.541,1.541,1.541,1.541,1.5439,1.2635,1.2678,1.2727,1.278,1.2687,1.2587,1.2545,1.3426,1.4068,1.3916,1.4758,1.5364,1.5364,1.4877,1.3729,1.1738,1.1516,1.1892,1.2772,1.2802,1.3179,1.4046,1.4088,1.4088,1.4088,1.4088,1.4088,1.4088,1.4088,1.4088,1.4088,1.4088,1.4088,1.4088,1.4088,1.4088,1.4088,1.4088,1.4088,1.4088,1.4088,1.4088,1.4055,1.374,1.3633,1.3593,1.3347,1.324,1.3233,1.322,1.3019,1.2811,1.279,1.2596,1.2325,1.2311,1.2305,1.2305,1.2305,1.2305,1.2231,1.198,1.1444,1.0828,1.0301,1.0134,1.007,1.014,1.0114,1.01,1.014,1.0374,1.06,1.062,1.0835,1.1029,1.1049,1.1572,1.1741,1.1149,1.1894,1.2413,1.2238,1.3404,1.4483,1.5272,1.5226,1.5322,1.5666,1.5335,1.5155,1.5281,1.5091,1.4869,1.4656,1.5128,1.5186,1.4862,1.5225,1.541,1.541,1.541,1.541,1.541,1.541,1.541,1.541,1.541,1.541,1.5468,1.5468,1.5497,1.5526,1.5526,1.5546,1.5625,1.2635,1.2678,1.2974,1.3757,1.3897,1.41,1.4861,1.5012,1.5061,1.5015,1.506,1.5109,1.5109,1.4988,1.4696,1.4173,1.3683,1.3615,1.405,1.3861,1.387,1.4088,1.4088,1.4088,1.4088,1.4088,1.4088,1.4088,1.4088,1.4088,1.4088,1.4088,1.4088,1.4088,1.4088,1.4088,1.4088,1.4088,1.4088,1.4088,1.4088,1.4088,1.4082,1.4008,1.3981,1.3941,1.3606,1.35,1.3467,1.3287,1.316,1.306,1.2857,1.2737,1.2636,1.2371,1.2305,1.2305,1.2305,1.2305,1.2231,1.198,1.1296,1.072,1.0768,1.0267,0.9913,1.0392,1.0131,0.9927,1.0405,1.0546,1.0667,1.0855,1.1136,1.1403,1.1665,1.2033,1.223,1.208,1.2714,1.3286,1.3618,1.4426,1.5122,1.5575,1.5856,1.5831,1.5423,1.5312,1.5209,1.5072,1.4821,1.4868,1.5206,1.5039,1.5049,1.5264,1.5361,1.541,1.541,1.541,1.541,1.541,1.541,1.541,1.541,1.541,1.5661,1.6083,1.6083,1.6358,1.6782,1.6782,1.7034,1.7326,1.4082,1.413,1.428,1.4867,1.4968,1.5114,1.5558,1.5611,1.5545,1.5418,1.5378,1.5311,1.5223,1.5164,1.5164,1.5164,1.4623,1.4349,1.4509,1.4249,1.4088,1.4088,1.4088,1.4088,1.4088,1.4088,1.4088,1.4088,1.4088,1.4088,1.4088,1.4088,1.4088,1.4088,1.4088,1.4088,1.4088,1.4088,1.4088,1.4088,1.4088,1.4088,1.4088,1.4088,1.4088,1.4068,1.3908,1.3848,1.3821,1.3661,1.352,1.334,1.3206,1.3066,1.2938,1.263,1.2412,1.2305,1.2305,1.2305,1.2231,1.198,1.1544,1.1162,1.1022,1.0553,1.0164,1.0352,1.0107,0.998,1.0301,1.0606,1.0841,1.0969,1.1349,1.1823,1.2332,1.2528,1.2706,1.2931,1.336,1.376,1.4076,1.4577,1.5117,1.5744,1.5656,1.5525,1.5451,1.5324,1.5207,1.5098,1.4955,1.5042,1.541,1.5186,1.5186,1.541,1.541,1.541,1.541,1.541,1.541,1.541,1.541,1.541,1.541,1.541,1.5748,1.6312,1.6312,1.6669,1.7202,1.7202,1.7525,1.7973,1.5772,1.5784,1.5784,1.5784,1.5784,1.5698,1.5504,1.5671,1.5738,1.5491,1.5678,1.5718,1.5431,1.5398,1.5378,1.5337,1.4836,1.4536,1.4583,1.4315,1.4135,1.4088,1.4088,1.4088,1.4088,1.4088,1.4088,1.4088,1.4088,1.4088,1.4088,1.4088,1.4088,1.4088,1.4088,1.4088,1.4088,1.4088,1.4088,1.4088,1.4088,1.4088,1.4088,1.4088,1.4088,1.4088,1.4088,1.4088,1.4088,1.4088,1.3921,1.366,1.362,1.3433,1.3213,1.2945,1.2643,1.2358,1.2311,1.2305,1.2245,1.2033,1.194,1.1772,1.1236,1.0901,1.0586,1.0301,1.0214,1.02,1.0241,1.0695,1.1102,1.1282,1.1784,1.2387,1.3151,1.3182,1.3294,1.3716,1.3896,1.4044,1.4191,1.4441,1.4946,1.5722,1.5203,1.5029,1.5503,1.5309,1.5215,1.5235,1.5235,1.5284,1.541,1.541,1.541,1.541,1.541,1.541,1.541,1.541,1.541,1.541,1.541,1.541,1.541,1.541,1.5806,1.6443,1.6443,1.6866,1.7479,1.7479,1.7818,1.8307,1.5772,1.5784,1.5784,1.5784,1.5784,1.5764,1.5718,1.5751,1.5764,1.5718,1.5751,1.5718,1.5431,1.5398,1.5297,1.5102,1.4716,1.4629,1.4877,1.4616,1.4342,1.4095,1.4088,1.4088,1.4088,1.4088,1.4088,1.4088,1.4088,1.4088,1.4088,1.4088,1.4088,1.4088,1.4088,1.4088,1.4088,1.4088,1.4088,1.4088,1.4088,1.4088,1.4088,1.4088,1.4088,1.4088,1.4088,1.4088,1.4088,1.4088,1.4055,1.3975,1.368,1.3573,1.348,1.3227,1.2958,1.2663,1.2371,1.2305,1.2291,1.2245,1.2087,1.1879,1.1785,1.1316,1.0915,1.0868,1.0693,1.06,1.0808,1.1129,1.1642,1.254,1.2998,1.3526,1.4237,1.4356,1.4363,1.4436,1.4408,1.4469,1.4591,1.4958,1.5163,1.5149,1.5338,1.5389,1.5271,1.5224,1.5264,1.5362,1.5362,1.5391,1.541,1.541,1.541,1.541,1.541,1.541,1.541,1.541,1.541,1.541,1.541,1.541,1.541,1.541,1.6054,1.7062,1.7062,1.7727,1.8709,1.8709,1.9068,1.9506,1.5758,1.5784,1.5784,1.5784,1.5784,1.5784,1.5784,1.5784,1.5772,1.5618,1.5591,1.5484,1.5197,1.5164,1.511,1.5022,1.4836,1.475,1.473,1.4449,1.4229,1.4095,1.4088,1.4088,1.4088,1.4088,1.4088,1.4088,1.4088,1.4088,1.4088,1.4088,1.4088,1.4088,1.4088,1.4088,1.4088,1.4088,1.4088,1.4088,1.4088,1.4088,1.4088,1.4088,1.4088,1.4088,1.4088,1.4088,1.4088,1.4088,1.4088,1.4062,1.3928,1.3881,1.3828,1.3487,1.3113,1.2717,1.2385,1.2305,1.2305,1.2305,1.2204,1.2094,1.194,1.1698,1.1416,1.1263,1.1122,1.1069,1.1202,1.1799,1.2423,1.2915,1.36,1.4288,1.4854,1.474,1.4685,1.4942,1.4754,1.4666,1.4843,1.5021,1.5119,1.5107,1.5269,1.5348,1.5323,1.5313,1.5332,1.541,1.541,1.541,1.541,1.541,1.541,1.541,1.541,1.541,1.541,1.541,1.541,1.541,1.541,1.541,1.541,1.541,1.6112,1.7202,1.7202,1.7929,1.9049,1.9312,1.9768,2.0241,1.5784,1.5784,1.5784,1.5784,1.5784,1.5784,1.5784,1.5784,1.5752,1.5524,1.5438,1.5284,1.5042,1.4948,1.4881,1.4814,1.48,1.4663,1.4436,1.4208,1.4088,1.4088,1.4088,1.4088,1.4088,1.4088,1.4088,1.4088,1.4088,1.4088,1.4088,1.4088,1.4088,1.4088,1.4088,1.4088,1.4088,1.4088,1.4088,1.4088,1.4088,1.4088,1.4088,1.4088,1.4088,1.4088,1.4088,1.4088,1.4088,1.4088,1.4088,1.4088,1.4088,1.4088,1.4041,1.3773,1.3373,1.2911,1.2505,1.2405,1.2385,1.2318,1.2305,1.2245,1.206,1.2007,1.1884,1.159,1.1661,1.1765,1.1765,1.2603,1.3322,1.3496,1.4202,1.4862,1.5264,1.4983,1.485,1.5263,1.4937,1.4775,1.5029,1.5039,1.5088,1.5235,1.5264,1.5284,1.5381,1.541,1.541,1.541,1.541,1.541,1.541,1.541,1.541,1.541,1.541,1.541,1.541,1.541,1.5469,1.5557,1.5459,1.5498,1.5683,1.5605,1.6366,1.7551,1.7551,1.8282,1.942,1.9829,2.0249,2.0665,1.5784,1.5784,1.5784,1.5784,1.5784,1.5784,1.5784,1.5784,1.5771,1.5751,1.5565,1.5284,1.5042,1.4716,1.4442,1.4175,1.4155,1.4142,1.4122,1.4095,1.4088,1.4088,1.4088,1.4088,1.4088,1.4088,1.4088,1.4088,1.4088,1.4088,1.4088,1.4088,1.4088,1.4088,1.4088,1.4088,1.4088,1.4088,1.4088,1.4088,1.4088,1.4088,1.4088,1.4088,1.4088,1.4088,1.4088,1.4088,1.4088,1.4088,1.4088,1.4088,1.4088,1.4088,1.4082,1.4062,1.3828,1.3447,1.2911,1.275,1.2683,1.2371,1.2305,1.2291,1.2278,1.2271,1.2184,1.1933,1.2424,1.2873,1.2873,1.355,1.43,1.4933,1.5095,1.5289,1.5627,1.5332,1.5129,1.5297,1.4937,1.4834,1.5156,1.5186,1.5235,1.5391,1.5381,1.5381,1.541,1.541,1.541,1.541,1.541,1.541,1.541,1.541,1.541,1.541,1.541,1.541,1.541,1.541,1.5635,1.6016,1.5586,1.5849,1.657,1.6191,1.7061,1.8578,1.8578,1.9351,2.0502,2.0538,2.0586,2.0665,1.5784,1.5784,1.5784,1.5784,1.5784,1.5784,1.5784,1.5784,1.5718,1.5585,1.5311,1.5129,1.5022,1.4536,1.4282,1.4349,1.4195,1.4088,1.4088,1.4088,1.4088,1.4088,1.4088,1.4088,1.4088,1.4088,1.4088,1.4088,1.4088,1.4088,1.4088,1.4088,1.4088,1.4088,1.4088,1.4088,1.4088,1.4088,1.4088,1.4088,1.4088,1.4088,1.4088,1.4088,1.4088,1.4088,1.4088,1.4088,1.4088,1.4088,1.4088,1.4088,1.4088,1.4088,1.4088,1.4088,1.4008,1.3828,1.3414,1.3065,1.2717,1.2378,1.2305,1.2305,1.2305,1.2305,1.2412,1.2804,1.3136,1.3451,1.3907,1.4657,1.5194,1.5215,1.5596,1.5743,1.5382,1.5194,1.5093,1.5125,1.4976,1.499,1.5313,1.5313,1.5362,1.541,1.541,1.541,1.541,1.541,1.541,1.541,1.541,1.541,1.541,1.541,1.541,1.541,1.541,1.541,1.542,1.5693,1.5938,1.6095,1.6182,1.6395,1.6719,1.704,1.7768,1.8747,1.9168,1.9831,2.0629,2.0983,2.1103,2.1187,1.5784,1.5784,1.5784,1.5784,1.5784,1.5784,1.5784,1.5784,1.5678,1.5438,1.5189,1.4975,1.4836,1.4382,1.4168,1.4369,1.4202,1.4088,1.4088,1.4088,1.4088,1.4088,1.4088,1.4088,1.4088,1.4088,1.4088,1.4088,1.4088,1.4088,1.4088,1.4088,1.4088,1.4088,1.4088,1.4088,1.4088,1.4088,1.4088,1.4088,1.4088,1.4088,1.4088,1.4088,1.4088,1.4088,1.4088,1.4088,1.4088,1.4088,1.4088,1.4088,1.4088,1.4088,1.4088,1.4088,1.4088,1.4021,1.3686,1.328,1.2857,1.2556,1.2445,1.2418,1.2325,1.2482,1.2849,1.339,1.389,1.4394,1.4895,1.5613,1.5992,1.5615,1.5977,1.6037,1.5212,1.5102,1.5038,1.4929,1.497,1.5088,1.5313,1.5391,1.541,1.541,1.541,1.541,1.541,1.541,1.541,1.541,1.541,1.541,1.541,1.541,1.541,1.541,1.541,1.5488,1.5625,1.5958,1.6242,1.6515,1.687,1.7193,1.7464,1.8072,1.8746,1.9505,1.9962,2.0515,2.1151,2.1512,2.1644,2.1704,1.5784,1.5784,1.5784,1.5784,1.5784,1.5784,1.5784,1.5784,1.5678,1.5438,1.5189,1.485,1.4556,1.4262,1.4088,1.4088,1.4088,1.4088,1.4088,1.4088,1.4088,1.4088,1.4088,1.4088,1.4088,1.4088,1.4088,1.4088,1.4088,1.4088,1.4088,1.4088,1.4088,1.4088,1.4088,1.4088,1.4088,1.4088,1.4088,1.4088,1.4088,1.4088,1.4088,1.4088,1.4088,1.4088,1.4088,1.4088,1.4088,1.4088,1.4088,1.4088,1.4088,1.4088,1.4088,1.4088,1.4088,1.4021,1.3686,1.34,1.314,1.2864,1.2784,1.2703,1.2371,1.2915,1.3499,1.3535,1.4752,1.5798,1.5798,1.6403,1.678,1.6386,1.6288,1.6037,1.5221,1.5102,1.5017,1.4732,1.4882,1.5068,1.5186,1.5342,1.5391,1.541,1.541,1.541,1.541,1.541,1.541,1.542,1.542,1.542,1.542,1.542,1.542,1.542,1.542,1.5644,1.6095,1.6105,1.6584,1.7429,1.7707,1.8258,1.9036,1.9286,2.007,2.1092,2.1103,2.1557,2.2197,2.2197,2.2197,2.2197,1.5784,1.5784,1.5784,1.5784,1.5784,1.5784,1.5784,1.5784,1.5678,1.5438,1.5189,1.485,1.4556,1.4262,1.4168,1.4369,1.4208,1.4088,1.4088,1.4088,1.4088,1.4088,1.4088,1.4088,1.4088,1.4088,1.4088,1.4088,1.4295,1.4389,1.4389,1.4389,1.4389,1.4382,1.4175,1.4088,1.4088,1.4088,1.4088,1.4088,1.4088,1.4088,1.4088,1.4088,1.4088,1.4088,1.4088,1.4088,1.4088,1.4088,1.4088,1.4088,1.4088,1.4088,1.4088,1.4088,1.4088,1.4068,1.3981,1.3895,1.3654,1.2965,1.263,1.2553,1.3046,1.3317,1.3825,1.4903,1.5471,1.5974,1.6473,1.676,1.678,1.6386,1.6288,1.6129,1.5588,1.5515,1.5453,1.5353,1.5396,1.5403,1.5342,1.5664,1.5742,1.543,1.541,1.541,1.541,1.541,1.5557,1.5889,1.5899,1.6016,1.6307,1.6025,1.5899,1.5899,1.5899,1.6103,1.6533,1.7051,1.7583,1.8145,1.9019,1.9544,1.9824,2.0381,2.0796,2.1167,2.1663,2.203,2.2197,2.2197,2.2197,2.2228,1.5758,1.5784,1.5784,1.5784,1.5784,1.5784,1.5784,1.5732,1.5558,1.5264,1.497,1.4723,1.4536,1.4362,1.4329,1.4502,1.4255,1.4088,1.4088,1.4088,1.4088,1.4088,1.4088,1.4088,1.4088,1.4202,1.4255,1.4255,1.4549,1.4636,1.4479,1.4643,1.4629,1.4516,1.4456,1.4369,1.4255,1.4255,1.4195,1.4088,1.4088,1.4088,1.4088,1.4088,1.4088,1.4088,1.4088,1.4088,1.4088,1.4088,1.4088,1.4088,1.4088,1.4088,1.4088,1.4088,1.4088,1.4088,1.4088,1.4246,1.4303,1.3773,1.3359,1.3173,1.3448,1.3962,1.4681,1.5613,1.6044,1.6368,1.6839,1.6908,1.6826,1.6587,1.6551,1.6438,1.609,1.6067,1.6007,1.5839,1.5925,1.5913,1.5836,1.6141,1.6221,1.5957,1.5907,1.5907,1.5907,1.5907,1.6055,1.6318,1.6328,1.6455,1.6697,1.6631,1.6525,1.6328,1.6328,1.6562,1.6992,1.7705,1.8258,1.8716,1.9965,2.0484,2.0549,2.1242,2.1526,2.1588,2.203,2.2216,2.2278,2.2278,2.234,2.2402,1.5738,1.5744,1.5744,1.5744,1.5764,1.5771,1.5792,1.5585,1.5331,1.5082,1.477,1.4589,1.4563,1.4563,1.4569,1.4596,1.4355,1.4195,1.4168,1.4142,1.4128,1.4128,1.4128,1.4128,1.4128,1.4389,1.4492,1.4563,1.4856,1.4863,1.4603,1.4877,1.4856,1.4609,1.4856,1.4796,1.4522,1.4522,1.4355,1.4088,1.4088,1.4088,1.4088,1.4088,1.4088,1.4088,1.4088,1.4088,1.4088,1.4088,1.4088,1.4088,1.4088,1.4088,1.4088,1.4088,1.4088,1.413,1.4215,1.4572,1.494,1.4992,1.4774,1.4399,1.3895,1.4812,1.5833,1.5868,1.6438,1.6908,1.6934,1.6943,1.6943,1.6943,1.6943,1.6883,1.6715,1.6693,1.6567,1.6296,1.645,1.6545,1.6507,1.6634,1.6716,1.6755,1.6726,1.6697,1.6697,1.6697,1.6716,1.6755,1.6755,1.6775,1.6814,1.7301,1.7314,1.685,1.685,1.714,1.7662,1.8306,1.8814,1.9266,2.0613,2.1198,2.1262,2.1925,2.2197,2.2197,2.2197,2.2278,2.2389,2.2389,2.2525,2.272,1.5478,1.5491,1.5491,1.5491,1.5678,1.5752,1.5524,1.5631,1.5631,1.5344,1.5244,1.5117,1.489,1.4914,1.4957,1.5184,1.515,1.5017,1.4834,1.4556,1.4429,1.4429,1.4429,1.4429,1.4429,1.4489,1.4636,1.4914,1.5164,1.5271,1.5204,1.5271,1.5271,1.5197,1.5082,1.4796,1.4522,1.4522,1.4355,1.4088,1.4088,1.4088,1.4088,1.4088,1.4088,1.4088,1.4088,1.4088,1.4088,1.4088,1.4088,1.4088,1.4088,1.4088,1.4088,1.4088,1.4088,1.425,1.495,1.5177,1.539,1.5894,1.6115,1.6162,1.5855,1.5789,1.5974,1.6542,1.6795,1.6943,1.7107,1.7132,1.7176,1.7323,1.7367,1.7364,1.7313,1.7294,1.721,1.6938,1.6956,1.6896,1.6663,1.6665,1.6843,1.7217,1.6892,1.6697,1.6697,1.6697,1.6853,1.7227,1.7246,1.7402,1.7734,1.8338,1.8453,1.8045,1.8045,1.8539,1.9522,1.9876,2.0248,2.0698,2.16,2.1956,2.1956,2.2123,2.2197,2.2197,2.2197,2.2278,2.2389,2.2389,2.2525,2.2708,1.5164,1.5304,1.5398,1.5398,1.5638,1.5731,1.5625,1.5611,1.5571,1.5418,1.5277,1.5184,1.517,1.517,1.5231,1.5384,1.5271,1.5169,1.5022,1.4823,1.4669,1.4529,1.4656,1.473,1.473,1.487,1.5017,1.517,1.5464,1.5531,1.5398,1.5538,1.5531,1.5398,1.5384,1.5211,1.493,1.479,1.4563,1.4282,1.4142,1.4088,1.4088,1.4088,1.4088,1.4088,1.4088,1.4088,1.4088,1.4088,1.4088,1.4088,1.4088,1.4088,1.4088,1.4088,1.437,1.4824,1.5276,1.6008,1.6732,1.7143,1.754,1.7619,1.6696,1.6492,1.6612,1.7081,1.7194,1.722,1.7323,1.7348,1.7392,1.747,1.7505,1.7539,1.7588,1.7588,1.7571,1.7528,1.7532,1.7478,1.733,1.7311,1.7432,1.7666,1.7471,1.7311,1.7311,1.7311,1.7418,1.7676,1.7999,1.8265,1.8496,1.9177,1.9576,1.9682,1.9372,1.9533,2.0128,2.0577,2.0882,2.1123,2.1894,2.2197,2.2197,2.2197,2.2197,2.2197,2.2197,2.234,2.2543,2.2543,2.2696,2.2909,1.4961,1.5197,1.5398,1.5398,1.5638,1.5764,1.5718,1.5591,1.5471,1.5471,1.5257,1.5204,1.5444,1.5471,1.5471,1.5471,1.5251,1.5156,1.5156,1.5109,1.493,1.4683,1.4903,1.5062,1.5008,1.5297,1.5471,1.5471,1.5712,1.5705,1.5478,1.5718,1.5698,1.5478,1.5718,1.5665,1.5378,1.5129,1.4796,1.4496,1.4202,1.4088,1.4088,1.4088,1.4088,1.4088,1.4088,1.4088,1.4088,1.4088,1.4088,1.413,1.4292,1.4334,1.4334,1.4496,1.5068,1.5636,1.5801,1.6935,1.8118,1.843,1.8786,1.8712,1.7394,1.725,1.7398,1.748,1.7505,1.7505,1.7529,1.7529,1.7529,1.7573,1.7573,1.7632,1.775,1.774,1.7818,1.7974,1.8008,1.8008,1.8008,1.8008,1.8008,1.8008,1.8008,1.8008,1.8008,1.8008,1.8042,1.8168,1.8721,1.9077,1.9177,1.9901,2.0549,2.1092,2.0645,2.0463,2.0495,2.104,2.1293,2.1325,2.1925,2.2197,2.2197,2.2197,2.2197,2.2197,2.2197,2.2414,2.2708,2.2739,2.2909,2.3108,1.5001,1.5197,1.5398,1.5398,1.5638,1.5698,1.5491,1.5631,1.5772,1.5772,1.5684,1.5732,1.5718,1.5772,1.5772,1.5772,1.5684,1.5712,1.5712,1.5478,1.5317,1.5277,1.5317,1.5217,1.5015,1.5491,1.5772,1.5772,1.5764,1.5758,1.5772,1.5764,1.5758,1.5772,1.5764,1.5665,1.5378,1.5129,1.4796,1.4496,1.4202,1.4088,1.4088,1.4088,1.4088,1.4088,1.4088,1.4088,1.4088,1.4088,1.4088,1.4208,1.4985,1.5228,1.5352,1.6124,1.6412,1.6698,1.7432,1.7948,1.847,1.9222,1.9329,1.926,1.9212,1.855,1.7896,1.758,1.7505,1.7529,1.7647,1.7681,1.7716,1.7906,1.794,1.794,1.7974,1.7974,1.7974,1.8008,1.8008,1.8008,1.8008,1.8008,1.8008,1.8008,1.8008,1.8008,1.8008,1.8008,1.8269,1.8854,1.8944,1.9309,1.9933,2.0613,2.0996,2.1103,2.1663,2.1937,2.1937,2.203,2.2061,2.2061,2.2166,2.2197,2.2197,2.2197,2.2197,2.2197,2.2197,2.2414,2.2739,2.2969,2.3078,2.3108,1.4716,1.4957,1.5204,1.5364,1.5638,1.5738,1.5658,1.5698,1.5784,1.5784,1.5784,1.5784,1.5784,1.5784,1.5784,1.5784,1.5784,1.5784,1.5784,1.5712,1.5565,1.5404,1.5398,1.5337,1.5211,1.5297,1.5504,1.5784,1.5784,1.5784,1.5778,1.5665,1.5671,1.5771,1.5658,1.5605,1.5618,1.5331,1.5037,1.4743,1.4449,1.4229,1.4088,1.4088,1.4088,1.4088,1.4088,1.4088,1.4173,1.4657,1.4824,1.4985,1.5842,1.6124,1.6206,1.6576,1.7017,1.7513,1.7917,1.8487,1.9143,1.9627,1.9809,1.9841,1.9782,1.9406,1.8916,1.8251,1.8116,1.8039,1.7901,1.7862,1.7896,1.7974,1.8008,1.8008,1.8008,1.8008,1.8008,1.8008,1.8008,1.8008,1.8008,1.8008,1.8008,1.8008,1.8008,1.8168,1.8519,1.8563,1.8877,1.9606,1.9987,2.0312,2.0645,2.1368,2.1726,2.1726,2.203,2.2197,2.2197,2.2197,2.2197,2.2197,2.2197,2.2197,2.2197,2.2197,2.2197,2.2197,2.2197,2.2414,2.2739,2.2987,2.3108,2.3108]}]]